Wetterdaten: Donnerstag, 03.07.2025
Datum Zeit Temp. I. Temp. A. Feuchte I. Feuchte A. Luftdruck Regen Wind Richtung Richtung Sonnenschein Solar Taupunkt Windchill Windböen
03.07.2025 00:00 24,6 °C 25,7 °C 57 % 61 % 1013,1 hPa 0,0 l/m² 14,7 km/h (3 Bft) NW 323 ° 0 min 0 W/m² 17,6 °C 24,2 °C 25,7 km/h (4 Bft)
03.07.2025 00:02 24,6 °C 25,6 °C 57 % 61 % 1013,0 hPa 0,0 l/m² 22,7 km/h (4 Bft) N-NW 329 ° 0 min 0 W/m² 17,5 °C 23,2 °C 38,6 km/h (6 Bft)
03.07.2025 00:04 24,6 °C 25,6 °C 57 % 61 % 1012,9 hPa 0,0 l/m² 15,6 km/h (3 Bft) NW 308 ° 0 min 0 W/m² 17,5 °C 24,0 °C 33,8 km/h (5 Bft)
03.07.2025 00:06 24,5 °C 25,5 °C 57 % 61 % 1012,9 hPa 0,0 l/m² 16,9 km/h (3 Bft) W-NW 292 ° 0 min 0 W/m² 17,4 °C 23,7 °C 29,0 km/h (5 Bft)
03.07.2025 00:08 24,6 °C 25,4 °C 57 % 61 % 1012,9 hPa 0,0 l/m² 18,8 km/h (3 Bft) W-NW 294 ° 0 min 0 W/m² 17,3 °C 23,3 °C 30,6 km/h (5 Bft)
03.07.2025 00:10 24,5 °C 25,3 °C 57 % 62 % 1013,0 hPa 0,0 l/m² 14,0 km/h (3 Bft) NW 318 ° 0 min 0 W/m² 17,5 °C 23,8 °C 25,7 km/h (4 Bft)
03.07.2025 00:11 24,5 °C 25,3 °C 57 % 62 % 1013,0 hPa 0,0 l/m² 22,2 km/h (4 Bft) NW 307 ° 0 min 0 W/m² 17,5 °C 22,8 °C 30,6 km/h (5 Bft)
03.07.2025 00:13 24,6 °C 25,3 °C 57 % 62 % 1012,9 hPa 0,0 l/m² 16,1 km/h (3 Bft) W 275 ° 0 min 0 W/m² 17,5 °C 23,5 °C 30,6 km/h (5 Bft)
03.07.2025 00:15 24,6 °C 25,2 °C 57 % 62 % 1012,9 hPa 0,0 l/m² 19,6 km/h (3 Bft) NW 308 ° 0 min 0 W/m² 17,4 °C 23,0 °C 29,0 km/h (5 Bft)
03.07.2025 00:17 24,6 °C 25,1 °C 57 % 62 % 1012,8 hPa 0,0 l/m² 20,2 km/h (4 Bft) W-NW 299 ° 0 min 0 W/m² 17,3 °C 22,8 °C 32,2 km/h (5 Bft)
03.07.2025 00:19 24,6 °C 25,1 °C 57 % 62 % 1013,0 hPa 0,0 l/m² 15,6 km/h (3 Bft) NW 320 ° 0 min 0 W/m² 17,3 °C 23,3 °C 25,7 km/h (4 Bft)
03.07.2025 00:21 24,6 °C 25,0 °C 57 % 63 % 1012,8 hPa 0,0 l/m² 20,5 km/h (4 Bft) NW 309 ° 0 min 0 W/m² 17,5 °C 22,6 °C 37,0 km/h (5 Bft)
03.07.2025 00:23 24,5 °C 24,9 °C 57 % 63 % 1012,9 hPa 0,0 l/m² 19,1 km/h (3 Bft) NW 304 ° 0 min 0 W/m² 17,4 °C 22,6 °C 37,0 km/h (5 Bft)
03.07.2025 00:25 24,5 °C 24,9 °C 57 % 63 % 1012,8 hPa 0,0 l/m² 19,1 km/h (3 Bft) W-NW 288 ° 0 min 0 W/m² 17,4 °C 22,6 °C 37,0 km/h (5 Bft)
03.07.2025 00:27 24,5 °C 24,8 °C 57 % 63 % 1012,8 hPa 0,0 l/m² 20,4 km/h (4 Bft) SW 229 ° 0 min 0 W/m² 17,3 °C 22,4 °C 35,4 km/h (5 Bft)
03.07.2025 00:29 24,5 °C 24,8 °C 57 % 63 % 1012,8 hPa 0,0 l/m² 14,8 km/h (3 Bft) W-NW 294 ° 0 min 0 W/m² 17,3 °C 23,1 °C 30,6 km/h (5 Bft)
03.07.2025 00:31 24,5 °C 24,8 °C 57 % 63 % 1012,8 hPa 0,0 l/m² 18,1 km/h (3 Bft) N 5 ° 0 min 0 W/m² 17,3 °C 22,6 °C 30,6 km/h (5 Bft)
03.07.2025 00:33 24,5 °C 24,7 °C 57 % 63 % 1012,7 hPa 0,0 l/m² 15,7 km/h (3 Bft) NW 323 ° 0 min 0 W/m² 17,2 °C 22,8 °C 29,0 km/h (5 Bft)
03.07.2025 00:35 24,5 °C 24,7 °C 57 % 63 % 1012,8 hPa 0,0 l/m² 17,5 km/h (3 Bft) W-NW 285 ° 0 min 0 W/m² 17,2 °C 22,6 °C 29,0 km/h (5 Bft)
03.07.2025 00:37 24,5 °C 24,6 °C 57 % 64 % 1012,9 hPa 0,0 l/m² 17,9 km/h (3 Bft) N-NW 345 ° 0 min 0 W/m² 17,3 °C 22,4 °C 33,8 km/h (5 Bft)
03.07.2025 00:39 24,5 °C 24,6 °C 57 % 64 % 1013,0 hPa 0,0 l/m² 23,7 km/h (4 Bft) W-NW 292 ° 0 min 0 W/m² 17,3 °C 21,7 °C 40,2 km/h (6 Bft)
03.07.2025 00:41 24,5 °C 24,6 °C 57 % 64 % 1013,0 hPa 0,0 l/m² 18,0 km/h (3 Bft) W-NW 286 ° 0 min 0 W/m² 17,3 °C 22,4 °C 32,2 km/h (5 Bft)
03.07.2025 00:43 24,4 °C 24,6 °C 57 % 64 % 1013,1 hPa 0,0 l/m² 14,1 km/h (3 Bft) NW 316 ° 0 min 0 W/m² 17,3 °C 23,0 °C 30,6 km/h (5 Bft)
03.07.2025 00:44 24,5 °C 24,6 °C 57 % 64 % 1013,0 hPa 0,0 l/m² 9,7 km/h (2 Bft) W-NW 286 ° 0 min 0 W/m² 17,3 °C 23,8 °C 29,0 km/h (5 Bft)
03.07.2025 00:45 24,4 °C 24,5 °C 57 % 64 % 1013,0 hPa 0,0 l/m² 16,1 km/h (3 Bft) W 271 ° 0 min 0 W/m² 17,2 °C 22,5 °C 29,0 km/h (5 Bft)
03.07.2025 00:46 24,4 °C 24,4 °C 57 % 64 % 1013,0 hPa 0,0 l/m² 15,4 km/h (3 Bft) W-NW 301 ° 0 min 0 W/m² 17,1 °C 22,5 °C 22,5 km/h (4 Bft)
03.07.2025 00:48 24,4 °C 24,4 °C 57 % 64 % 1013,2 hPa 0,0 l/m² 19,5 km/h (3 Bft) NW 313 ° 0 min 0 W/m² 17,1 °C 22,0 °C 38,6 km/h (6 Bft)
03.07.2025 00:50 24,4 °C 24,4 °C 57 % 64 % 1013,3 hPa 0,0 l/m² 16,8 km/h (3 Bft) N-NW 336 ° 0 min 0 W/m² 17,1 °C 22,3 °C 25,7 km/h (4 Bft)
03.07.2025 00:52 24,4 °C 24,4 °C 57 % 65 % 1013,3 hPa 0,0 l/m² 15,8 km/h (3 Bft) N-NO 21 ° 0 min 0 W/m² 17,4 °C 22,5 °C 24,1 km/h (4 Bft)
03.07.2025 00:54 24,4 °C 24,3 °C 57 % 65 % 1013,3 hPa 0,0 l/m² 16,5 km/h (3 Bft) N-NW 340 ° 0 min 0 W/m² 17,3 °C 22,2 °C 32,2 km/h (5 Bft)
03.07.2025 00:56 24,5 °C 24,3 °C 57 % 65 % 1013,4 hPa 0,0 l/m² 17,0 km/h (3 Bft) NW 304 ° 0 min 0 W/m² 17,3 °C 22,2 °C 27,4 km/h (5 Bft)
03.07.2025 00:58 24,4 °C 24,3 °C 57 % 65 % 1013,5 hPa 0,0 l/m² 12,6 km/h (3 Bft) NW 311 ° 0 min 0 W/m² 17,3 °C 22,9 °C 22,5 km/h (4 Bft)
03.07.2025 01:00 24,4 °C 24,2 °C 57 % 65 % 1013,5 hPa 0,0 l/m² 17,1 km/h (3 Bft) NW 315 ° 0 min 0 W/m² 17,2 °C 22,0 °C 30,6 km/h (5 Bft)
03.07.2025 01:02 24,4 °C 24,2 °C 57 % 65 % 1013,5 hPa 0,0 l/m² 19,4 km/h (3 Bft) NW 315 ° 0 min 0 W/m² 17,2 °C 21,7 °C 35,4 km/h (5 Bft)
03.07.2025 01:04 24,4 °C 24,2 °C 57 % 65 % 1013,6 hPa 0,0 l/m² 15,7 km/h (3 Bft) NW 321 ° 0 min 0 W/m² 17,2 °C 22,2 °C 24,1 km/h (4 Bft)
03.07.2025 01:06 24,4 °C 24,2 °C 57 % 65 % 1013,7 hPa 0,0 l/m² 14,6 km/h (3 Bft) N 360 ° 0 min 0 W/m² 17,2 °C 22,4 °C 22,5 km/h (4 Bft)
03.07.2025 01:07 24,4 °C 24,1 °C 57 % 65 % 1013,6 hPa 0,0 l/m² 16,6 km/h (3 Bft) N-NW 333 ° 0 min 0 W/m² 17,1 °C 22,0 °C 22,5 km/h (4 Bft)
03.07.2025 01:08 24,4 °C 24,1 °C 57 % 66 % 1013,7 hPa 0,0 l/m² 14,8 km/h (3 Bft) N-NW 345 ° 0 min 0 W/m² 17,3 °C 22,2 °C 24,1 km/h (4 Bft)
03.07.2025 01:09 24,4 °C 24,1 °C 57 % 66 % 1013,7 hPa 0,0 l/m² 11,7 km/h (2 Bft) W-NW 297 ° 0 min 0 W/m² 17,3 °C 22,8 °C 17,7 km/h (3 Bft)
03.07.2025 01:10 24,4 °C 24,1 °C 57 % 66 % 1013,7 hPa 0,0 l/m² 14,5 km/h (3 Bft) N-NW 337 ° 0 min 0 W/m² 17,3 °C 22,3 °C 22,5 km/h (4 Bft)
03.07.2025 01:11 24,4 °C 24,1 °C 57 % 66 % 1013,8 hPa 0,0 l/m² 14,5 km/h (3 Bft) N-NW 337 ° 0 min 0 W/m² 17,3 °C 22,3 °C 24,1 km/h (4 Bft)
03.07.2025 01:16 24,4 °C 23,9 °C 57 % 66 % 1014,0 hPa 0,0 l/m² 13,1 km/h (3 Bft) N 5 ° 0 min 0 W/m² 17,1 °C 22,3 °C 17,7 km/h (3 Bft)
03.07.2025 01:18 24,4 °C 23,8 °C 57 % 67 % 1014,0 hPa 0,0 l/m² 13,9 km/h (3 Bft) W 259 ° 0 min 0 W/m² 17,3 °C 22,0 °C 24,1 km/h (4 Bft)
03.07.2025 01:19 24,4 °C 23,8 °C 57 % 67 % 1014,1 hPa 0,0 l/m² 11,4 km/h (2 Bft) NW 326 ° 0 min 0 W/m² 17,3 °C 22,5 °C 22,5 km/h (4 Bft)
03.07.2025 01:21 24,4 °C 23,8 °C 57 % 67 % 1014,1 hPa 0,0 l/m² 16,0 km/h (3 Bft) W-SW 258 ° 0 min 0 W/m² 17,3 °C 21,7 °C 25,7 km/h (4 Bft)
03.07.2025 01:22 24,4 °C 23,7 °C 57 % 67 % 1014,1 hPa 0,0 l/m² 11,0 km/h (2 Bft) N-NW 348 ° 0 min 0 W/m² 17,2 °C 22,5 °C 22,5 km/h (4 Bft)
03.07.2025 01:24 24,4 °C 23,7 °C 57 % 67 % 1014,2 hPa 0,0 l/m² 11,4 km/h (2 Bft) W 278 ° 0 min 0 W/m² 17,2 °C 22,4 °C 27,4 km/h (5 Bft)
03.07.2025 01:26 24,4 °C 23,7 °C 57 % 67 % 1014,2 hPa 0,0 l/m² 12,6 km/h (3 Bft) NW 324 ° 0 min 0 W/m² 17,2 °C 22,2 °C 24,1 km/h (4 Bft)
03.07.2025 01:28 24,4 °C 23,6 °C 57 % 67 % 1014,1 hPa 0,0 l/m² 15,0 km/h (3 Bft) W-NW 292 ° 0 min 0 W/m² 17,1 °C 21,6 °C 24,1 km/h (4 Bft)
03.07.2025 01:30 24,4 °C 23,6 °C 57 % 67 % 1014,2 hPa 0,0 l/m² 13,4 km/h (3 Bft) W-SW 244 ° 0 min 0 W/m² 17,1 °C 21,9 °C 24,1 km/h (4 Bft)
03.07.2025 01:31 24,4 °C 23,6 °C 57 % 68 % 1014,2 hPa 0,0 l/m² 10,6 km/h (2 Bft) W-NW 301 ° 0 min 0 W/m² 17,3 °C 22,5 °C 16,1 km/h (3 Bft)
03.07.2025 01:32 24,4 °C 23,6 °C 57 % 68 % 1014,2 hPa 0,0 l/m² 10,3 km/h (2 Bft) NW 324 ° 0 min 0 W/m² 17,3 °C 22,5 °C 19,3 km/h (3 Bft)
03.07.2025 01:33 24,4 °C 23,6 °C 57 % 68 % 1014,2 hPa 0,0 l/m² 12,6 km/h (3 Bft) W-NW 283 ° 0 min 0 W/m² 17,3 °C 22,1 °C 24,1 km/h (4 Bft)
03.07.2025 01:35 24,4 °C 23,5 °C 57 % 68 % 1014,3 hPa 0,0 l/m² 10,9 km/h (2 Bft) NW 317 ° 0 min 0 W/m² 17,2 °C 22,3 °C 19,3 km/h (3 Bft)
03.07.2025 01:37 24,4 °C 23,4 °C 57 % 68 % 1014,4 hPa 0,0 l/m² 4,4 km/h (1 Bft) NW 305 ° 0 min 0 W/m² 17,1 °C 23,4 °C 19,3 km/h (3 Bft)
03.07.2025 01:39 24,4 °C 23,4 °C 57 % 68 % 1014,7 hPa 0,0 l/m² 5,3 km/h (1 Bft) W 269 ° 0 min 0 W/m² 17,1 °C 23,4 °C 12,9 km/h (3 Bft)
03.07.2025 01:40 24,4 °C 23,4 °C 57 % 68 % 1014,8 hPa 0,0 l/m² 4,9 km/h (1 Bft) SW 227 ° 0 min 0 W/m² 17,1 °C 23,4 °C 14,5 km/h (3 Bft)
03.07.2025 01:42 24,4 °C 23,3 °C 57 % 68 % 1015,0 hPa 0,0 l/m² 7,3 km/h (2 Bft) SW 223 ° 0 min 0 W/m² 17,1 °C 23,0 °C 12,9 km/h (3 Bft)
03.07.2025 01:43 24,4 °C 23,3 °C 57 % 69 % 1015,2 hPa 0,0 l/m² 8,6 km/h (2 Bft) W-SW 253 ° 0 min 0 W/m² 17,3 °C 22,6 °C 14,5 km/h (3 Bft)
03.07.2025 01:45 24,4 °C 23,2 °C 57 % 68 % 1015,4 hPa 0,0 l/m² 10,0 km/h (2 Bft) SW 229 ° 0 min 0 W/m² 17,0 °C 22,2 °C 16,1 km/h (3 Bft)
03.07.2025 01:47 24,4 °C 23,2 °C 57 % 69 % 1015,6 hPa 0,0 l/m² 10,4 km/h (2 Bft) S-SW 209 ° 0 min 0 W/m² 17,2 °C 22,1 °C 14,5 km/h (3 Bft)
03.07.2025 01:49 24,4 °C 23,1 °C 57 % 69 % 1015,6 hPa 0,0 l/m² 12,1 km/h (2 Bft) S-SW 197 ° 0 min 0 W/m² 17,1 °C 21,6 °C 16,1 km/h (3 Bft)
03.07.2025 01:50 24,4 °C 23,1 °C 57 % 69 % 1015,6 hPa 0,0 l/m² 11,6 km/h (2 Bft) S-SW 194 ° 0 min 0 W/m² 17,1 °C 21,7 °C 14,5 km/h (3 Bft)
03.07.2025 01:52 24,3 °C 23,1 °C 57 % 70 % 1015,5 hPa 0,0 l/m² 14,3 km/h (3 Bft) SW 216 ° 0 min 0 W/m² 17,3 °C 21,1 °C 20,9 km/h (4 Bft)
03.07.2025 01:53 24,4 °C 23,0 °C 57 % 70 % 1015,5 hPa 0,0 l/m² 14,6 km/h (3 Bft) SW 216 ° 0 min 0 W/m² 17,2 °C 21,0 °C 17,7 km/h (3 Bft)
03.07.2025 01:55 24,4 °C 23,0 °C 57 % 70 % 1015,6 hPa 0,0 l/m² 10,6 km/h (2 Bft) SW 219 ° 0 min 0 W/m² 17,2 °C 21,8 °C 14,5 km/h (3 Bft)
03.07.2025 01:57 24,3 °C 22,9 °C 57 % 70 % 1015,5 hPa 0,0 l/m² 8,0 km/h (2 Bft) W-SW 246 ° 0 min 0 W/m² 17,1 °C 22,4 °C 12,9 km/h (3 Bft)
03.07.2025 01:59 24,3 °C 22,9 °C 57 % 70 % 1015,5 hPa 0,0 l/m² 9,9 km/h (2 Bft) W-SW 255 ° 0 min 0 W/m² 17,1 °C 21,9 °C 14,5 km/h (3 Bft)
03.07.2025 02:00 24,4 °C 22,9 °C 57 % 70 % 1015,4 hPa 0,0 l/m² 6,5 km/h (2 Bft) SW 236 ° 0 min 0 W/m² 17,1 °C 22,9 °C 11,3 km/h (2 Bft)
03.07.2025 02:02 24,3 °C 23,0 °C 57 % 70 % 1015,4 hPa 0,0 l/m² 6,5 km/h (2 Bft) W 266 ° 0 min 0 W/m² 17,2 °C 23,0 °C 12,9 km/h (3 Bft)
03.07.2025 02:03 24,3 °C 23,1 °C 57 % 70 % 1015,3 hPa 0,0 l/m² 3,8 km/h (1 Bft) W-SW 249 ° 0 min 0 W/m² 17,3 °C 23,1 °C 6,4 km/h (2 Bft)
03.07.2025 02:05 24,3 °C 23,0 °C 57 % 70 % 1015,3 hPa 0,0 l/m² 5,2 km/h (1 Bft) SW 235 ° 0 min 0 W/m² 17,2 °C 23,0 °C 8,0 km/h (2 Bft)
03.07.2025 02:07 24,3 °C 22,9 °C 57 % 70 % 1015,2 hPa 0,0 l/m² 4,0 km/h (1 Bft) SW 229 ° 0 min 0 W/m² 17,1 °C 22,9 °C 6,4 km/h (2 Bft)
03.07.2025 02:09 24,3 °C 22,7 °C 57 % 70 % 1015,2 hPa 0,0 l/m² 4,5 km/h (1 Bft) SW 231 ° 0 min 0 W/m² 16,9 °C 22,7 °C 6,4 km/h (2 Bft)
03.07.2025 02:10 24,3 °C 22,7 °C 57 % 70 % 1015,2 hPa 0,0 l/m² 3,5 km/h (1 Bft) SW 232 ° 0 min 0 W/m² 16,9 °C 22,7 °C 6,4 km/h (2 Bft)
03.07.2025 02:12 24,3 °C 22,5 °C 57 % 71 % 1015,3 hPa 0,0 l/m² 3,5 km/h (1 Bft) W-SW 248 ° 0 min 0 W/m² 17,0 °C 22,5 °C 6,4 km/h (2 Bft)
03.07.2025 02:14 24,3 °C 22,5 °C 57 % 71 % 1015,2 hPa 0,0 l/m² 2,6 km/h (1 Bft) W-SW 252 ° 0 min 0 W/m² 17,0 °C 22,5 °C 4,8 km/h (1 Bft)
03.07.2025 02:16 24,3 °C 22,4 °C 57 % 71 % 1015,1 hPa 0,0 l/m² 1,7 km/h (1 Bft) W-SW 254 ° 0 min 0 W/m² 16,9 °C 22,4 °C 3,2 km/h (1 Bft)
03.07.2025 02:18 24,3 °C 22,4 °C 57 % 71 % 1015,1 hPa 0,0 l/m² 1,4 km/h (1 Bft) W-SW 254 ° 0 min 0 W/m² 16,9 °C 22,4 °C 3,2 km/h (1 Bft)
03.07.2025 02:20 24,3 °C 22,4 °C 57 % 72 % 1015,1 hPa 0,0 l/m² 1,5 km/h (1 Bft) W-SW 254 ° 0 min 0 W/m² 17,1 °C 22,4 °C 4,8 km/h (1 Bft)
03.07.2025 02:21 24,3 °C 22,4 °C 57 % 72 % 1015,1 hPa 0,0 l/m² 0,4 km/h (0 Bft) W-SW 254 ° 0 min 0 W/m² 17,1 °C 22,4 °C 3,2 km/h (1 Bft)
03.07.2025 02:22 24,3 °C 22,4 °C 57 % 72 % 1015,1 hPa 0,0 l/m² 0,8 km/h (0 Bft) W-SW 254 ° 0 min 0 W/m² 17,1 °C 22,4 °C 1,6 km/h (1 Bft)
03.07.2025 02:24 24,3 °C 22,3 °C 57 % 71 % 1015,1 hPa 0,0 l/m² 0,7 km/h (0 Bft) W-SW 254 ° 0 min 0 W/m² 16,8 °C 22,3 °C 3,2 km/h (1 Bft)
03.07.2025 02:26 24,3 °C 22,2 °C 57 % 72 % 1015,2 hPa 0,0 l/m² 1,1 km/h (1 Bft) W-SW 254 ° 0 min 0 W/m² 16,9 °C 22,2 °C 4,8 km/h (1 Bft)
03.07.2025 02:28 24,3 °C 22,1 °C 57 % 72 % 1015,2 hPa 0,0 l/m² 1,1 km/h (1 Bft) W-SW 254 ° 0 min 0 W/m² 16,8 °C 22,1 °C 3,2 km/h (1 Bft)
03.07.2025 02:30 24,3 °C 21,9 °C 57 % 73 % 1015,2 hPa 0,0 l/m² 0,0 km/h (0 Bft) W-SW 254 ° 0 min 0 W/m² 16,8 °C 21,9 °C 0,0 km/h (0 Bft)
03.07.2025 02:31 24,3 °C 21,8 °C 57 % 73 % 1015,2 hPa 0,0 l/m² 0,1 km/h (0 Bft) W-SW 254 ° 0 min 0 W/m² 16,7 °C 21,8 °C 1,6 km/h (1 Bft)
03.07.2025 02:32 24,3 °C 21,8 °C 57 % 73 % 1015,2 hPa 0,0 l/m² 0,1 km/h (0 Bft) W-SW 254 ° 0 min 0 W/m² 16,7 °C 21,8 °C 1,6 km/h (1 Bft)
03.07.2025 02:34 24,3 °C 21,7 °C 57 % 73 % 1015,1 hPa 0,0 l/m² 1,5 km/h (1 Bft) W-SW 254 ° 0 min 0 W/m² 16,6 °C 21,7 °C 4,8 km/h (1 Bft)
03.07.2025 02:36 24,3 °C 21,6 °C 57 % 74 % 1015,1 hPa 0,0 l/m² 0,0 km/h (0 Bft) W-SW 254 ° 0 min 0 W/m² 16,8 °C 21,6 °C 0,0 km/h (0 Bft)
03.07.2025 02:38 24,3 °C 21,6 °C 57 % 74 % 1015,1 hPa 0,0 l/m² 0,2 km/h (0 Bft) W-SW 254 ° 0 min 0 W/m² 16,8 °C 21,6 °C 1,6 km/h (1 Bft)
03.07.2025 02:40 24,3 °C 21,6 °C 57 % 74 % 1015,1 hPa 0,0 l/m² 2,1 km/h (1 Bft) W-SW 254 ° 0 min 0 W/m² 16,8 °C 21,6 °C 4,8 km/h (1 Bft)
03.07.2025 02:41 24,3 °C 21,6 °C 57 % 74 % 1015,1 hPa 0,0 l/m² 0,2 km/h (0 Bft) W-SW 254 ° 0 min 0 W/m² 16,8 °C 21,6 °C 1,6 km/h (1 Bft)
03.07.2025 02:42 24,3 °C 21,6 °C 57 % 74 % 1015,0 hPa 0,0 l/m² 0,8 km/h (0 Bft) W-SW 254 ° 0 min 0 W/m² 16,8 °C 21,6 °C 3,2 km/h (1 Bft)
03.07.2025 02:44 24,3 °C 21,5 °C 57 % 74 % 1015,1 hPa 0,0 l/m² 0,9 km/h (0 Bft) W-SW 254 ° 0 min 0 W/m² 16,7 °C 21,5 °C 3,2 km/h (1 Bft)
03.07.2025 02:46 24,3 °C 21,6 °C 57 % 75 % 1015,1 hPa 0,0 l/m² 1,7 km/h (1 Bft) W-SW 255 ° 0 min 0 W/m² 17,0 °C 21,6 °C 6,4 km/h (2 Bft)
03.07.2025 02:48 24,3 °C 21,6 °C 57 % 74 % 1015,1 hPa 0,0 l/m² 2,7 km/h (1 Bft) W 265 ° 0 min 0 W/m² 16,8 °C 21,6 °C 6,4 km/h (2 Bft)
03.07.2025 02:50 24,3 °C 21,6 °C 57 % 74 % 1015,1 hPa 0,0 l/m² 2,8 km/h (1 Bft) W-NW 284 ° 0 min 0 W/m² 16,8 °C 21,6 °C 6,4 km/h (2 Bft)
03.07.2025 02:51 24,3 °C 21,6 °C 57 % 74 % 1015,0 hPa 0,0 l/m² 2,3 km/h (1 Bft) W-NW 284 ° 0 min 0 W/m² 16,8 °C 21,6 °C 4,8 km/h (1 Bft)
03.07.2025 02:52 24,3 °C 21,6 °C 57 % 74 % 1015,0 hPa 0,0 l/m² 1,0 km/h (0 Bft) W-NW 284 ° 0 min 0 W/m² 16,8 °C 21,6 °C 3,2 km/h (1 Bft)
03.07.2025 02:54 24,3 °C 21,6 °C 57 % 74 % 1015,0 hPa 0,0 l/m² 1,5 km/h (1 Bft) W-NW 284 ° 0 min 0 W/m² 16,8 °C 21,6 °C 3,2 km/h (1 Bft)
03.07.2025 02:56 24,3 °C 21,6 °C 57 % 75 % 1014,8 hPa 0,0 l/m² 2,4 km/h (1 Bft) W-NW 284 ° 0 min 0 W/m² 17,0 °C 21,6 °C 4,8 km/h (1 Bft)
03.07.2025 02:58 24,3 °C 21,6 °C 57 % 75 % 1014,9 hPa 0,0 l/m² 2,3 km/h (1 Bft) W-NW 284 ° 0 min 0 W/m² 17,0 °C 21,6 °C 4,8 km/h (1 Bft)
03.07.2025 03:00 24,3 °C 21,4 °C 57 % 75 % 1014,8 hPa 0,0 l/m² 3,8 km/h (1 Bft) W-NW 286 ° 0 min 0 W/m² 16,8 °C 21,4 °C 6,4 km/h (2 Bft)
03.07.2025 03:01 24,3 °C 21,4 °C 57 % 75 % 1014,8 hPa 0,0 l/m² 3,6 km/h (1 Bft) W-NW 286 ° 0 min 0 W/m² 16,8 °C 21,4 °C 6,4 km/h (2 Bft)
03.07.2025 03:02 24,3 °C 21,3 °C 57 % 75 % 1014,7 hPa 0,0 l/m² 2,3 km/h (1 Bft) W-NW 286 ° 0 min 0 W/m² 16,7 °C 21,3 °C 4,8 km/h (1 Bft)
03.07.2025 03:03 24,3 °C 21,3 °C 57 % 75 % 1014,7 hPa 0,0 l/m² 2,1 km/h (1 Bft) W-NW 286 ° 0 min 0 W/m² 16,7 °C 21,3 °C 3,2 km/h (1 Bft)
03.07.2025 03:06 24,3 °C 21,1 °C 57 % 75 % 1014,8 hPa 0,0 l/m² 1,1 km/h (1 Bft) W-NW 286 ° 0 min 0 W/m² 16,5 °C 21,1 °C 4,8 km/h (1 Bft)
03.07.2025 03:07 24,3 °C 21,1 °C 57 % 76 % 1014,9 hPa 0,0 l/m² 0,0 km/h (0 Bft) W-NW 286 ° 0 min 0 W/m² 16,7 °C 21,1 °C 0,0 km/h (0 Bft)
03.07.2025 03:08 24,3 °C 21,2 °C 57 % 76 % 1014,8 hPa 0,0 l/m² 2,0 km/h (1 Bft) W-NW 286 ° 0 min 0 W/m² 16,8 °C 21,2 °C 4,8 km/h (1 Bft)
03.07.2025 03:10 24,3 °C 21,3 °C 57 % 76 % 1014,8 hPa 0,0 l/m² 0,7 km/h (0 Bft) W-NW 286 ° 0 min 0 W/m² 16,9 °C 21,3 °C 6,4 km/h (2 Bft)
03.07.2025 03:11 24,3 °C 21,3 °C 57 % 76 % 1014,8 hPa 0,0 l/m² 3,3 km/h (1 Bft) W 269 ° 0 min 0 W/m² 16,9 °C 21,3 °C 11,3 km/h (2 Bft)
03.07.2025 03:12 24,3 °C 21,3 °C 57 % 76 % 1014,7 hPa 0,0 l/m² 2,7 km/h (1 Bft) W 268 ° 0 min 0 W/m² 16,9 °C 21,3 °C 6,4 km/h (2 Bft)
03.07.2025 03:14 24,3 °C 21,3 °C 57 % 76 % 1014,7 hPa 0,0 l/m² 3,9 km/h (1 Bft) W-NW 301 ° 0 min 0 W/m² 16,9 °C 21,3 °C 8,0 km/h (2 Bft)
03.07.2025 03:15 24,3 °C 21,3 °C 57 % 76 % 1014,8 hPa 0,0 l/m² 4,8 km/h (1 Bft) NW 306 ° 0 min 0 W/m² 16,9 °C 21,3 °C 6,4 km/h (2 Bft)
03.07.2025 03:17 24,3 °C 21,4 °C 57 % 76 % 1014,9 hPa 0,0 l/m² 2,6 km/h (1 Bft) NW 310 ° 0 min 0 W/m² 17,0 °C 21,4 °C 8,0 km/h (2 Bft)
03.07.2025 03:19 24,3 °C 21,3 °C 57 % 76 % 1014,8 hPa 0,0 l/m² 2,4 km/h (1 Bft) N-NW 336 ° 0 min 0 W/m² 16,9 °C 21,3 °C 8,0 km/h (2 Bft)
03.07.2025 03:21 24,3 °C 21,3 °C 57 % 76 % 1014,9 hPa 0,0 l/m² 3,1 km/h (1 Bft) W-NW 301 ° 0 min 0 W/m² 16,9 °C 21,3 °C 8,0 km/h (2 Bft)
03.07.2025 03:22 24,3 °C 21,3 °C 57 % 76 % 1015,0 hPa 0,0 l/m² 2,1 km/h (1 Bft) NW 315 ° 0 min 0 W/m² 16,9 °C 21,3 °C 6,4 km/h (2 Bft)
03.07.2025 03:23 24,3 °C 21,3 °C 57 % 76 % 1015,0 hPa 0,0 l/m² 3,3 km/h (1 Bft) W-SW 255 ° 0 min 0 W/m² 16,9 °C 21,3 °C 9,7 km/h (2 Bft)
03.07.2025 03:25 24,3 °C 21,3 °C 58 % 76 % 1015,0 hPa 0,0 l/m² 3,3 km/h (1 Bft) W 264 ° 0 min 0 W/m² 16,9 °C 21,3 °C 6,4 km/h (2 Bft)
03.07.2025 03:27 24,3 °C 21,2 °C 58 % 76 % 1015,0 hPa 0,0 l/m² 3,8 km/h (1 Bft) W 265 ° 0 min 0 W/m² 16,8 °C 21,2 °C 6,4 km/h (2 Bft)
03.07.2025 03:29 24,3 °C 21,1 °C 58 % 76 % 1015,2 hPa 0,0 l/m² 2,3 km/h (1 Bft) W 265 ° 0 min 0 W/m² 16,7 °C 21,1 °C 4,8 km/h (1 Bft)
03.07.2025 03:31 24,3 °C 20,9 °C 58 % 77 % 1015,2 hPa 0,0 l/m² 3,0 km/h (1 Bft) W 271 ° 0 min 0 W/m² 16,7 °C 20,9 °C 6,4 km/h (2 Bft)
03.07.2025 03:32 24,3 °C 20,8 °C 58 % 77 % 1015,1 hPa 0,0 l/m² 3,2 km/h (1 Bft) W 268 ° 0 min 0 W/m² 16,6 °C 20,8 °C 6,4 km/h (2 Bft)
03.07.2025 03:33 24,3 °C 20,8 °C 58 % 77 % 1015,1 hPa 0,0 l/m² 1,5 km/h (1 Bft) W 268 ° 0 min 0 W/m² 16,6 °C 20,8 °C 3,2 km/h (1 Bft)
03.07.2025 03:35 24,3 °C 20,6 °C 58 % 78 % 1015,2 hPa 0,0 l/m² 2,1 km/h (1 Bft) W 271 ° 0 min 0 W/m² 16,6 °C 20,6 °C 4,8 km/h (1 Bft)
03.07.2025 03:37 24,3 °C 20,5 °C 58 % 78 % 1015,3 hPa 0,0 l/m² 3,4 km/h (1 Bft) W 263 ° 0 min 0 W/m² 16,5 °C 20,5 °C 6,4 km/h (2 Bft)
03.07.2025 03:39 24,3 °C 20,4 °C 58 % 79 % 1015,3 hPa 0,0 l/m² 3,2 km/h (1 Bft) W-SW 257 ° 0 min 0 W/m² 16,6 °C 20,4 °C 6,4 km/h (2 Bft)
03.07.2025 03:41 24,3 °C 20,3 °C 58 % 80 % 1015,4 hPa 0,0 l/m² 2,1 km/h (1 Bft) W-SW 256 ° 0 min 0 W/m² 16,7 °C 20,3 °C 4,8 km/h (1 Bft)
03.07.2025 03:42 24,3 °C 20,3 °C 58 % 80 % 1015,5 hPa 0,0 l/m² 1,5 km/h (1 Bft) W-SW 256 ° 0 min 0 W/m² 16,7 °C 20,3 °C 6,4 km/h (2 Bft)
03.07.2025 03:43 24,3 °C 20,3 °C 58 % 80 % 1015,6 hPa 0,0 l/m² 3,7 km/h (1 Bft) W-SW 257 ° 0 min 0 W/m² 16,7 °C 20,3 °C 6,4 km/h (2 Bft)
03.07.2025 03:45 24,3 °C 20,2 °C 58 % 80 % 1015,7 hPa 0,0 l/m² 5,7 km/h (2 Bft) W-SW 249 ° 0 min 0 W/m² 16,6 °C 20,2 °C 8,0 km/h (2 Bft)
03.07.2025 03:46 24,2 °C 20,2 °C 58 % 80 % 1015,7 hPa 0,0 l/m² 3,2 km/h (1 Bft) W-SW 249 ° 0 min 0 W/m² 16,6 °C 20,2 °C 11,3 km/h (2 Bft)
03.07.2025 03:47 24,3 °C 20,2 °C 58 % 80 % 1015,7 hPa 0,0 l/m² 5,5 km/h (2 Bft) W-SW 245 ° 0 min 0 W/m² 16,6 °C 20,2 °C 11,3 km/h (2 Bft)
03.07.2025 03:48 24,3 °C 20,2 °C 58 % 81 % 1015,8 hPa 0,0 l/m² 3,4 km/h (1 Bft) W 259 ° 0 min 0 W/m² 16,8 °C 20,2 °C 6,4 km/h (2 Bft)
03.07.2025 03:50 24,2 °C 20,2 °C 58 % 81 % 1015,7 hPa 0,0 l/m² 3,5 km/h (1 Bft) W 263 ° 0 min 0 W/m² 16,8 °C 20,2 °C 6,4 km/h (2 Bft)
03.07.2025 03:52 24,3 °C 20,3 °C 58 % 81 % 1015,6 hPa 0,0 l/m² 2,1 km/h (1 Bft) W 279 ° 0 min 0 W/m² 16,9 °C 20,3 °C 6,4 km/h (2 Bft)
03.07.2025 03:53 24,3 °C 20,3 °C 58 % 81 % 1015,6 hPa 0,0 l/m² 2,0 km/h (1 Bft) W 279 ° 0 min 0 W/m² 16,9 °C 20,3 °C 4,8 km/h (1 Bft)
03.07.2025 03:55 24,2 °C 20,3 °C 58 % 81 % 1015,6 hPa 0,0 l/m² 2,7 km/h (1 Bft) W 279 ° 0 min 0 W/m² 16,9 °C 20,3 °C 4,8 km/h (1 Bft)
03.07.2025 03:57 24,3 °C 20,4 °C 58 % 81 % 1015,7 hPa 0,0 l/m² 3,4 km/h (1 Bft) W 274 ° 0 min 0 W/m² 17,0 °C 20,4 °C 9,7 km/h (2 Bft)
03.07.2025 03:59 24,2 °C 20,4 °C 58 % 81 % 1015,6 hPa 0,0 l/m² 2,4 km/h (1 Bft) W 274 ° 0 min 0 W/m² 17,0 °C 20,4 °C 9,7 km/h (2 Bft)
03.07.2025 04:01 24,2 °C 20,4 °C 58 % 81 % 1015,7 hPa 0,0 l/m² 3,2 km/h (1 Bft) W 281 ° 0 min 0 W/m² 17,0 °C 20,4 °C 9,7 km/h (2 Bft)
03.07.2025 04:02 24,2 °C 20,4 °C 58 % 81 % 1015,6 hPa 0,0 l/m² 2,7 km/h (1 Bft) W 281 ° 0 min 0 W/m² 17,0 °C 20,4 °C 4,8 km/h (1 Bft)
03.07.2025 04:03 24,2 °C 20,4 °C 58 % 81 % 1015,6 hPa 0,0 l/m² 1,5 km/h (1 Bft) W 281 ° 0 min 0 W/m² 17,0 °C 20,4 °C 3,2 km/h (1 Bft)
03.07.2025 04:04 24,2 °C 20,4 °C 58 % 81 % 1015,7 hPa 0,0 l/m² 1,8 km/h (1 Bft) W 281 ° 0 min 0 W/m² 17,0 °C 20,4 °C 3,2 km/h (1 Bft)
03.07.2025 04:05 24,3 °C 20,4 °C 58 % 81 % 1015,7 hPa 0,0 l/m² 2,7 km/h (1 Bft) W-NW 283 ° 0 min 0 W/m² 17,0 °C 20,4 °C 6,4 km/h (2 Bft)
03.07.2025 04:07 24,3 °C 20,4 °C 58 % 81 % 1015,7 hPa 0,0 l/m² 3,2 km/h (1 Bft) W-NW 283 ° 0 min 0 W/m² 17,0 °C 20,4 °C 6,4 km/h (2 Bft)
03.07.2025 04:09 24,2 °C 20,4 °C 58 % 81 % 1015,7 hPa 0,0 l/m² 2,0 km/h (1 Bft) W-NW 283 ° 0 min 0 W/m² 17,0 °C 20,4 °C 6,4 km/h (2 Bft)
03.07.2025 04:10 24,2 °C 20,5 °C 58 % 81 % 1015,7 hPa 0,0 l/m² 2,0 km/h (1 Bft) W-NW 283 ° 0 min 0 W/m² 17,1 °C 20,5 °C 4,8 km/h (1 Bft)
03.07.2025 04:11 24,2 °C 20,5 °C 58 % 81 % 1015,7 hPa 0,0 l/m² 1,3 km/h (1 Bft) W-NW 282 ° 0 min 0 W/m² 17,1 °C 20,5 °C 4,8 km/h (1 Bft)
03.07.2025 04:12 24,2 °C 20,5 °C 58 % 81 % 1015,7 hPa 0,0 l/m² 0,8 km/h (0 Bft) W-NW 282 ° 0 min 0 W/m² 17,1 °C 20,5 °C 3,2 km/h (1 Bft)
03.07.2025 04:13 24,2 °C 20,5 °C 58 % 81 % 1015,6 hPa 0,0 l/m² 1,3 km/h (1 Bft) W-NW 282 ° 0 min 0 W/m² 17,1 °C 20,5 °C 3,2 km/h (1 Bft)
03.07.2025 04:14 24,2 °C 20,4 °C 58 % 81 % 1015,7 hPa 0,0 l/m² 0,6 km/h (0 Bft) W-NW 282 ° 0 min 0 W/m² 17,0 °C 20,4 °C 1,6 km/h (1 Bft)
03.07.2025 04:16 24,2 °C 20,4 °C 58 % 81 % 1015,6 hPa 0,0 l/m² 0,5 km/h (0 Bft) W-NW 282 ° 0 min 0 W/m² 17,0 °C 20,4 °C 3,2 km/h (1 Bft)
03.07.2025 04:18 24,2 °C 20,4 °C 58 % 81 % 1015,6 hPa 0,0 l/m² 0,2 km/h (0 Bft) W-NW 282 ° 0 min 0 W/m² 17,0 °C 20,4 °C 1,6 km/h (1 Bft)
03.07.2025 04:20 24,2 °C 20,4 °C 58 % 81 % 1015,6 hPa 0,0 l/m² 1,3 km/h (1 Bft) W-NW 282 ° 0 min 0 W/m² 17,0 °C 20,4 °C 4,8 km/h (1 Bft)
03.07.2025 04:21 24,2 °C 20,4 °C 58 % 81 % 1015,6 hPa 0,0 l/m² 0,2 km/h (0 Bft) W-NW 282 ° 0 min 0 W/m² 17,0 °C 20,4 °C 1,6 km/h (1 Bft)
03.07.2025 04:23 24,2 °C 20,4 °C 58 % 81 % 1015,5 hPa 0,0 l/m² 1,0 km/h (0 Bft) W-NW 282 ° 0 min 0 W/m² 17,0 °C 20,4 °C 4,8 km/h (1 Bft)
03.07.2025 04:24 24,2 °C 20,4 °C 58 % 81 % 1015,5 hPa 0,0 l/m² 0,6 km/h (0 Bft) W-NW 282 ° 0 min 0 W/m² 17,0 °C 20,4 °C 3,2 km/h (1 Bft)
03.07.2025 04:26 24,2 °C 20,4 °C 58 % 81 % 1015,4 hPa 0,0 l/m² 1,6 km/h (1 Bft) W-NW 282 ° 0 min 0 W/m² 17,0 °C 20,4 °C 6,4 km/h (2 Bft)
03.07.2025 04:28 24,2 °C 20,4 °C 58 % 81 % 1015,4 hPa 0,0 l/m² 2,8 km/h (1 Bft) W-NW 286 ° 0 min 0 W/m² 17,0 °C 20,4 °C 9,7 km/h (2 Bft)
03.07.2025 04:30 24,2 °C 20,4 °C 58 % 82 % 1015,4 hPa 0,0 l/m² 3,5 km/h (1 Bft) W-NW 286 ° 0 min 0 W/m² 17,2 °C 20,4 °C 6,4 km/h (2 Bft)
03.07.2025 04:31 24,2 °C 20,5 °C 58 % 82 % 1015,5 hPa 0,0 l/m² 2,8 km/h (1 Bft) W-NW 286 ° 0 min 0 W/m² 17,3 °C 20,5 °C 4,8 km/h (1 Bft)
03.07.2025 04:33 24,2 °C 20,5 °C 58 % 82 % 1015,5 hPa 0,0 l/m² 2,2 km/h (1 Bft) W-NW 286 ° 0 min 0 W/m² 17,3 °C 20,5 °C 3,2 km/h (1 Bft)
03.07.2025 04:34 24,2 °C 20,5 °C 58 % 82 % 1015,5 hPa 0,0 l/m² 1,4 km/h (1 Bft) W-NW 286 ° 0 min 0 W/m² 17,3 °C 20,5 °C 4,8 km/h (1 Bft)
03.07.2025 04:36 24,2 °C 20,6 °C 58 % 82 % 1015,3 hPa 0,0 l/m² 1,6 km/h (1 Bft) W-NW 286 ° 0 min 0 W/m² 17,4 °C 20,6 °C 3,2 km/h (1 Bft)
03.07.2025 04:38 24,2 °C 20,6 °C 58 % 82 % 1015,3 hPa 0,0 l/m² 0,3 km/h (0 Bft) W-NW 286 ° 0 min 0 W/m² 17,4 °C 20,6 °C 1,6 km/h (1 Bft)
03.07.2025 04:40 24,2 °C 20,6 °C 58 % 81 % 1015,3 hPa 0,0 l/m² 0,0 km/h (0 Bft) W-NW 286 ° 0 min 0 W/m² 17,2 °C 20,6 °C 1,6 km/h (1 Bft)
03.07.2025 04:41 24,2 °C 20,6 °C 58 % 81 % 1015,4 hPa 0,0 l/m² 0,0 km/h (0 Bft) W-NW 286 ° 0 min 0 W/m² 17,2 °C 20,6 °C 0,0 km/h (0 Bft)
03.07.2025 04:43 24,2 °C 20,6 °C 58 % 81 % 1015,5 hPa 0,0 l/m² 0,0 km/h (0 Bft) W-NW 286 ° 0 min 0 W/m² 17,2 °C 20,6 °C 0,0 km/h (0 Bft)
03.07.2025 04:44 24,2 °C 20,6 °C 58 % 81 % 1015,5 hPa 0,0 l/m² 0,9 km/h (0 Bft) W-NW 286 ° 0 min 0 W/m² 17,2 °C 20,6 °C 3,2 km/h (1 Bft)
03.07.2025 04:46 24,2 °C 20,5 °C 58 % 81 % 1015,5 hPa 0,0 l/m² 0,5 km/h (0 Bft) W-NW 286 ° 0 min 0 W/m² 17,1 °C 20,5 °C 1,6 km/h (1 Bft)
03.07.2025 04:48 24,2 °C 20,6 °C 58 % 82 % 1015,5 hPa 0,0 l/m² 1,5 km/h (1 Bft) W-NW 286 ° 0 min 0 W/m² 17,4 °C 20,6 °C 3,2 km/h (1 Bft)
03.07.2025 04:50 24,2 °C 20,6 °C 58 % 82 % 1015,5 hPa 0,0 l/m² 2,4 km/h (1 Bft) W-NW 286 ° 0 min 0 W/m² 17,4 °C 20,6 °C 6,4 km/h (2 Bft)
03.07.2025 04:51 24,2 °C 20,6 °C 58 % 82 % 1015,5 hPa 0,0 l/m² 0,0 km/h (0 Bft) W-NW 286 ° 0 min 0 W/m² 17,4 °C 20,6 °C 0,0 km/h (0 Bft)
03.07.2025 04:53 24,2 °C 20,6 °C 58 % 82 % 1015,5 hPa 0,0 l/m² 0,0 km/h (0 Bft) W-NW 286 ° 0 min 0 W/m² 17,4 °C 20,6 °C 0,0 km/h (0 Bft)
03.07.2025 04:54 24,2 °C 20,6 °C 58 % 82 % 1015,6 hPa 0,0 l/m² 0,0 km/h (0 Bft) W-NW 286 ° 0 min 0 W/m² 17,4 °C 20,6 °C 0,0 km/h (0 Bft)
03.07.2025 04:56 24,2 °C 20,7 °C 58 % 82 % 1015,6 hPa 0,0 l/m² 0,0 km/h (0 Bft) W-NW 286 ° 0 min 0 W/m² 17,5 °C 20,7 °C 0,0 km/h (0 Bft)
03.07.2025 04:58 24,2 °C 20,7 °C 58 % 82 % 1015,6 hPa 0,0 l/m² 0,2 km/h (0 Bft) W-NW 286 ° 0 min 0 W/m² 17,5 °C 20,7 °C 3,2 km/h (1 Bft)
03.07.2025 05:00 24,2 °C 20,7 °C 58 % 81 % 1015,7 hPa 0,0 l/m² 1,2 km/h (1 Bft) W-NW 286 ° 0 min 0 W/m² 17,3 °C 20,7 °C 3,2 km/h (1 Bft)
03.07.2025 05:01 24,2 °C 20,6 °C 59 % 81 % 1015,7 hPa 0,0 l/m² 2,3 km/h (1 Bft) W-NW 286 ° 0 min 0 W/m² 17,2 °C 20,6 °C 3,2 km/h (1 Bft)
03.07.2025 05:03 24,2 °C 20,4 °C 59 % 81 % 1015,7 hPa 0,0 l/m² 2,0 km/h (1 Bft) W-NW 286 ° 0 min 0 W/m² 17,0 °C 20,4 °C 3,2 km/h (1 Bft)
03.07.2025 05:05 24,2 °C 20,3 °C 59 % 81 % 1015,7 hPa 0,0 l/m² 3,3 km/h (1 Bft) W-NW 286 ° 0 min 0 W/m² 16,9 °C 20,3 °C 4,8 km/h (1 Bft)
03.07.2025 05:07 24,2 °C 20,3 °C 59 % 82 % 1015,8 hPa 0,0 l/m² 2,7 km/h (1 Bft) W-NW 286 ° 0 min 0 W/m² 17,1 °C 20,3 °C 4,8 km/h (1 Bft)
03.07.2025 05:09 24,2 °C 20,2 °C 59 % 82 % 1015,8 hPa 0,0 l/m² 0,4 km/h (0 Bft) W-NW 286 ° 0 min 0 W/m² 17,0 °C 20,2 °C 3,2 km/h (1 Bft)
03.07.2025 05:11 24,2 °C 20,2 °C 59 % 83 % 1015,8 hPa 0,0 l/m² 0,0 km/h (0 Bft) W-NW 286 ° 0 min 0 W/m² 17,2 °C 20,2 °C 0,0 km/h (0 Bft)
03.07.2025 05:12 24,2 °C 20,2 °C 59 % 83 % 1015,8 hPa 0,0 l/m² 0,0 km/h (0 Bft) W-NW 286 ° 0 min 0 W/m² 17,2 °C 20,2 °C 0,0 km/h (0 Bft)
03.07.2025 05:13 24,2 °C 20,2 °C 59 % 83 % 1015,9 hPa 0,0 l/m² 0,5 km/h (0 Bft) W-NW 286 ° 0 min 0 W/m² 17,2 °C 20,2 °C 1,6 km/h (1 Bft)
03.07.2025 05:14 24,2 °C 20,2 °C 59 % 83 % 1016,0 hPa 0,0 l/m² 1,3 km/h (1 Bft) W-NW 286 ° 0 min 0 W/m² 17,2 °C 20,2 °C 3,2 km/h (1 Bft)
03.07.2025 05:16 24,2 °C 20,2 °C 59 % 83 % 1016,1 hPa 0,0 l/m² 2,7 km/h (1 Bft) W-NW 286 ° 0 min 5 W/m² 17,2 °C 20,2 °C 4,8 km/h (1 Bft)
03.07.2025 05:18 24,2 °C 20,2 °C 59 % 83 % 1016,1 hPa 0,0 l/m² 2,8 km/h (1 Bft) W-NW 286 ° 0 min 5 W/m² 17,2 °C 20,2 °C 3,2 km/h (1 Bft)
03.07.2025 05:20 24,2 °C 20,2 °C 59 % 84 % 1016,2 hPa 0,0 l/m² 2,0 km/h (1 Bft) W-NW 286 ° 0 min 7 W/m² 17,4 °C 20,2 °C 3,2 km/h (1 Bft)
03.07.2025 05:21 24,2 °C 20,2 °C 59 % 84 % 1016,1 hPa 0,0 l/m² 0,0 km/h (0 Bft) W-NW 286 ° 0 min 7 W/m² 17,4 °C 20,2 °C 0,0 km/h (0 Bft)
03.07.2025 05:22 24,2 °C 20,2 °C 59 % 84 % 1016,1 hPa 0,0 l/m² 0,0 km/h (0 Bft) W-NW 286 ° 0 min 7 W/m² 17,4 °C 20,2 °C 0,0 km/h (0 Bft)
03.07.2025 05:23 24,2 °C 20,2 °C 59 % 83 % 1016,1 hPa 0,0 l/m² 0,0 km/h (0 Bft) W-NW 286 ° 0 min 9 W/m² 17,2 °C 20,2 °C 0,0 km/h (0 Bft)
03.07.2025 05:25 24,2 °C 20,1 °C 59 % 83 % 1016,2 hPa 0,0 l/m² 0,9 km/h (0 Bft) W-NW 286 ° 0 min 11 W/m² 17,1 °C 20,1 °C 3,2 km/h (1 Bft)
03.07.2025 05:27 24,2 °C 20,1 °C 59 % 84 % 1016,1 hPa 0,0 l/m² 1,8 km/h (1 Bft) W-NW 286 ° 0 min 12 W/m² 17,3 °C 20,1 °C 3,2 km/h (1 Bft)
03.07.2025 05:29 24,2 °C 20,1 °C 59 % 84 % 1016,2 hPa 0,0 l/m² 1,0 km/h (0 Bft) W-NW 286 ° 0 min 14 W/m² 17,3 °C 20,1 °C 3,2 km/h (1 Bft)
03.07.2025 05:31 24,2 °C 20,1 °C 59 % 84 % 1016,1 hPa 0,0 l/m² 1,4 km/h (1 Bft) W-NW 286 ° 0 min 19 W/m² 17,3 °C 20,1 °C 4,8 km/h (1 Bft)
03.07.2025 05:32 24,2 °C 20,2 °C 59 % 84 % 1016,2 hPa 0,0 l/m² 1,4 km/h (1 Bft) W-NW 286 ° 0 min 19 W/m² 17,4 °C 20,2 °C 3,2 km/h (1 Bft)
03.07.2025 05:33 24,2 °C 20,2 °C 59 % 84 % 1016,3 hPa 0,0 l/m² 0,3 km/h (0 Bft) W-NW 286 ° 0 min 21 W/m² 17,4 °C 20,2 °C 1,6 km/h (1 Bft)
03.07.2025 05:34 24,2 °C 20,2 °C 59 % 84 % 1016,3 hPa 0,0 l/m² 2,3 km/h (1 Bft) W-NW 286 ° 0 min 21 W/m² 17,4 °C 20,2 °C 3,2 km/h (1 Bft)
03.07.2025 05:36 24,1 °C 20,2 °C 59 % 84 % 1016,4 hPa 0,0 l/m² 0,4 km/h (0 Bft) W-NW 286 ° 0 min 25 W/m² 17,4 °C 20,2 °C 3,2 km/h (1 Bft)
03.07.2025 05:38 24,2 °C 20,2 °C 59 % 83 % 1016,3 hPa 0,0 l/m² 1,0 km/h (0 Bft) W-NW 286 ° 0 min 26 W/m² 17,2 °C 20,2 °C 4,8 km/h (1 Bft)
03.07.2025 05:40 24,2 °C 20,3 °C 59 % 83 % 1016,4 hPa 0,0 l/m² 2,0 km/h (1 Bft) W-NW 286 ° 0 min 26 W/m² 17,3 °C 20,3 °C 9,7 km/h (2 Bft)
03.07.2025 05:41 24,2 °C 20,3 °C 59 % 83 % 1016,4 hPa 0,0 l/m² 3,8 km/h (1 Bft) W-NW 286 ° 0 min 26 W/m² 17,3 °C 20,3 °C 9,7 km/h (2 Bft)
03.07.2025 05:43 24,2 °C 20,4 °C 59 % 83 % 1016,4 hPa 0,0 l/m² 2,7 km/h (1 Bft) W-NW 286 ° 0 min 26 W/m² 17,4 °C 20,4 °C 6,4 km/h (2 Bft)
03.07.2025 05:45 24,2 °C 20,6 °C 59 % 82 % 1016,4 hPa 0,0 l/m² 1,6 km/h (1 Bft) W-NW 286 ° 0 min 25 W/m² 17,4 °C 20,6 °C 4,8 km/h (1 Bft)
03.07.2025 05:47 24,2 °C 20,6 °C 59 % 82 % 1016,5 hPa 0,0 l/m² 1,0 km/h (0 Bft) W-NW 286 ° 0 min 23 W/m² 17,4 °C 20,6 °C 3,2 km/h (1 Bft)
03.07.2025 05:49 24,2 °C 20,6 °C 59 % 82 % 1016,6 hPa 0,0 l/m² 1,6 km/h (1 Bft) W-NW 286 ° 0 min 23 W/m² 17,4 °C 20,6 °C 4,8 km/h (1 Bft)
03.07.2025 05:51 24,2 °C 20,6 °C 59 % 82 % 1016,6 hPa 0,0 l/m² 0,7 km/h (0 Bft) W-NW 286 ° 0 min 23 W/m² 17,4 °C 20,6 °C 3,2 km/h (1 Bft)
03.07.2025 05:52 24,1 °C 20,6 °C 59 % 82 % 1016,8 hPa 0,0 l/m² 1,6 km/h (1 Bft) W-SW 254 ° 0 min 25 W/m² 17,4 °C 20,6 °C 8,0 km/h (2 Bft)
03.07.2025 05:53 24,1 °C 20,6 °C 59 % 82 % 1016,8 hPa 0,0 l/m² 4,9 km/h (1 Bft) W 261 ° 0 min 25 W/m² 17,4 °C 20,6 °C 8,0 km/h (2 Bft)
03.07.2025 05:54 24,1 °C 20,6 °C 59 % 82 % 1016,8 hPa 0,0 l/m² 3,2 km/h (1 Bft) W-SW 256 ° 0 min 25 W/m² 17,4 °C 20,6 °C 6,4 km/h (2 Bft)
03.07.2025 05:56 24,2 °C 20,7 °C 59 % 81 % 1016,9 hPa 0,0 l/m² 2,1 km/h (1 Bft) W-NW 287 ° 0 min 25 W/m² 17,3 °C 20,7 °C 9,7 km/h (2 Bft)
03.07.2025 05:58 24,1 °C 20,8 °C 59 % 81 % 1017,0 hPa 0,0 l/m² 3,4 km/h (1 Bft) W 265 ° 0 min 25 W/m² 17,4 °C 20,8 °C 9,7 km/h (2 Bft)
03.07.2025 06:00 24,2 °C 20,9 °C 59 % 81 % 1017,0 hPa 0,0 l/m² 3,1 km/h (1 Bft) W 280 ° 0 min 25 W/m² 17,5 °C 20,9 °C 9,7 km/h (2 Bft)
03.07.2025 06:01 24,1 °C 20,9 °C 59 % 81 % 1017,1 hPa 0,0 l/m² 4,5 km/h (1 Bft) W 277 ° 0 min 23 W/m² 17,5 °C 20,9 °C 11,3 km/h (2 Bft)
03.07.2025 06:02 24,1 °C 20,9 °C 59 % 80 % 1017,1 hPa 0,0 l/m² 6,1 km/h (2 Bft) W-NW 298 ° 0 min 23 W/m² 17,3 °C 20,9 °C 12,9 km/h (3 Bft)
03.07.2025 06:03 24,1 °C 21,1 °C 59 % 80 % 1017,1 hPa 0,0 l/m² 5,4 km/h (2 Bft) W-NW 290 ° 0 min 23 W/m² 17,5 °C 21,1 °C 11,3 km/h (2 Bft)
03.07.2025 06:05 24,2 °C 21,1 °C 59 % 80 % 1017,3 hPa 0,0 l/m² 5,7 km/h (2 Bft) W 269 ° 0 min 23 W/m² 17,5 °C 21,1 °C 12,9 km/h (3 Bft)
03.07.2025 06:07 24,1 °C 21,2 °C 59 % 79 % 1017,3 hPa 0,0 l/m² 4,9 km/h (1 Bft) W-SW 250 ° 0 min 21 W/m² 17,4 °C 21,2 °C 11,3 km/h (2 Bft)
03.07.2025 06:09 24,2 °C 21,2 °C 59 % 79 % 1017,4 hPa 0,0 l/m² 5,8 km/h (2 Bft) W-NW 288 ° 0 min 21 W/m² 17,4 °C 21,2 °C 12,9 km/h (3 Bft)
03.07.2025 06:11 24,1 °C 21,2 °C 59 % 79 % 1017,5 hPa 0,0 l/m² 5,0 km/h (1 Bft) W 279 ° 0 min 21 W/m² 17,4 °C 21,2 °C 12,9 km/h (3 Bft)
03.07.2025 06:12 24,1 °C 21,2 °C 59 % 79 % 1017,5 hPa 0,0 l/m² 4,9 km/h (1 Bft) W 280 ° 0 min 25 W/m² 17,4 °C 21,2 °C 9,7 km/h (2 Bft)
03.07.2025 06:13 24,1 °C 21,2 °C 59 % 79 % 1017,5 hPa 0,0 l/m² 6,5 km/h (2 Bft) W-SW 257 ° 0 min 26 W/m² 17,4 °C 21,2 °C 11,3 km/h (2 Bft)
03.07.2025 06:14 24,1 °C 21,2 °C 59 % 79 % 1017,5 hPa 0,0 l/m² 9,5 km/h (2 Bft) W-SW 257 ° 0 min 33 W/m² 17,4 °C 20,1 °C 17,7 km/h (3 Bft)
03.07.2025 06:16 24,1 °C 21,3 °C 59 % 79 % 1017,6 hPa 0,0 l/m² 6,4 km/h (2 Bft) W-NW 296 ° 0 min 28 W/m² 17,5 °C 21,3 °C 14,5 km/h (3 Bft)
03.07.2025 06:18 24,1 °C 21,3 °C 59 % 79 % 1017,7 hPa 0,0 l/m² 7,2 km/h (2 Bft) W-SW 250 ° 0 min 26 W/m² 17,5 °C 21,0 °C 17,7 km/h (3 Bft)
03.07.2025 06:20 24,2 °C 21,3 °C 59 % 79 % 1017,7 hPa 0,0 l/m² 6,9 km/h (2 Bft) W-SW 248 ° 0 min 32 W/m² 17,5 °C 21,1 °C 12,9 km/h (3 Bft)
03.07.2025 06:21 24,1 °C 21,3 °C 59 % 79 % 1017,8 hPa 0,0 l/m² 9,3 km/h (2 Bft) W 275 ° 0 min 33 W/m² 17,5 °C 20,3 °C 19,3 km/h (3 Bft)
03.07.2025 06:22 24,1 °C 21,3 °C 59 % 79 % 1017,8 hPa 0,0 l/m² 7,9 km/h (2 Bft) W 272 ° 0 min 39 W/m² 17,5 °C 20,8 °C 11,3 km/h (2 Bft)
03.07.2025 06:23 24,1 °C 21,3 °C 59 % 79 % 1017,8 hPa 0,0 l/m² 11,7 km/h (2 Bft) W 275 ° 0 min 46 W/m² 17,5 °C 19,6 °C 19,3 km/h (3 Bft)
03.07.2025 06:25 24,1 °C 21,3 °C 59 % 79 % 1017,8 hPa 0,0 l/m² 8,3 km/h (2 Bft) W 265 ° 2 min 54 W/m² 17,5 °C 20,6 °C 16,1 km/h (3 Bft)
03.07.2025 06:27 24,1 °C 21,4 °C 59 % 79 % 1017,9 hPa 0,0 l/m² 9,5 km/h (2 Bft) W 271 ° 2 min 62 W/m² 17,6 °C 20,3 °C 17,7 km/h (3 Bft)
03.07.2025 06:29 24,1 °C 21,4 °C 59 % 79 % 1018,0 hPa 0,0 l/m² 7,8 km/h (2 Bft) W 260 ° 2 min 67 W/m² 17,6 °C 20,9 °C 16,1 km/h (3 Bft)
03.07.2025 06:31 24,1 °C 21,4 °C 59 % 79 % 1018,0 hPa 0,0 l/m² 7,2 km/h (2 Bft) W 271 ° 2 min 65 W/m² 17,6 °C 21,1 °C 12,9 km/h (3 Bft)
03.07.2025 06:32 24,1 °C 21,5 °C 59 % 79 % 1018,0 hPa 0,0 l/m² 8,9 km/h (2 Bft) NW 315 ° 1 min 63 W/m² 17,7 °C 20,6 °C 16,1 km/h (3 Bft)
03.07.2025 06:33 24,1 °C 21,5 °C 59 % 79 % 1018,0 hPa 0,0 l/m² 11,3 km/h (2 Bft) W 270 ° 1 min 63 W/m² 17,7 °C 19,9 °C 20,9 km/h (4 Bft)
03.07.2025 06:34 24,1 °C 21,5 °C 59 % 79 % 1018,0 hPa 0,0 l/m² 8,9 km/h (2 Bft) W-SW 255 ° 1 min 63 W/m² 17,7 °C 20,6 °C 16,1 km/h (3 Bft)
03.07.2025 06:36 24,1 °C 21,5 °C 59 % 78 % 1018,0 hPa 0,0 l/m² 7,0 km/h (2 Bft) W 264 ° 2 min 63 W/m² 17,5 °C 21,3 °C 12,9 km/h (3 Bft)
03.07.2025 06:38 24,1 °C 21,5 °C 59 % 78 % 1018,0 hPa 0,0 l/m² 3,9 km/h (1 Bft) W-SW 241 ° 2 min 60 W/m² 17,5 °C 21,5 °C 6,4 km/h (2 Bft)
03.07.2025 06:40 24,1 °C 21,6 °C 59 % 79 % 1018,0 hPa 0,0 l/m² 5,8 km/h (2 Bft) W 268 ° 2 min 58 W/m² 17,8 °C 21,6 °C 14,5 km/h (3 Bft)
03.07.2025 06:41 24,1 °C 21,6 °C 59 % 78 % 1017,9 hPa 0,0 l/m² 6,1 km/h (2 Bft) W 259 ° 1 min 54 W/m² 17,6 °C 21,6 °C 11,3 km/h (2 Bft)
03.07.2025 06:42 24,1 °C 21,6 °C 59 % 79 % 1017,9 hPa 0,0 l/m² 11,2 km/h (2 Bft) SW 223 ° 1 min 53 W/m² 17,8 °C 20,1 °C 24,1 km/h (4 Bft)
03.07.2025 06:43 24,1 °C 21,6 °C 59 % 79 % 1018,0 hPa 0,0 l/m² 9,6 km/h (2 Bft) W-NW 288 ° 0 min 51 W/m² 17,8 °C 20,5 °C 17,7 km/h (3 Bft)
03.07.2025 06:45 24,1 °C 21,6 °C 59 % 79 % 1018,1 hPa 0,0 l/m² 6,5 km/h (2 Bft) W-NW 296 ° 0 min 47 W/m² 17,8 °C 21,6 °C 12,9 km/h (3 Bft)
03.07.2025 06:46 24,1 °C 21,6 °C 59 % 79 % 1018,0 hPa 0,0 l/m² 22,5 km/h (4 Bft) W-NW 298 ° 0 min 44 W/m² 17,8 °C 17,9 °C 22,5 km/h (4 Bft)
03.07.2025 06:47 24,1 °C 21,6 °C 59 % 79 % 1018,0 hPa 0,0 l/m² 8,5 km/h (2 Bft) W 280 ° 0 min 42 W/m² 17,8 °C 20,9 °C 22,5 km/h (4 Bft)
03.07.2025 06:48 24,1 °C 21,6 °C 59 % 79 % 1018,0 hPa 0,0 l/m² 5,9 km/h (2 Bft) W-NW 296 ° 0 min 40 W/m² 17,8 °C 21,6 °C 12,9 km/h (3 Bft)
03.07.2025 06:50 24,1 °C 21,6 °C 59 % 79 % 1018,0 hPa 0,0 l/m² 7,2 km/h (2 Bft) W-NW 302 ° 0 min 37 W/m² 17,8 °C 21,3 °C 14,5 km/h (3 Bft)
03.07.2025 06:51 24,1 °C 21,6 °C 59 % 79 % 1018,0 hPa 0,0 l/m² 4,1 km/h (1 Bft) W 265 ° 0 min 35 W/m² 17,8 °C 21,6 °C 9,7 km/h (2 Bft)
03.07.2025 06:52 24,1 °C 21,6 °C 59 % 79 % 1018,1 hPa 0,0 l/m² 8,1 km/h (2 Bft) W 271 ° 0 min 35 W/m² 17,8 °C 21,0 °C 16,1 km/h (3 Bft)
03.07.2025 06:53 24,1 °C 21,5 °C 59 % 79 % 1018,1 hPa 0,0 l/m² 3,7 km/h (1 Bft) W-NW 293 ° 0 min 32 W/m² 17,7 °C 21,5 °C 11,3 km/h (2 Bft)
03.07.2025 06:55 24,1 °C 21,5 °C 59 % 79 % 1018,0 hPa 0,0 l/m² 4,0 km/h (1 Bft) SW 232 ° 0 min 30 W/m² 17,7 °C 21,5 °C 9,7 km/h (2 Bft)
03.07.2025 06:57 24,1 °C 21,5 °C 59 % 79 % 1018,0 hPa 0,0 l/m² 5,1 km/h (1 Bft) W-SW 242 ° 0 min 30 W/m² 17,7 °C 21,5 °C 16,1 km/h (3 Bft)
03.07.2025 06:59 24,1 °C 21,4 °C 59 % 79 % 1018,1 hPa 0,0 l/m² 5,2 km/h (1 Bft) W-NW 292 ° 0 min 32 W/m² 17,6 °C 21,4 °C 11,3 km/h (2 Bft)
03.07.2025 07:00 24,1 °C 21,4 °C 59 % 79 % 1018,0 hPa 0,0 l/m² 7,0 km/h (2 Bft) W 264 ° 0 min 32 W/m² 17,6 °C 21,2 °C 14,5 km/h (3 Bft)
03.07.2025 07:01 24,1 °C 21,4 °C 59 % 80 % 1018,1 hPa 0,0 l/m² 3,7 km/h (1 Bft) NW 315 ° 0 min 32 W/m² 17,8 °C 21,4 °C 9,7 km/h (2 Bft)
03.07.2025 07:03 24,1 °C 21,4 °C 59 % 80 % 1018,0 hPa 0,0 l/m² 4,2 km/h (1 Bft) NW 310 ° 0 min 33 W/m² 17,8 °C 21,4 °C 12,9 km/h (3 Bft)
03.07.2025 07:04 24,1 °C 21,4 °C 59 % 80 % 1018,0 hPa 0,0 l/m² 5,7 km/h (2 Bft) W 260 ° 0 min 33 W/m² 17,8 °C 21,4 °C 14,5 km/h (3 Bft)
03.07.2025 07:06 24,1 °C 21,3 °C 59 % 80 % 1018,0 hPa 0,0 l/m² 3,2 km/h (1 Bft) W 271 ° 0 min 33 W/m² 17,7 °C 21,3 °C 9,7 km/h (2 Bft)
03.07.2025 07:07 24,1 °C 21,3 °C 59 % 80 % 1018,0 hPa 0,0 l/m² 3,0 km/h (1 Bft) W-NW 300 ° 0 min 32 W/m² 17,7 °C 21,3 °C 6,4 km/h (2 Bft)
03.07.2025 07:10 24,1 °C 21,3 °C 59 % 80 % 1018,0 hPa 0,0 l/m² 4,7 km/h (1 Bft) W 279 ° 0 min 25 W/m² 17,7 °C 21,3 °C 11,3 km/h (2 Bft)
03.07.2025 07:11 24,1 °C 21,3 °C 59 % 80 % 1018,0 hPa 0,0 l/m² 1,0 km/h (0 Bft) W-NW 300 ° 0 min 25 W/m² 17,7 °C 21,3 °C 3,2 km/h (1 Bft)
03.07.2025 07:12 24,1 °C 21,3 °C 59 % 81 % 1018,0 hPa 0,0 l/m² 6,4 km/h (2 Bft) W-NW 292 ° 0 min 23 W/m² 17,9 °C 21,3 °C 11,3 km/h (2 Bft)
03.07.2025 07:13 24,1 °C 21,3 °C 60 % 81 % 1017,9 hPa 0,0 l/m² 6,2 km/h (2 Bft) W-NW 291 ° 0 min 21 W/m² 17,9 °C 21,3 °C 14,5 km/h (3 Bft)
03.07.2025 07:15 24,1 °C 21,3 °C 60 % 81 % 1018,0 hPa 0,0 l/m² 4,8 km/h (1 Bft) W-NW 292 ° 0 min 21 W/m² 17,9 °C 21,3 °C 8,0 km/h (2 Bft)
03.07.2025 07:17 24,1 °C 21,2 °C 60 % 82 % 1018,0 hPa 0,0 l/m² 5,1 km/h (1 Bft) N-NW 342 ° 0 min 21 W/m² 18,0 °C 21,2 °C 11,3 km/h (2 Bft)
03.07.2025 07:19 24,1 °C 21,1 °C 60 % 83 % 1018,1 hPa 0,0 l/m² 5,0 km/h (1 Bft) W-NW 294 ° 0 min 21 W/m² 18,1 °C 21,1 °C 16,1 km/h (3 Bft)
03.07.2025 07:20 24,2 °C 20,9 °C 60 % 83 % 1018,2 hPa 0,0 l/m² 4,7 km/h (1 Bft) W 273 ° 0 min 23 W/m² 17,9 °C 20,9 °C 12,9 km/h (3 Bft)
03.07.2025 07:22 24,2 °C 20,8 °C 60 % 84 % 1018,3 hPa 0,0 l/m² 4,3 km/h (1 Bft) NW 308 ° 0 min 25 W/m² 18,0 °C 20,8 °C 9,7 km/h (2 Bft)
03.07.2025 07:24 24,2 °C 20,7 °C 60 % 85 % 1018,3 hPa 0,2 l/m² 2,2 km/h (1 Bft) W-NW 291 ° 0 min 26 W/m² 18,1 °C 20,7 °C 8,0 km/h (2 Bft)
03.07.2025 07:26 24,2 °C 20,6 °C 60 % 85 % 1018,2 hPa 0,0 l/m² 4,6 km/h (1 Bft) NW 311 ° 0 min 30 W/m² 18,0 °C 20,6 °C 11,3 km/h (2 Bft)
03.07.2025 07:28 24,2 °C 20,5 °C 60 % 86 % 1018,2 hPa 0,2 l/m² 2,5 km/h (1 Bft) W-NW 290 ° 0 min 35 W/m² 18,1 °C 20,5 °C 8,0 km/h (2 Bft)
03.07.2025 07:30 24,2 °C 20,4 °C 60 % 86 % 1018,4 hPa 0,0 l/m² 4,3 km/h (1 Bft) W-NW 289 ° 0 min 39 W/m² 18,0 °C 20,4 °C 11,3 km/h (2 Bft)
03.07.2025 07:31 24,2 °C 20,4 °C 60 % 87 % 1018,3 hPa 0,0 l/m² 0,9 km/h (0 Bft) W 265 ° 0 min 40 W/m² 18,2 °C 20,4 °C 3,2 km/h (1 Bft)
03.07.2025 07:32 24,2 °C 20,3 °C 60 % 87 % 1018,3 hPa 0,0 l/m² 2,0 km/h (1 Bft) W-SW 255 ° 0 min 40 W/m² 18,1 °C 20,3 °C 6,4 km/h (2 Bft)
03.07.2025 07:33 24,2 °C 20,3 °C 60 % 87 % 1018,3 hPa 0,0 l/m² 2,5 km/h (1 Bft) W-NW 288 ° 0 min 40 W/m² 18,1 °C 20,3 °C 6,4 km/h (2 Bft)
03.07.2025 07:35 24,2 °C 20,2 °C 61 % 87 % 1018,4 hPa 0,0 l/m² 3,2 km/h (1 Bft) W 273 ° 0 min 42 W/m² 18,0 °C 20,2 °C 14,5 km/h (3 Bft)
03.07.2025 07:37 24,2 °C 20,2 °C 61 % 88 % 1018,5 hPa 0,2 l/m² 2,7 km/h (1 Bft) W-NW 284 ° 0 min 49 W/m² 18,1 °C 20,2 °C 11,3 km/h (2 Bft)
03.07.2025 07:38 24,2 °C 20,2 °C 61 % 88 % 1018,5 hPa 0,0 l/m² 3,8 km/h (1 Bft) NW 311 ° 1 min 54 W/m² 18,1 °C 20,2 °C 12,9 km/h (3 Bft)
03.07.2025 07:39 24,2 °C 20,2 °C 61 % 88 % 1018,5 hPa 0,0 l/m² 1,8 km/h (1 Bft) W-NW 299 ° 1 min 56 W/m² 18,1 °C 20,2 °C 4,8 km/h (1 Bft)
03.07.2025 07:41 24,2 °C 20,2 °C 61 % 89 % 1018,5 hPa 0,0 l/m² 3,7 km/h (1 Bft) W 277 ° 0 min 42 W/m² 18,3 °C 20,2 °C 8,0 km/h (2 Bft)
03.07.2025 07:44 24,2 °C 20,2 °C 61 % 89 % 1018,6 hPa 0,0 l/m² 5,7 km/h (2 Bft) NW 319 ° 0 min 39 W/m² 18,3 °C 20,2 °C 24,1 km/h (4 Bft)
03.07.2025 07:46 24,2 °C 20,1 °C 62 % 89 % 1018,6 hPa 0,0 l/m² 11,6 km/h (2 Bft) NW 304 ° 0 min 32 W/m² 18,2 °C 18,3 °C 24,1 km/h (4 Bft)
03.07.2025 07:48 24,2 °C 20,1 °C 62 % 89 % 1018,7 hPa 0,0 l/m² 8,2 km/h (2 Bft) W 278 ° 0 min 32 W/m² 18,2 °C 19,4 °C 19,3 km/h (3 Bft)
03.07.2025 07:50 24,2 °C 19,9 °C 62 % 88 % 1018,7 hPa 0,0 l/m² 8,0 km/h (2 Bft) N-NW 327 ° 0 min 26 W/m² 17,8 °C 19,2 °C 14,5 km/h (3 Bft)
03.07.2025 07:51 24,1 °C 19,9 °C 62 % 88 % 1018,8 hPa 0,0 l/m² 9,7 km/h (2 Bft) W-NW 290 ° 0 min 25 W/m² 17,8 °C 18,6 °C 16,1 km/h (3 Bft)
03.07.2025 07:52 24,1 °C 19,8 °C 62 % 88 % 1018,8 hPa 0,0 l/m² 5,2 km/h (1 Bft) W 275 ° 0 min 23 W/m² 17,8 °C 19,8 °C 8,0 km/h (2 Bft)
03.07.2025 07:53 24,1 °C 19,8 °C 62 % 88 % 1018,8 hPa 0,0 l/m² 12,8 km/h (3 Bft) W-NW 282 ° 0 min 19 W/m² 17,8 °C 17,6 °C 20,9 km/h (4 Bft)
03.07.2025 07:54 24,1 °C 19,8 °C 62 % 88 % 1018,8 hPa 0,0 l/m² 9,0 km/h (2 Bft) W-SW 242 ° 0 min 18 W/m² 17,8 °C 18,8 °C 17,7 km/h (3 Bft)
03.07.2025 07:56 24,1 °C 19,7 °C 62 % 89 % 1018,9 hPa 0,0 l/m² 6,0 km/h (2 Bft) W-NW 294 ° 0 min 21 W/m² 17,8 °C 19,7 °C 12,9 km/h (3 Bft)
03.07.2025 07:58 24,1 °C 19,7 °C 62 % 88 % 1018,9 hPa 0,0 l/m² 9,7 km/h (2 Bft) W 279 ° 0 min 33 W/m² 17,7 °C 18,4 °C 19,3 km/h (3 Bft)
03.07.2025 08:00 24,1 °C 19,6 °C 62 % 88 % 1019,0 hPa 0,0 l/m² 7,5 km/h (2 Bft) W-NW 298 ° 0 min 44 W/m² 17,6 °C 19,1 °C 17,7 km/h (3 Bft)
03.07.2025 08:01 24,1 °C 19,5 °C 62 % 88 % 1019,1 hPa 0,0 l/m² 9,8 km/h (2 Bft) W-NW 286 ° 1 min 53 W/m² 17,5 °C 18,2 °C 14,5 km/h (3 Bft)
03.07.2025 08:02 24,1 °C 19,4 °C 62 % 88 % 1019,1 hPa 0,0 l/m² 9,7 km/h (2 Bft) W-NW 299 ° 1 min 62 W/m² 17,4 °C 18,1 °C 17,7 km/h (3 Bft)
03.07.2025 08:04 24,1 °C 19,3 °C 62 % 88 % 1019,1 hPa 0,0 l/m² 11,4 km/h (2 Bft) W 267 ° 2 min 74 W/m² 17,3 °C 17,4 °C 25,7 km/h (4 Bft)
03.07.2025 08:06 24,0 °C 19,3 °C 62 % 88 % 1019,1 hPa 0,0 l/m² 10,2 km/h (2 Bft) W-NW 302 ° 2 min 95 W/m² 17,3 °C 17,8 °C 17,7 km/h (3 Bft)
03.07.2025 08:08 24,1 °C 19,3 °C 62 % 88 % 1019,2 hPa 0,0 l/m² 7,1 km/h (2 Bft) W-NW 285 ° 2 min 125 W/m² 17,3 °C 19,0 °C 12,9 km/h (3 Bft)
03.07.2025 08:10 24,0 °C 19,4 °C 62 % 88 % 1019,2 hPa 0,0 l/m² 5,8 km/h (2 Bft) W 279 ° 2 min 113 W/m² 17,4 °C 19,4 °C 16,1 km/h (3 Bft)
03.07.2025 08:11 24,0 °C 19,4 °C 62 % 87 % 1019,2 hPa 0,0 l/m² 6,7 km/h (2 Bft) W-NW 292 ° 1 min 107 W/m² 17,2 °C 19,3 °C 19,3 km/h (3 Bft)
03.07.2025 08:12 24,0 °C 19,4 °C 62 % 87 % 1019,2 hPa 0,0 l/m² 8,2 km/h (2 Bft) W-SW 254 ° 1 min 111 W/m² 17,2 °C 18,6 °C 16,1 km/h (3 Bft)
03.07.2025 08:13 24,0 °C 19,4 °C 62 % 87 % 1019,2 hPa 0,0 l/m² 8,0 km/h (2 Bft) N-NW 327 ° 1 min 120 W/m² 17,2 °C 18,7 °C 19,3 km/h (3 Bft)
03.07.2025 08:14 24,0 °C 19,4 °C 62 % 87 % 1019,3 hPa 0,0 l/m² 5,4 km/h (2 Bft) W-NW 282 ° 1 min 125 W/m² 17,2 °C 19,4 °C 14,5 km/h (3 Bft)
03.07.2025 08:16 24,0 °C 19,4 °C 62 % 87 % 1019,4 hPa 0,0 l/m² 8,6 km/h (2 Bft) W-NW 291 ° 2 min 132 W/m² 17,2 °C 18,5 °C 17,7 km/h (3 Bft)
03.07.2025 08:18 24,0 °C 19,5 °C 61 % 87 % 1019,4 hPa 0,0 l/m² 8,7 km/h (2 Bft) W 262 ° 2 min 127 W/m² 17,3 °C 18,6 °C 24,1 km/h (4 Bft)
03.07.2025 08:20 24,0 °C 19,6 °C 61 % 86 % 1019,4 hPa 0,0 l/m² 9,6 km/h (2 Bft) W-NW 294 ° 2 min 123 W/m² 17,2 °C 18,3 °C 22,5 km/h (4 Bft)
03.07.2025 08:21 24,0 °C 19,6 °C 61 % 86 % 1019,4 hPa 0,0 l/m² 13,2 km/h (3 Bft) W 267 ° 1 min 123 W/m² 17,2 °C 17,2 °C 27,4 km/h (5 Bft)
03.07.2025 08:22 24,0 °C 19,6 °C 61 % 86 % 1019,4 hPa 0,0 l/m² 12,5 km/h (2 Bft) W-NW 294 ° 1 min 132 W/m² 17,2 °C 17,4 °C 19,3 km/h (3 Bft)
03.07.2025 08:23 24,0 °C 19,6 °C 61 % 86 % 1019,4 hPa 0,0 l/m² 12,5 km/h (2 Bft) NW 312 ° 1 min 137 W/m² 17,2 °C 17,4 °C 24,1 km/h (4 Bft)
03.07.2025 08:25 24,0 °C 19,6 °C 61 % 85 % 1019,3 hPa 0,0 l/m² 11,2 km/h (2 Bft) W 269 ° 2 min 158 W/m² 17,0 °C 17,8 °C 22,5 km/h (4 Bft)
03.07.2025 08:27 24,0 °C 19,7 °C 61 % 85 % 1019,4 hPa 0,0 l/m² 7,9 km/h (2 Bft) NW 322 ° 2 min 174 W/m² 17,1 °C 19,1 °C 20,9 km/h (4 Bft)
03.07.2025 08:29 24,0 °C 19,7 °C 61 % 85 % 1019,3 hPa 0,0 l/m² 4,2 km/h (1 Bft) W-NW 294 ° 2 min 176 W/m² 17,1 °C 19,7 °C 11,3 km/h (2 Bft)
03.07.2025 08:30 24,0 °C 19,8 °C 61 % 85 % 1019,4 hPa 0,0 l/m² 6,0 km/h (2 Bft) NW 317 ° 1 min 172 W/m² 17,2 °C 19,8 °C 12,9 km/h (3 Bft)
03.07.2025 08:31 24,0 °C 19,8 °C 61 % 85 % 1019,4 hPa 0,0 l/m² 7,5 km/h (2 Bft) W-NW 292 ° 1 min 169 W/m² 17,2 °C 19,3 °C 12,9 km/h (3 Bft)
03.07.2025 08:32 24,0 °C 19,8 °C 61 % 84 % 1019,4 hPa 0,0 l/m² 13,9 km/h (3 Bft) W-NW 290 ° 1 min 169 W/m² 17,0 °C 17,3 °C 24,1 km/h (4 Bft)
03.07.2025 08:34 24,0 °C 19,8 °C 61 % 84 % 1019,6 hPa 0,0 l/m² 8,4 km/h (2 Bft) W-NW 291 ° 2 min 158 W/m² 17,0 °C 19,0 °C 24,1 km/h (4 Bft)
03.07.2025 08:36 24,0 °C 19,8 °C 61 % 83 % 1019,5 hPa 0,0 l/m² 11,3 km/h (2 Bft) NW 324 ° 2 min 142 W/m² 16,8 °C 18,0 °C 32,2 km/h (5 Bft)
03.07.2025 08:38 24,0 °C 19,8 °C 61 % 83 % 1019,6 hPa 0,0 l/m² 17,0 km/h (3 Bft) NW 314 ° 2 min 130 W/m² 16,8 °C 16,6 °C 35,4 km/h (5 Bft)
03.07.2025 08:40 24,0 °C 19,7 °C 61 % 82 % 1019,7 hPa 0,0 l/m² 16,2 km/h (3 Bft) W-NW 300 ° 2 min 114 W/m² 16,5 °C 16,6 °C 38,6 km/h (6 Bft)
03.07.2025 08:41 24,0 °C 19,7 °C 61 % 82 % 1019,7 hPa 0,0 l/m² 17,0 km/h (3 Bft) W-SW 246 ° 1 min 109 W/m² 16,5 °C 16,4 °C 30,6 km/h (5 Bft)
03.07.2025 08:42 24,0 °C 19,7 °C 61 % 82 % 1019,7 hPa 0,0 l/m² 6,4 km/h (2 Bft) W-NW 290 ° 1 min 105 W/m² 16,5 °C 19,7 °C 12,9 km/h (3 Bft)
03.07.2025 08:43 24,0 °C 19,7 °C 61 % 82 % 1019,7 hPa 0,0 l/m² 13,6 km/h (3 Bft) W 277 ° 1 min 104 W/m² 16,5 °C 17,2 °C 27,4 km/h (5 Bft)
03.07.2025 08:45 24,0 °C 19,7 °C 61 % 81 % 1019,7 hPa 0,0 l/m² 16,1 km/h (3 Bft) W 281 ° 2 min 93 W/m² 16,3 °C 16,6 °C 33,8 km/h (5 Bft)
03.07.2025 08:47 24,0 °C 19,6 °C 61 % 81 % 1019,7 hPa 0,0 l/m² 9,9 km/h (2 Bft) NW 306 ° 2 min 93 W/m² 16,2 °C 18,2 °C 20,9 km/h (4 Bft)
03.07.2025 08:49 24,0 °C 19,6 °C 61 % 81 % 1019,6 hPa 0,0 l/m² 11,9 km/h (2 Bft) W-NW 300 ° 2 min 105 W/m² 16,2 °C 17,6 °C 27,4 km/h (5 Bft)
03.07.2025 08:50 24,0 °C 19,6 °C 61 % 81 % 1019,6 hPa 0,0 l/m² 14,0 km/h (3 Bft) W-SW 242 ° 1 min 125 W/m² 16,2 °C 17,0 °C 25,7 km/h (4 Bft)
03.07.2025 08:51 24,0 °C 19,6 °C 61 % 81 % 1019,6 hPa 0,0 l/m² 8,0 km/h (2 Bft) W 274 ° 1 min 141 W/m² 16,2 °C 18,9 °C 12,9 km/h (3 Bft)
03.07.2025 08:52 24,0 °C 19,6 °C 61 % 81 % 1019,6 hPa 0,0 l/m² 9,7 km/h (2 Bft) W-NW 303 ° 1 min 160 W/m² 16,2 °C 18,3 °C 20,9 km/h (4 Bft)
03.07.2025 08:54 24,1 °C 19,7 °C 61 % 82 % 1019,6 hPa 0,0 l/m² 9,0 km/h (2 Bft) N-NW 329 ° 2 min 178 W/m² 16,5 °C 18,7 °C 20,9 km/h (4 Bft)
03.07.2025 08:56 24,0 °C 19,8 °C 60 % 81 % 1019,6 hPa 0,0 l/m² 11,1 km/h (2 Bft) W-NW 301 ° 2 min 160 W/m² 16,4 °C 18,1 °C 24,1 km/h (4 Bft)
03.07.2025 08:58 24,0 °C 19,8 °C 60 % 81 % 1019,6 hPa 0,0 l/m² 12,7 km/h (3 Bft) W-NW 296 ° 2 min 179 W/m² 16,4 °C 17,6 °C 25,7 km/h (4 Bft)
03.07.2025 09:00 24,0 °C 19,9 °C 60 % 81 % 1019,6 hPa 0,0 l/m² 9,0 km/h (2 Bft) W-SW 243 ° 2 min 186 W/m² 16,5 °C 18,9 °C 20,9 km/h (4 Bft)
03.07.2025 09:01 24,1 °C 19,9 °C 60 % 81 % 1019,6 hPa 0,0 l/m² 9,1 km/h (2 Bft) W-NW 293 ° 1 min 142 W/m² 16,5 °C 18,8 °C 17,7 km/h (3 Bft)
03.07.2025 09:02 24,1 °C 19,9 °C 60 % 81 % 1019,6 hPa 0,0 l/m² 5,0 km/h (1 Bft) W 271 ° 1 min 118 W/m² 16,5 °C 19,9 °C 14,5 km/h (3 Bft)
03.07.2025 09:05 24,0 °C 19,9 °C 60 % 81 % 1019,8 hPa 0,0 l/m² 10,1 km/h (2 Bft) W-NW 284 ° 3 min 107 W/m² 16,5 °C 18,5 °C 19,3 km/h (3 Bft)
03.07.2025 09:07 24,1 °C 19,9 °C 60 % 81 % 1019,8 hPa 0,0 l/m² 9,4 km/h (2 Bft) N 360 ° 2 min 97 W/m² 16,5 °C 18,7 °C 19,3 km/h (3 Bft)
03.07.2025 09:09 24,1 °C 19,9 °C 60 % 81 % 1019,9 hPa 0,0 l/m² 10,3 km/h (2 Bft) N-NW 328 ° 2 min 93 W/m² 16,5 °C 18,4 °C 20,9 km/h (4 Bft)
03.07.2025 09:10 24,1 °C 19,8 °C 60 % 80 % 1020,0 hPa 0,0 l/m² 15,7 km/h (3 Bft) NW 313 ° 1 min 97 W/m² 16,2 °C 16,8 °C 24,1 km/h (4 Bft)
03.07.2025 09:11 24,1 °C 19,9 °C 60 % 80 % 1020,0 hPa 0,0 l/m² 9,7 km/h (2 Bft) W-NW 294 ° 1 min 104 W/m² 16,3 °C 18,6 °C 16,1 km/h (3 Bft)
03.07.2025 09:12 24,0 °C 19,8 °C 60 % 80 % 1019,9 hPa 0,0 l/m² 16,6 km/h (3 Bft) W 269 ° 1 min 113 W/m² 16,2 °C 16,6 °C 29,0 km/h (5 Bft)
03.07.2025 09:14 24,1 °C 19,8 °C 60 % 80 % 1020,0 hPa 0,0 l/m² 10,0 km/h (2 Bft) W-NW 288 ° 2 min 118 W/m² 16,2 °C 18,4 °C 19,3 km/h (3 Bft)
03.07.2025 09:16 24,1 °C 19,8 °C 60 % 80 % 1020,0 hPa 0,0 l/m² 10,8 km/h (2 Bft) SW 215 ° 2 min 113 W/m² 16,2 °C 18,2 °C 20,9 km/h (4 Bft)
03.07.2025 09:18 24,0 °C 19,8 °C 60 % 80 % 1020,0 hPa 0,0 l/m² 11,0 km/h (2 Bft) W 265 ° 2 min 100 W/m² 16,2 °C 18,1 °C 20,9 km/h (4 Bft)
03.07.2025 09:20 24,0 °C 19,8 °C 60 % 80 % 1020,1 hPa 0,0 l/m² 12,1 km/h (2 Bft) W-SW 240 ° 2 min 100 W/m² 16,2 °C 17,8 °C 22,5 km/h (4 Bft)
03.07.2025 09:21 24,0 °C 19,8 °C 60 % 80 % 1020,2 hPa 0,0 l/m² 10,1 km/h (2 Bft) NW 306 ° 1 min 102 W/m² 16,2 °C 18,4 °C 24,1 km/h (4 Bft)
03.07.2025 09:22 24,0 °C 19,8 °C 60 % 80 % 1020,2 hPa 0,0 l/m² 10,2 km/h (2 Bft) NW 311 ° 1 min 98 W/m² 16,2 °C 18,4 °C 20,9 km/h (4 Bft)
03.07.2025 09:23 24,1 °C 19,8 °C 60 % 80 % 1020,2 hPa 0,0 l/m² 5,1 km/h (1 Bft) W-NW 302 ° 1 min 95 W/m² 16,2 °C 19,8 °C 14,5 km/h (3 Bft)
03.07.2025 09:25 24,1 °C 19,8 °C 60 % 80 % 1020,1 hPa 0,0 l/m² 11,5 km/h (2 Bft) N-NW 336 ° 2 min 84 W/m² 16,2 °C 17,9 °C 22,5 km/h (4 Bft)
03.07.2025 09:27 24,1 °C 19,8 °C 60 % 80 % 1020,1 hPa 0,0 l/m² 11,1 km/h (2 Bft) N 355 ° 2 min 84 W/m² 16,2 °C 18,1 °C 22,5 km/h (4 Bft)
03.07.2025 09:29 24,1 °C 19,7 °C 60 % 79 % 1020,2 hPa 0,0 l/m² 13,9 km/h (3 Bft) W-NW 287 ° 2 min 91 W/m² 16,0 °C 17,2 °C 25,7 km/h (4 Bft)
03.07.2025 09:30 24,1 °C 19,7 °C 59 % 79 % 1020,2 hPa 0,0 l/m² 10,1 km/h (2 Bft) NW 305 ° 1 min 86 W/m² 16,0 °C 18,3 °C 22,5 km/h (4 Bft)
03.07.2025 09:31 24,1 °C 19,7 °C 59 % 79 % 1020,2 hPa 0,0 l/m² 10,1 km/h (2 Bft) W-NW 282 ° 1 min 83 W/m² 16,0 °C 18,3 °C 24,1 km/h (4 Bft)
03.07.2025 09:32 24,0 °C 19,7 °C 59 % 79 % 1020,1 hPa 0,0 l/m² 8,9 km/h (2 Bft) N-NW 338 ° 1 min 79 W/m² 16,0 °C 18,7 °C 16,1 km/h (3 Bft)
03.07.2025 09:34 24,1 °C 19,7 °C 59 % 79 % 1020,2 hPa 0,0 l/m² 8,5 km/h (2 Bft) W-NW 288 ° 2 min 81 W/m² 16,0 °C 18,8 °C 16,1 km/h (3 Bft)
03.07.2025 09:36 24,1 °C 19,7 °C 59 % 79 % 1020,3 hPa 0,0 l/m² 9,7 km/h (2 Bft) W 279 ° 2 min 91 W/m² 16,0 °C 18,4 °C 20,9 km/h (4 Bft)
03.07.2025 09:38 24,1 °C 19,7 °C 59 % 79 % 1020,2 hPa 0,0 l/m² 8,2 km/h (2 Bft) W-NW 286 ° 2 min 107 W/m² 16,0 °C 19,0 °C 17,7 km/h (3 Bft)
03.07.2025 09:40 24,1 °C 19,7 °C 59 % 79 % 1020,3 hPa 0,0 l/m² 8,6 km/h (2 Bft) W 279 ° 2 min 104 W/m² 16,0 °C 18,8 °C 22,5 km/h (4 Bft)
03.07.2025 09:41 24,1 °C 19,7 °C 59 % 79 % 1020,3 hPa 0,0 l/m² 10,1 km/h (2 Bft) W 275 ° 1 min 97 W/m² 16,0 °C 18,3 °C 22,5 km/h (4 Bft)
03.07.2025 09:42 24,1 °C 19,7 °C 59 % 80 % 1020,3 hPa 0,0 l/m² 9,7 km/h (2 Bft) W 264 ° 1 min 98 W/m² 16,1 °C 18,4 °C 16,1 km/h (3 Bft)
03.07.2025 09:43 24,1 °C 19,7 °C 59 % 80 % 1020,3 hPa 0,0 l/m² 8,9 km/h (2 Bft) N-NO 17 ° 1 min 102 W/m² 16,1 °C 18,7 °C 19,3 km/h (3 Bft)
03.07.2025 09:45 24,1 °C 19,7 °C 59 % 80 % 1020,3 hPa 0,0 l/m² 8,5 km/h (2 Bft) NW 315 ° 2 min 102 W/m² 16,1 °C 18,8 °C 14,5 km/h (3 Bft)
03.07.2025 09:46 24,1 °C 19,7 °C 59 % 80 % 1020,3 hPa 0,0 l/m² 11,3 km/h (2 Bft) W-NW 290 ° 1 min 97 W/m² 16,1 °C 17,9 °C 16,1 km/h (3 Bft)
03.07.2025 09:47 24,1 °C 19,7 °C 59 % 80 % 1020,3 hPa 0,0 l/m² 8,7 km/h (2 Bft) N-NW 334 ° 1 min 97 W/m² 16,1 °C 18,8 °C 17,7 km/h (3 Bft)
03.07.2025 09:48 24,1 °C 19,8 °C 59 % 80 % 1020,3 hPa 0,0 l/m² 4,3 km/h (1 Bft) W 277 ° 1 min 100 W/m² 16,2 °C 19,8 °C 8,0 km/h (2 Bft)
03.07.2025 09:50 24,1 °C 19,8 °C 59 % 80 % 1020,3 hPa 0,0 l/m² 6,9 km/h (2 Bft) W-NW 298 ° 2 min 107 W/m² 16,2 °C 19,6 °C 17,7 km/h (3 Bft)
03.07.2025 09:51 24,1 °C 19,8 °C 59 % 80 % 1020,2 hPa 0,0 l/m² 7,3 km/h (2 Bft) W 276 ° 1 min 114 W/m² 16,2 °C 19,4 °C 12,9 km/h (3 Bft)
03.07.2025 09:52 24,1 °C 19,8 °C 59 % 80 % 1020,2 hPa 0,0 l/m² 3,8 km/h (1 Bft) NW 313 ° 1 min 118 W/m² 16,2 °C 19,8 °C 12,9 km/h (3 Bft)
03.07.2025 09:53 24,0 °C 19,8 °C 59 % 79 % 1020,4 hPa 0,0 l/m² 9,4 km/h (2 Bft) NW 325 ° 1 min 111 W/m² 16,0 °C 18,6 °C 17,7 km/h (3 Bft)
03.07.2025 09:55 24,0 °C 19,8 °C 59 % 79 % 1020,4 hPa 0,0 l/m² 7,3 km/h (2 Bft) W-NW 302 ° 2 min 83 W/m² 16,0 °C 19,4 °C 19,3 km/h (3 Bft)
03.07.2025 09:57 24,0 °C 19,8 °C 59 % 78 % 1020,4 hPa 0,0 l/m² 5,7 km/h (2 Bft) W 280 ° 2 min 88 W/m² 15,8 °C 19,8 °C 12,9 km/h (3 Bft)
03.07.2025 09:59 24,1 °C 19,8 °C 59 % 78 % 1020,4 hPa 0,0 l/m² 6,3 km/h (2 Bft) W 266 ° 2 min 91 W/m² 15,8 °C 19,8 °C 12,9 km/h (3 Bft)
03.07.2025 10:00 24,1 °C 19,8 °C 59 % 78 % 1020,5 hPa 0,0 l/m² 10,7 km/h (2 Bft) W-NW 298 ° 1 min 84 W/m² 15,8 °C 18,2 °C 22,5 km/h (4 Bft)
03.07.2025 10:01 24,1 °C 19,8 °C 59 % 78 % 1020,5 hPa 0,0 l/m² 3,5 km/h (1 Bft) W 265 ° 1 min 84 W/m² 15,8 °C 19,8 °C 16,1 km/h (3 Bft)
03.07.2025 10:02 24,0 °C 19,8 °C 59 % 77 % 1020,6 hPa 0,0 l/m² 5,2 km/h (1 Bft) NW 321 ° 1 min 84 W/m² 15,6 °C 19,8 °C 12,9 km/h (3 Bft)
03.07.2025 10:03 24,1 °C 19,8 °C 59 % 77 % 1020,6 hPa 0,0 l/m² 4,7 km/h (1 Bft) W 274 ° 1 min 81 W/m² 15,6 °C 19,8 °C 6,4 km/h (2 Bft)
03.07.2025 10:04 24,1 °C 19,8 °C 59 % 78 % 1020,6 hPa 0,0 l/m² 10,4 km/h (2 Bft) N-NW 346 ° 1 min 79 W/m² 15,8 °C 18,3 °C 17,7 km/h (3 Bft)
03.07.2025 10:05 24,1 °C 19,8 °C 59 % 77 % 1020,6 hPa 0,0 l/m² 15,3 km/h (3 Bft) W-NW 284 ° 1 min 79 W/m² 15,6 °C 16,9 °C 20,9 km/h (4 Bft)
03.07.2025 10:06 24,0 °C 19,8 °C 59 % 77 % 1020,6 hPa 0,0 l/m² 9,1 km/h (2 Bft) W-NW 283 ° 1 min 81 W/m² 15,6 °C 18,7 °C 17,7 km/h (3 Bft)
03.07.2025 10:07 24,0 °C 19,8 °C 59 % 77 % 1020,6 hPa 0,0 l/m² 7,0 km/h (2 Bft) NW 313 ° 1 min 81 W/m² 15,6 °C 19,6 °C 12,9 km/h (3 Bft)
03.07.2025 10:08 24,1 °C 19,8 °C 59 % 77 % 1020,6 hPa 0,0 l/m² 5,4 km/h (2 Bft) NW 304 ° 1 min 83 W/m² 15,6 °C 19,8 °C 9,7 km/h (2 Bft)
03.07.2025 10:09 24,0 °C 19,8 °C 59 % 77 % 1020,7 hPa 0,0 l/m² 5,3 km/h (1 Bft) W 267 ° 1 min 84 W/m² 15,6 °C 19,8 °C 14,5 km/h (3 Bft)
03.07.2025 10:11 24,1 °C 19,8 °C 59 % 77 % 1020,6 hPa 0,0 l/m² 10,1 km/h (2 Bft) W-NW 294 ° 2 min 93 W/m² 15,6 °C 18,4 °C 19,3 km/h (3 Bft)
03.07.2025 10:13 24,1 °C 19,7 °C 58 % 76 % 1020,7 hPa 0,0 l/m² 8,5 km/h (2 Bft) W 259 ° 2 min 97 W/m² 15,3 °C 18,8 °C 17,7 km/h (3 Bft)
03.07.2025 10:14 24,0 °C 19,7 °C 58 % 76 % 1020,7 hPa 0,0 l/m² 11,7 km/h (2 Bft) W-SW 257 ° 1 min 98 W/m² 15,3 °C 17,8 °C 19,3 km/h (3 Bft)
03.07.2025 10:15 24,0 °C 19,7 °C 58 % 76 % 1020,7 hPa 0,0 l/m² 9,7 km/h (2 Bft) W 267 ° 1 min 98 W/m² 15,3 °C 18,4 °C 17,7 km/h (3 Bft)
03.07.2025 10:16 24,0 °C 19,7 °C 58 % 76 % 1020,8 hPa 0,0 l/m² 12,7 km/h (3 Bft) W-NW 292 ° 1 min 98 W/m² 15,3 °C 17,5 °C 25,7 km/h (4 Bft)
03.07.2025 10:17 24,0 °C 19,7 °C 58 % 75 % 1020,8 hPa 0,0 l/m² 8,6 km/h (2 Bft) W 263 ° 1 min 100 W/m² 15,1 °C 18,8 °C 19,3 km/h (3 Bft)
03.07.2025 10:18 24,0 °C 19,7 °C 58 % 75 % 1020,8 hPa 0,0 l/m² 10,8 km/h (2 Bft) NW 319 ° 1 min 104 W/m² 15,1 °C 18,0 °C 22,5 km/h (4 Bft)
03.07.2025 10:19 24,0 °C 19,7 °C 58 % 75 % 1020,8 hPa 0,0 l/m² 9,7 km/h (2 Bft) W-SW 257 ° 1 min 105 W/m² 15,1 °C 18,4 °C 16,1 km/h (3 Bft)
03.07.2025 10:20 23,9 °C 19,7 °C 57 % 75 % 1020,8 hPa 0,0 l/m² 11,0 km/h (2 Bft) W-SW 238 ° 1 min 107 W/m² 15,1 °C 18,0 °C 16,1 km/h (3 Bft)
03.07.2025 10:21 24,0 °C 19,7 °C 57 % 75 % 1020,9 hPa 0,0 l/m² 15,6 km/h (3 Bft) W 261 ° 1 min 109 W/m² 15,1 °C 16,7 °C 29,0 km/h (5 Bft)
03.07.2025 10:22 23,9 °C 19,7 °C 57 % 75 % 1020,9 hPa 0,0 l/m² 10,4 km/h (2 Bft) W-NW 298 ° 1 min 113 W/m² 15,1 °C 18,2 °C 19,3 km/h (3 Bft)
03.07.2025 10:23 23,9 °C 19,7 °C 57 % 75 % 1020,9 hPa 0,0 l/m² 16,3 km/h (3 Bft) NW 323 ° 1 min 113 W/m² 15,1 °C 16,6 °C 22,5 km/h (4 Bft)
03.07.2025 10:24 23,9 °C 19,7 °C 57 % 75 % 1020,9 hPa 0,0 l/m² 15,4 km/h (3 Bft) NW 304 ° 1 min 118 W/m² 15,1 °C 16,8 °C 30,6 km/h (5 Bft)
03.07.2025 10:25 23,9 °C 19,7 °C 57 % 75 % 1020,8 hPa 0,0 l/m² 7,7 km/h (2 Bft) W-NW 290 ° 1 min 114 W/m² 15,1 °C 19,2 °C 16,1 km/h (3 Bft)
03.07.2025 10:26 23,9 °C 19,7 °C 57 % 75 % 1020,9 hPa 0,0 l/m² 9,4 km/h (2 Bft) S-SW 201 ° 1 min 111 W/m² 15,1 °C 18,5 °C 20,9 km/h (4 Bft)
03.07.2025 10:27 23,9 °C 19,7 °C 57 % 75 % 1021,0 hPa 0,0 l/m² 3,4 km/h (1 Bft) NW 313 ° 1 min 107 W/m² 15,1 °C 19,7 °C 6,4 km/h (2 Bft)
03.07.2025 10:28 23,9 °C 19,7 °C 57 % 76 % 1020,9 hPa 0,0 l/m² 8,2 km/h (2 Bft) NW 313 ° 1 min 107 W/m² 15,3 °C 19,0 °C 17,7 km/h (3 Bft)
03.07.2025 10:29 23,9 °C 19,8 °C 57 % 76 % 1020,9 hPa 0,0 l/m² 15,0 km/h (3 Bft) W 277 ° 1 min 107 W/m² 15,4 °C 17,0 °C 20,9 km/h (4 Bft)
03.07.2025 10:30 23,9 °C 19,8 °C 57 % 75 % 1021,0 hPa 0,0 l/m² 9,9 km/h (2 Bft) NW 304 ° 1 min 109 W/m² 15,2 °C 18,5 °C 16,1 km/h (3 Bft)
03.07.2025 10:32 23,8 °C 19,8 °C 57 % 76 % 1021,0 hPa 0,0 l/m² 5,7 km/h (2 Bft) W 273 ° 2 min 107 W/m² 15,4 °C 19,8 °C 14,5 km/h (3 Bft)
03.07.2025 10:33 23,8 °C 19,8 °C 57 % 76 % 1021,0 hPa 0,0 l/m² 8,2 km/h (2 Bft) W 281 ° 1 min 107 W/m² 15,4 °C 19,1 °C 20,9 km/h (4 Bft)
03.07.2025 10:34 23,8 °C 19,8 °C 57 % 76 % 1021,0 hPa 0,0 l/m² 6,5 km/h (2 Bft) NW 315 ° 1 min 107 W/m² 15,4 °C 19,8 °C 16,1 km/h (3 Bft)
03.07.2025 10:35 23,8 °C 19,8 °C 57 % 76 % 1021,1 hPa 0,0 l/m² 10,7 km/h (2 Bft) W-SW 258 ° 1 min 118 W/m² 15,4 °C 18,2 °C 20,9 km/h (4 Bft)
03.07.2025 10:36 23,8 °C 19,8 °C 57 % 76 % 1021,1 hPa 0,0 l/m² 8,6 km/h (2 Bft) W 265 ° 1 min 127 W/m² 15,4 °C 18,9 °C 22,5 km/h (4 Bft)
03.07.2025 10:37 23,8 °C 19,8 °C 57 % 76 % 1021,1 hPa 0,0 l/m² 9,6 km/h (2 Bft) NW 313 ° 1 min 132 W/m² 15,4 °C 18,6 °C 17,7 km/h (3 Bft)
03.07.2025 10:38 23,8 °C 19,8 °C 57 % 77 % 1021,1 hPa 0,0 l/m² 9,7 km/h (2 Bft) W-NW 296 ° 1 min 139 W/m² 15,6 °C 18,5 °C 19,3 km/h (3 Bft)
03.07.2025 10:39 23,8 °C 19,8 °C 57 % 78 % 1021,1 hPa 0,0 l/m² 8,4 km/h (2 Bft) NW 308 ° 1 min 148 W/m² 15,8 °C 19,0 °C 22,5 km/h (4 Bft)
03.07.2025 10:41 23,8 °C 19,7 °C 57 % 78 % 1021,1 hPa 0,0 l/m² 8,3 km/h (2 Bft) N-NO 17 ° 2 min 141 W/m² 15,8 °C 18,9 °C 16,1 km/h (3 Bft)
03.07.2025 10:43 23,8 °C 19,7 °C 57 % 78 % 1021,2 hPa 0,0 l/m² 13,2 km/h (3 Bft) NW 309 ° 2 min 130 W/m² 15,8 °C 17,3 °C 22,5 km/h (4 Bft)
03.07.2025 10:44 23,8 °C 19,6 °C 57 % 78 % 1021,1 hPa 0,0 l/m² 13,0 km/h (3 Bft) NW 311 ° 1 min 135 W/m² 15,7 °C 17,3 °C 20,9 km/h (4 Bft)
03.07.2025 10:45 23,8 °C 19,6 °C 57 % 78 % 1021,2 hPa 0,0 l/m² 7,8 km/h (2 Bft) W-NW 299 ° 1 min 158 W/m² 15,7 °C 19,0 °C 20,9 km/h (4 Bft)
03.07.2025 10:46 23,8 °C 19,6 °C 57 % 79 % 1021,3 hPa 0,0 l/m² 4,8 km/h (1 Bft) NW 321 ° 1 min 186 W/m² 15,9 °C 19,6 °C 16,1 km/h (3 Bft)
03.07.2025 10:47 23,8 °C 19,6 °C 57 % 79 % 1021,2 hPa 0,0 l/m² 9,7 km/h (2 Bft) W-NW 302 ° 1 min 163 W/m² 15,9 °C 18,3 °C 20,9 km/h (4 Bft)
03.07.2025 10:48 23,8 °C 19,6 °C 57 % 78 % 1021,2 hPa 0,0 l/m² 6,7 km/h (2 Bft) NW 308 ° 1 min 169 W/m² 15,7 °C 19,5 °C 19,3 km/h (3 Bft)
03.07.2025 10:49 23,8 °C 19,7 °C 57 % 79 % 1021,2 hPa 0,0 l/m² 3,4 km/h (1 Bft) W 266 ° 1 min 156 W/m² 16,0 °C 19,7 °C 8,0 km/h (2 Bft)
03.07.2025 10:50 23,8 °C 19,7 °C 57 % 79 % 1021,3 hPa 0,0 l/m² 5,9 km/h (2 Bft) NW 321 ° 1 min 123 W/m² 16,0 °C 19,7 °C 12,9 km/h (3 Bft)
03.07.2025 10:52 23,8 °C 19,7 °C 57 % 78 % 1021,4 hPa 0,0 l/m² 11,6 km/h (2 Bft) N 355 ° 2 min 93 W/m² 15,8 °C 17,8 °C 22,5 km/h (4 Bft)
03.07.2025 10:53 23,8 °C 19,7 °C 57 % 77 % 1021,4 hPa 0,0 l/m² 8,3 km/h (2 Bft) W-SW 255 ° 1 min 91 W/m² 15,5 °C 18,9 °C 20,9 km/h (4 Bft)
03.07.2025 10:54 23,8 °C 19,7 °C 57 % 77 % 1021,4 hPa 0,0 l/m² 5,6 km/h (2 Bft) W-NW 284 ° 1 min 105 W/m² 15,5 °C 19,7 °C 12,9 km/h (3 Bft)
03.07.2025 10:55 23,8 °C 19,7 °C 57 % 77 % 1021,5 hPa 0,0 l/m² 5,8 km/h (2 Bft) N-NW 344 ° 1 min 123 W/m² 15,5 °C 19,7 °C 14,5 km/h (3 Bft)
03.07.2025 10:56 23,7 °C 19,7 °C 57 % 76 % 1021,5 hPa 0,0 l/m² 11,6 km/h (2 Bft) N-NW 338 ° 1 min 142 W/m² 15,3 °C 17,8 °C 20,9 km/h (4 Bft)
03.07.2025 10:57 23,7 °C 19,7 °C 57 % 76 % 1021,5 hPa 0,0 l/m² 5,4 km/h (2 Bft) W-SW 244 ° 1 min 162 W/m² 15,3 °C 19,7 °C 11,3 km/h (2 Bft)
03.07.2025 10:58 23,7 °C 19,7 °C 57 % 76 % 1021,6 hPa 0,0 l/m² 8,7 km/h (2 Bft) W-NW 292 ° 1 min 174 W/m² 15,3 °C 18,8 °C 19,3 km/h (3 Bft)
03.07.2025 10:59 23,7 °C 19,7 °C 57 % 75 % 1021,6 hPa 0,0 l/m² 11,5 km/h (2 Bft) NW 310 ° 1 min 178 W/m² 15,1 °C 17,8 °C 17,7 km/h (3 Bft)
03.07.2025 11:00 23,7 °C 19,7 °C 57 % 75 % 1021,7 hPa 0,0 l/m² 9,3 km/h (2 Bft) NW 307 ° 1 min 193 W/m² 15,1 °C 18,6 °C 12,9 km/h (3 Bft)
03.07.2025 11:01 23,7 °C 19,7 °C 57 % 75 % 1021,7 hPa 0,0 l/m² 8,6 km/h (2 Bft) W 277 ° 1 min 213 W/m² 15,1 °C 18,8 °C 19,3 km/h (3 Bft)
03.07.2025 11:02 23,7 °C 19,7 °C 57 % 75 % 1021,7 hPa 0,0 l/m² 7,2 km/h (2 Bft) W-SW 245 ° 1 min 223 W/m² 15,1 °C 19,4 °C 11,3 km/h (2 Bft)
03.07.2025 11:03 23,7 °C 19,8 °C 57 % 75 % 1021,7 hPa 0,0 l/m² 9,9 km/h (2 Bft) W-NW 292 ° 1 min 225 W/m² 15,2 °C 18,5 °C 19,3 km/h (3 Bft)
03.07.2025 11:04 23,7 °C 19,8 °C 57 % 74 % 1021,7 hPa 0,0 l/m² 10,0 km/h (2 Bft) W-SW 248 ° 1 min 237 W/m² 15,0 °C 18,4 °C 14,5 km/h (3 Bft)
03.07.2025 11:05 23,7 °C 19,8 °C 56 % 74 % 1021,8 hPa 0,0 l/m² 8,4 km/h (2 Bft) W-NW 298 ° 1 min 234 W/m² 15,0 °C 19,0 °C 24,1 km/h (4 Bft)
03.07.2025 11:06 23,7 °C 19,9 °C 56 % 74 % 1021,9 hPa 0,0 l/m² 9,4 km/h (2 Bft) W-NW 287 ° 1 min 216 W/m² 15,1 °C 18,7 °C 14,5 km/h (3 Bft)
03.07.2025 11:07 23,7 °C 19,9 °C 56 % 74 % 1021,9 hPa 0,0 l/m² 9,1 km/h (2 Bft) NW 307 ° 1 min 190 W/m² 15,1 °C 18,8 °C 19,3 km/h (3 Bft)
03.07.2025 11:08 23,7 °C 20,0 °C 56 % 74 % 1021,9 hPa 0,0 l/m² 13,1 km/h (3 Bft) W 280 ° 1 min 181 W/m² 15,2 °C 17,7 °C 19,3 km/h (3 Bft)
03.07.2025 11:09 23,7 °C 19,9 °C 56 % 74 % 1021,9 hPa 0,0 l/m² 7,3 km/h (2 Bft) W 279 ° 1 min 185 W/m² 15,1 °C 19,5 °C 17,7 km/h (3 Bft)
03.07.2025 11:10 23,7 °C 19,9 °C 56 % 74 % 1021,8 hPa 0,0 l/m² 12,3 km/h (2 Bft) N-NW 346 ° 1 min 172 W/m² 15,1 °C 17,8 °C 19,3 km/h (3 Bft)
03.07.2025 11:11 23,7 °C 19,9 °C 56 % 74 % 1021,9 hPa 0,0 l/m² 7,6 km/h (2 Bft) NW 316 ° 1 min 151 W/m² 15,1 °C 19,4 °C 14,5 km/h (3 Bft)
03.07.2025 11:13 23,7 °C 19,9 °C 56 % 75 % 1022,0 hPa 0,0 l/m² 5,3 km/h (1 Bft) W-SW 246 ° 2 min 116 W/m² 15,3 °C 19,9 °C 12,9 km/h (3 Bft)
03.07.2025 11:14 23,7 °C 19,9 °C 56 % 75 % 1022,0 hPa 0,0 l/m² 2,3 km/h (1 Bft) W 281 ° 1 min 107 W/m² 15,3 °C 19,9 °C 8,0 km/h (2 Bft)
03.07.2025 11:15 23,7 °C 19,9 °C 56 % 75 % 1022,0 hPa 0,0 l/m² 4,8 km/h (1 Bft) W-NW 293 ° 1 min 104 W/m² 15,3 °C 19,9 °C 11,3 km/h (2 Bft)
03.07.2025 11:16 23,7 °C 19,8 °C 56 % 75 % 1022,0 hPa 0,0 l/m² 6,6 km/h (2 Bft) W-NW 296 ° 1 min 104 W/m² 15,2 °C 19,7 °C 16,1 km/h (3 Bft)
03.07.2025 11:17 23,7 °C 19,8 °C 56 % 75 % 1022,0 hPa 0,0 l/m² 2,3 km/h (1 Bft) W-SW 251 ° 1 min 105 W/m² 15,2 °C 19,8 °C 12,9 km/h (3 Bft)
03.07.2025 11:18 23,7 °C 19,8 °C 56 % 75 % 1022,0 hPa 0,0 l/m² 5,5 km/h (2 Bft) W 273 ° 1 min 113 W/m² 15,2 °C 19,8 °C 11,3 km/h (2 Bft)
03.07.2025 11:19 23,6 °C 19,8 °C 56 % 75 % 1022,0 hPa 0,0 l/m² 4,1 km/h (1 Bft) W 271 ° 1 min 120 W/m² 15,2 °C 19,8 °C 6,4 km/h (2 Bft)
03.07.2025 11:20 23,6 °C 19,8 °C 56 % 75 % 1022,0 hPa 0,0 l/m² 5,2 km/h (1 Bft) W 265 ° 1 min 125 W/m² 15,2 °C 19,8 °C 11,3 km/h (2 Bft)
03.07.2025 11:21 23,6 °C 19,9 °C 56 % 76 % 1022,1 hPa 0,0 l/m² 5,2 km/h (1 Bft) W-SW 253 ° 1 min 130 W/m² 15,5 °C 19,9 °C 11,3 km/h (2 Bft)
03.07.2025 11:22 23,6 °C 19,8 °C 56 % 75 % 1022,0 hPa 0,0 l/m² 6,4 km/h (2 Bft) W 273 ° 1 min 139 W/m² 15,2 °C 19,8 °C 11,3 km/h (2 Bft)
03.07.2025 11:23 23,6 °C 19,8 °C 56 % 75 % 1022,0 hPa 0,0 l/m² 5,2 km/h (1 Bft) W-NW 290 ° 1 min 142 W/m² 15,2 °C 19,8 °C 11,3 km/h (2 Bft)
03.07.2025 11:24 23,6 °C 19,9 °C 56 % 75 % 1022,0 hPa 0,0 l/m² 9,9 km/h (2 Bft) W 263 ° 1 min 146 W/m² 15,3 °C 18,6 °C 14,5 km/h (3 Bft)
03.07.2025 11:25 23,6 °C 19,9 °C 56 % 75 % 1022,0 hPa 0,0 l/m² 5,5 km/h (2 Bft) W-NW 292 ° 1 min 148 W/m² 15,3 °C 19,9 °C 11,3 km/h (2 Bft)
03.07.2025 11:26 23,6 °C 19,9 °C 56 % 76 % 1022,0 hPa 0,0 l/m² 6,6 km/h (2 Bft) W-NW 296 ° 1 min 149 W/m² 15,5 °C 19,8 °C 14,5 km/h (3 Bft)
03.07.2025 11:27 23,6 °C 19,9 °C 56 % 74 % 1022,0 hPa 0,0 l/m² 7,5 km/h (2 Bft) NW 315 ° 1 min 156 W/m² 15,1 °C 19,4 °C 16,1 km/h (3 Bft)
03.07.2025 11:28 23,6 °C 19,9 °C 56 % 74 % 1022,0 hPa 0,0 l/m² 10,7 km/h (2 Bft) NW 304 ° 1 min 176 W/m² 15,1 °C 18,3 °C 17,7 km/h (3 Bft)
03.07.2025 11:29 23,6 °C 20,1 °C 56 % 74 % 1022,0 hPa 0,0 l/m² 5,0 km/h (1 Bft) W-NW 284 ° 1 min 188 W/m² 15,3 °C 20,1 °C 12,9 km/h (3 Bft)
03.07.2025 11:30 23,6 °C 20,1 °C 56 % 73 % 1022,1 hPa 0,0 l/m² 5,4 km/h (2 Bft) NW 313 ° 1 min 200 W/m² 15,1 °C 20,1 °C 12,9 km/h (3 Bft)
03.07.2025 11:31 23,6 °C 20,1 °C 56 % 74 % 1022,0 hPa 0,0 l/m² 4,2 km/h (1 Bft) W-SW 248 ° 1 min 195 W/m² 15,3 °C 20,1 °C 14,5 km/h (3 Bft)
03.07.2025 11:32 23,6 °C 20,2 °C 56 % 74 % 1022,1 hPa 0,0 l/m² 7,0 km/h (2 Bft) W-NW 302 ° 1 min 183 W/m² 15,4 °C 20,0 °C 14,5 km/h (3 Bft)
03.07.2025 11:33 23,6 °C 20,2 °C 56 % 73 % 1022,1 hPa 0,0 l/m² 5,3 km/h (1 Bft) W 274 ° 1 min 179 W/m² 15,2 °C 20,2 °C 16,1 km/h (3 Bft)
03.07.2025 11:34 23,6 °C 20,3 °C 56 % 72 % 1022,1 hPa 0,0 l/m² 8,0 km/h (2 Bft) W-NW 287 ° 1 min 162 W/m² 15,1 °C 19,7 °C 14,5 km/h (3 Bft)
03.07.2025 11:35 23,6 °C 20,2 °C 56 % 72 % 1022,2 hPa 0,0 l/m² 6,4 km/h (2 Bft) SW 236 ° 1 min 146 W/m² 15,0 °C 20,2 °C 11,3 km/h (2 Bft)
03.07.2025 11:36 23,6 °C 20,3 °C 56 % 72 % 1022,2 hPa 0,0 l/m² 5,6 km/h (2 Bft) W-NW 286 ° 1 min 142 W/m² 15,1 °C 20,3 °C 12,9 km/h (3 Bft)
03.07.2025 11:37 23,5 °C 20,2 °C 56 % 72 % 1022,1 hPa 0,0 l/m² 6,0 km/h (2 Bft) NW 326 ° 1 min 148 W/m² 15,0 °C 20,2 °C 14,5 km/h (3 Bft)
03.07.2025 11:38 23,6 °C 20,3 °C 56 % 72 % 1022,2 hPa 0,0 l/m² 6,4 km/h (2 Bft) W 267 ° 1 min 156 W/m² 15,1 °C 20,3 °C 9,7 km/h (2 Bft)
03.07.2025 11:39 23,5 °C 20,3 °C 56 % 71 % 1022,1 hPa 0,0 l/m² 6,0 km/h (2 Bft) W-SW 240 ° 1 min 167 W/m² 14,9 °C 20,3 °C 12,9 km/h (3 Bft)
03.07.2025 11:40 23,5 °C 20,3 °C 56 % 72 % 1022,1 hPa 0,0 l/m² 7,2 km/h (2 Bft) W-NW 284 ° 1 min 186 W/m² 15,1 °C 20,0 °C 12,9 km/h (3 Bft)
03.07.2025 11:41 23,5 °C 20,4 °C 56 % 72 % 1022,1 hPa 0,0 l/m² 7,2 km/h (2 Bft) W-NW 286 ° 1 min 195 W/m² 15,2 °C 20,1 °C 17,7 km/h (3 Bft)
03.07.2025 11:42 23,4 °C 20,4 °C 56 % 71 % 1022,1 hPa 0,0 l/m² 7,1 km/h (2 Bft) W-NW 297 ° 1 min 211 W/m² 15,0 °C 20,1 °C 14,5 km/h (3 Bft)
03.07.2025 11:43 23,4 °C 20,5 °C 56 % 71 % 1022,2 hPa 0,0 l/m² 3,6 km/h (1 Bft) W-NW 289 ° 1 min 239 W/m² 15,1 °C 20,5 °C 14,5 km/h (3 Bft)
03.07.2025 11:44 23,4 °C 20,6 °C 56 % 70 % 1022,2 hPa 0,0 l/m² 8,2 km/h (2 Bft) W-SW 246 ° 1 min 265 W/m² 14,9 °C 19,9 °C 16,1 km/h (3 Bft)
03.07.2025 11:45 23,4 °C 20,6 °C 56 % 69 % 1022,2 hPa 0,0 l/m² 7,9 km/h (2 Bft) NW 306 ° 1 min 283 W/m² 14,7 °C 20,0 °C 12,9 km/h (3 Bft)
03.07.2025 11:46 23,5 °C 20,6 °C 56 % 70 % 1022,2 hPa 0,0 l/m² 6,4 km/h (2 Bft) W 278 ° 1 min 299 W/m² 14,9 °C 20,6 °C 12,9 km/h (3 Bft)
03.07.2025 11:47 23,5 °C 20,7 °C 56 % 70 % 1022,2 hPa 0,0 l/m² 8,3 km/h (2 Bft) W 263 ° 1 min 299 W/m² 15,0 °C 20,0 °C 14,5 km/h (3 Bft)
03.07.2025 11:48 23,5 °C 20,8 °C 56 % 70 % 1022,2 hPa 0,0 l/m² 9,5 km/h (2 Bft) W 269 ° 1 min 295 W/m² 15,1 °C 19,7 °C 16,1 km/h (3 Bft)
03.07.2025 11:49 23,5 °C 20,8 °C 56 % 69 % 1022,2 hPa 0,0 l/m² 7,1 km/h (2 Bft) W 273 ° 1 min 292 W/m² 14,9 °C 20,5 °C 14,5 km/h (3 Bft)
03.07.2025 11:50 23,5 °C 20,9 °C 56 % 69 % 1022,1 hPa 0,0 l/m² 5,8 km/h (2 Bft) W-NW 293 ° 1 min 297 W/m² 15,0 °C 20,9 °C 14,5 km/h (3 Bft)
03.07.2025 11:51 23,6 °C 21,1 °C 56 % 68 % 1022,2 hPa 0,0 l/m² 9,9 km/h (2 Bft) W 277 ° 1 min 299 W/m² 15,0 °C 19,9 °C 16,1 km/h (3 Bft)
03.07.2025 11:52 23,6 °C 21,1 °C 56 % 68 % 1022,1 hPa 0,0 l/m² 11,8 km/h (2 Bft) NW 306 ° 1 min 299 W/m² 15,0 °C 19,3 °C 19,3 km/h (3 Bft)
03.07.2025 11:53 23,6 °C 21,2 °C 56 % 67 % 1022,1 hPa 0,0 l/m² 10,1 km/h (2 Bft) W-NW 285 ° 1 min 299 W/m² 14,8 °C 19,9 °C 14,5 km/h (3 Bft)
03.07.2025 11:54 23,6 °C 21,2 °C 56 % 67 % 1022,1 hPa 0,0 l/m² 8,4 km/h (2 Bft) W-NW 296 ° 1 min 285 W/m² 14,8 °C 20,5 °C 17,7 km/h (3 Bft)
03.07.2025 11:55 23,6 °C 21,2 °C 56 % 67 % 1022,1 hPa 0,0 l/m² 9,7 km/h (2 Bft) NW 323 ° 1 min 272 W/m² 14,8 °C 20,1 °C 19,3 km/h (3 Bft)
03.07.2025 11:56 23,6 °C 21,3 °C 56 % 67 % 1022,1 hPa 0,0 l/m² 8,9 km/h (2 Bft) NW 317 ° 1 min 276 W/m² 14,9 °C 20,4 °C 14,5 km/h (3 Bft)
03.07.2025 11:57 23,6 °C 21,4 °C 56 % 68 % 1022,1 hPa 0,0 l/m² 8,0 km/h (2 Bft) W 279 ° 1 min 301 W/m² 15,2 °C 20,8 °C 14,5 km/h (3 Bft)
03.07.2025 11:58 23,6 °C 21,4 °C 56 % 66 % 1022,1 hPa 0,0 l/m² 10,1 km/h (2 Bft) W-NW 300 ° 1 min 299 W/m² 14,8 °C 20,2 °C 17,7 km/h (3 Bft)
03.07.2025 11:59 23,6 °C 21,6 °C 57 % 66 % 1022,0 hPa 0,0 l/m² 6,3 km/h (2 Bft) W-NW 285 ° 1 min 302 W/m² 15,0 °C 21,6 °C 14,5 km/h (3 Bft)
03.07.2025 12:00 23,6 °C 21,6 °C 57 % 66 % 1022,1 hPa 0,0 l/m² 7,7 km/h (2 Bft) W-NW 292 ° 1 min 316 W/m² 15,0 °C 21,1 °C 12,9 km/h (3 Bft)
03.07.2025 12:01 23,6 °C 21,6 °C 57 % 65 % 1022,1 hPa 0,0 l/m² 11,3 km/h (2 Bft) W-SW 247 ° 1 min 325 W/m² 14,7 °C 20,1 °C 19,3 km/h (3 Bft)
03.07.2025 12:02 23,6 °C 21,7 °C 57 % 65 % 1022,2 hPa 0,0 l/m² 6,4 km/h (2 Bft) W-NW 292 ° 1 min 320 W/m² 14,8 °C 21,7 °C 19,3 km/h (3 Bft)
03.07.2025 12:03 23,6 °C 21,7 °C 57 % 65 % 1022,2 hPa 0,0 l/m² 9,7 km/h (2 Bft) W-NW 292 ° 1 min 302 W/m² 14,8 °C 20,6 °C 17,7 km/h (3 Bft)
03.07.2025 12:04 23,6 °C 21,8 °C 57 % 64 % 1022,2 hPa 0,0 l/m² 12,9 km/h (3 Bft) W-NW 292 ° 1 min 287 W/m² 14,7 °C 19,9 °C 22,5 km/h (4 Bft)
03.07.2025 12:05 23,6 °C 21,8 °C 57 % 64 % 1022,1 hPa 0,0 l/m² 11,3 km/h (2 Bft) W 270 ° 1 min 295 W/m² 14,7 °C 20,3 °C 16,1 km/h (3 Bft)
03.07.2025 12:06 23,6 °C 21,8 °C 58 % 63 % 1022,1 hPa 0,0 l/m² 11,3 km/h (2 Bft) W-NW 292 ° 1 min 308 W/m² 14,4 °C 20,3 °C 22,5 km/h (4 Bft)
03.07.2025 12:07 23,6 °C 21,8 °C 58 % 63 % 1022,1 hPa 0,0 l/m² 14,5 km/h (3 Bft) W 270 ° 1 min 322 W/m² 14,4 °C 19,5 °C 19,3 km/h (3 Bft)
03.07.2025 12:08 23,6 °C 21,8 °C 58 % 63 % 1022,1 hPa 0,0 l/m² 14,5 km/h (3 Bft) W 270 ° 1 min 339 W/m² 14,4 °C 19,5 °C 25,7 km/h (4 Bft)
03.07.2025 12:09 23,7 °C 21,8 °C 58 % 63 % 1022,1 hPa 0,0 l/m² 11,3 km/h (2 Bft) NW 315 ° 1 min 378 W/m² 14,4 °C 20,3 °C 22,5 km/h (4 Bft)
03.07.2025 12:10 23,7 °C 21,9 °C 58 % 64 % 1022,2 hPa 0,0 l/m² 9,7 km/h (2 Bft) W-NW 292 ° 1 min 367 W/m² 14,8 °C 20,8 °C 24,1 km/h (4 Bft)
03.07.2025 12:11 23,6 °C 21,9 °C 57 % 63 % 1022,2 hPa 0,0 l/m² 11,3 km/h (2 Bft) W 270 ° 1 min 346 W/m² 14,5 °C 20,4 °C 20,9 km/h (4 Bft)
03.07.2025 12:12 23,6 °C 21,9 °C 58 % 63 % 1022,2 hPa 0,0 l/m² 9,7 km/h (2 Bft) W 270 ° 1 min 329 W/m² 14,5 °C 20,8 °C 19,3 km/h (3 Bft)
03.07.2025 12:13 23,6 °C 21,9 °C 58 % 63 % 1022,2 hPa 0,0 l/m² 16,1 km/h (3 Bft) W-NW 292 ° 1 min 313 W/m² 14,5 °C 19,3 °C 22,5 km/h (4 Bft)
03.07.2025 12:14 23,6 °C 21,9 °C 58 % 63 % 1022,2 hPa 0,0 l/m² 11,3 km/h (2 Bft) W 270 ° 1 min 297 W/m² 14,5 °C 20,4 °C 17,7 km/h (3 Bft)
03.07.2025 12:15 23,7 °C 21,9 °C 58 % 64 % 1022,3 hPa 0,0 l/m² 14,5 km/h (3 Bft) W-NW 292 ° 1 min 281 W/m² 14,8 °C 19,7 °C 22,5 km/h (4 Bft)
03.07.2025 12:16 23,6 °C 21,9 °C 58 % 63 % 1022,4 hPa 0,0 l/m² 16,1 km/h (3 Bft) W-NW 292 ° 1 min 272 W/m² 14,5 °C 19,3 °C 22,5 km/h (4 Bft)
03.07.2025 12:17 23,6 °C 21,9 °C 58 % 62 % 1022,4 hPa 0,0 l/m² 17,7 km/h (3 Bft) W-NW 292 ° 1 min 279 W/m² 14,3 °C 19,0 °C 22,5 km/h (4 Bft)
03.07.2025 12:18 23,7 °C 21,9 °C 58 % 62 % 1022,5 hPa 0,0 l/m² 12,9 km/h (3 Bft) W 270 ° 1 min 292 W/m² 14,3 °C 20,0 °C 25,7 km/h (4 Bft)
03.07.2025 12:19 23,6 °C 21,8 °C 58 % 63 % 1022,5 hPa 0,0 l/m² 12,9 km/h (3 Bft) NW 315 ° 1 min 306 W/m² 14,4 °C 19,9 °C 20,9 km/h (4 Bft)
03.07.2025 12:20 23,6 °C 21,9 °C 58 % 63 % 1022,4 hPa 0,0 l/m² 12,9 km/h (3 Bft) W-NW 292 ° 1 min 341 W/m² 14,5 °C 20,0 °C 25,7 km/h (4 Bft)
03.07.2025 12:21 23,6 °C 21,9 °C 58 % 62 % 1022,5 hPa 0,0 l/m² 11,3 km/h (2 Bft) W-NW 292 ° 1 min 431 W/m² 14,3 °C 20,4 °C 20,9 km/h (4 Bft)
03.07.2025 12:22 23,6 °C 21,9 °C 58 % 62 % 1022,4 hPa 0,0 l/m² 11,3 km/h (2 Bft) W 270 ° 1 min 455 W/m² 14,3 °C 20,4 °C 24,1 km/h (4 Bft)
03.07.2025 12:23 23,6 °C 21,9 °C 58 % 61 % 1022,4 hPa 0,0 l/m² 8,0 km/h (2 Bft) W 270 ° 1 min 452 W/m² 14,0 °C 21,3 °C 19,3 km/h (3 Bft)
03.07.2025 12:24 23,6 °C 21,9 °C 58 % 61 % 1022,4 hPa 0,0 l/m² 9,7 km/h (2 Bft) W 270 ° 1 min 418 W/m² 14,0 °C 20,8 °C 14,5 km/h (3 Bft)
03.07.2025 12:25 23,7 °C 22,0 °C 58 % 61 % 1022,4 hPa 0,0 l/m² 8,0 km/h (2 Bft) W-NW 292 ° 1 min 369 W/m² 14,1 °C 21,5 °C 19,3 km/h (3 Bft)
03.07.2025 12:26 23,6 °C 22,1 °C 58 % 61 % 1022,3 hPa 0,0 l/m² 11,3 km/h (2 Bft) NW 315 ° 1 min 294 W/m² 14,2 °C 20,6 °C 20,9 km/h (4 Bft)
03.07.2025 12:27 23,6 °C 22,1 °C 58 % 60 % 1022,4 hPa 0,0 l/m² 12,9 km/h (3 Bft) W-NW 292 ° 1 min 299 W/m² 14,0 °C 20,2 °C 17,7 km/h (3 Bft)
03.07.2025 12:28 23,7 °C 22,2 °C 58 % 61 % 1022,5 hPa 0,0 l/m² 11,3 km/h (2 Bft) W-NW 292 ° 1 min 374 W/m² 14,3 °C 20,7 °C 20,9 km/h (4 Bft)
03.07.2025 12:29 23,7 °C 22,2 °C 58 % 61 % 1022,5 hPa 0,0 l/m² 11,3 km/h (2 Bft) W-NW 292 ° 1 min 394 W/m² 14,3 °C 20,7 °C 24,1 km/h (4 Bft)
03.07.2025 12:30 23,7 °C 22,2 °C 58 % 60 % 1022,5 hPa 0,0 l/m² 6,4 km/h (2 Bft) W 270 ° 1 min 345 W/m² 14,1 °C 22,2 °C 12,9 km/h (3 Bft)
03.07.2025 12:31 23,7 °C 22,2 °C 58 % 60 % 1022,5 hPa 0,0 l/m² 9,7 km/h (2 Bft) W-NW 292 ° 1 min 313 W/m² 14,1 °C 21,2 °C 17,7 km/h (3 Bft)
03.07.2025 12:32 23,6 °C 22,2 °C 57 % 61 % 1022,6 hPa 0,0 l/m² 8,0 km/h (2 Bft) NW 315 ° 1 min 392 W/m² 14,3 °C 21,7 °C 16,1 km/h (3 Bft)
03.07.2025 12:33 23,7 °C 22,3 °C 57 % 60 % 1022,5 hPa 0,0 l/m² 6,4 km/h (2 Bft) W-NW 292 ° 1 min 448 W/m² 14,2 °C 22,3 °C 12,9 km/h (3 Bft)
03.07.2025 12:34 23,7 °C 22,4 °C 57 % 61 % 1022,5 hPa 0,0 l/m² 6,4 km/h (2 Bft) NW 315 ° 1 min 475 W/m² 14,5 °C 22,4 °C 12,9 km/h (3 Bft)
03.07.2025 12:35 23,6 °C 22,6 °C 57 % 62 % 1022,5 hPa 0,0 l/m² 11,3 km/h (2 Bft) NW 315 ° 1 min 466 W/m² 14,9 °C 21,2 °C 19,3 km/h (3 Bft)
03.07.2025 12:36 23,7 °C 22,7 °C 57 % 59 % 1022,6 hPa 0,0 l/m² 12,9 km/h (3 Bft) NW 315 ° 1 min 471 W/m² 14,3 °C 20,9 °C 17,7 km/h (3 Bft)
03.07.2025 12:37 23,6 °C 22,8 °C 57 % 58 % 1022,5 hPa 0,0 l/m² 12,9 km/h (3 Bft) NW 315 ° 1 min 471 W/m² 14,1 °C 21,1 °C 19,3 km/h (3 Bft)
03.07.2025 12:38 23,6 °C 22,8 °C 57 % 59 % 1022,5 hPa 0,0 l/m² 14,5 km/h (3 Bft) W-NW 292 ° 1 min 485 W/m² 14,4 °C 20,7 °C 20,9 km/h (4 Bft)
03.07.2025 12:39 23,6 °C 22,8 °C 57 % 58 % 1022,5 hPa 0,0 l/m² 11,3 km/h (2 Bft) W 270 ° 1 min 499 W/m² 14,1 °C 21,4 °C 20,9 km/h (4 Bft)
03.07.2025 12:40 23,7 °C 22,8 °C 57 % 58 % 1022,5 hPa 0,0 l/m² 14,5 km/h (3 Bft) W-NW 292 ° 1 min 508 W/m² 14,1 °C 20,7 °C 25,7 km/h (4 Bft)
03.07.2025 12:41 23,7 °C 22,9 °C 57 % 59 % 1022,5 hPa 0,0 l/m² 11,3 km/h (2 Bft) W-NW 292 ° 1 min 540 W/m² 14,5 °C 21,5 °C 17,7 km/h (3 Bft)
03.07.2025 12:42 23,7 °C 23,0 °C 57 % 57 % 1022,5 hPa 0,0 l/m² 12,9 km/h (3 Bft) W-NW 292 ° 1 min 513 W/m² 14,0 °C 21,3 °C 24,1 km/h (4 Bft)
03.07.2025 12:43 23,7 °C 23,1 °C 57 % 57 % 1022,5 hPa 0,0 l/m² 12,9 km/h (3 Bft) W-NW 292 ° 1 min 524 W/m² 14,1 °C 21,4 °C 22,5 km/h (4 Bft)
03.07.2025 12:44 23,7 °C 23,1 °C 57 % 57 % 1022,5 hPa 0,0 l/m² 9,7 km/h (2 Bft) W 270 ° 1 min 563 W/m² 14,1 °C 22,1 °C 16,1 km/h (3 Bft)
03.07.2025 12:45 23,7 °C 23,1 °C 57 % 57 % 1022,5 hPa 0,0 l/m² 11,3 km/h (2 Bft) W-NW 292 ° 1 min 564 W/m² 14,1 °C 21,8 °C 27,4 km/h (5 Bft)
03.07.2025 12:46 23,7 °C 23,1 °C 57 % 56 % 1022,5 hPa 0,0 l/m² 12,9 km/h (3 Bft) NW 315 ° 1 min 612 W/m² 13,8 °C 21,4 °C 27,4 km/h (5 Bft)
03.07.2025 12:47 23,7 °C 23,2 °C 57 % 56 % 1022,5 hPa 0,0 l/m² 12,9 km/h (3 Bft) NW 315 ° 1 min 571 W/m² 13,9 °C 21,5 °C 19,3 km/h (3 Bft)
03.07.2025 12:48 23,7 °C 23,1 °C 57 % 55 % 1022,6 hPa 0,0 l/m² 12,9 km/h (3 Bft) W-NW 292 ° 1 min 571 W/m² 13,6 °C 21,4 °C 19,3 km/h (3 Bft)
03.07.2025 12:49 23,7 °C 23,2 °C 57 % 56 % 1022,5 hPa 0,0 l/m² 16,1 km/h (3 Bft) W-NW 292 ° 1 min 571 W/m² 13,9 °C 20,9 °C 29,0 km/h (5 Bft)
03.07.2025 12:50 23,7 °C 23,2 °C 57 % 55 % 1022,6 hPa 0,0 l/m² 12,9 km/h (3 Bft) NW 315 ° 1 min 893 W/m² 13,6 °C 21,5 °C 22,5 km/h (4 Bft)
03.07.2025 12:51 23,7 °C 23,3 °C 57 % 56 % 1022,6 hPa 0,0 l/m² 9,7 km/h (2 Bft) NW 315 ° 1 min 893 W/m² 14,0 °C 22,4 °C 17,7 km/h (3 Bft)
03.07.2025 12:52 23,7 °C 23,6 °C 57 % 56 % 1022,6 hPa 0,0 l/m² 11,3 km/h (2 Bft) W-NW 292 ° 1 min 893 W/m² 14,3 °C 22,3 °C 14,5 km/h (3 Bft)
03.07.2025 12:53 23,7 °C 23,7 °C 57 % 54 % 1022,6 hPa 0,0 l/m² 12,9 km/h (3 Bft) NW 315 ° 1 min 893 W/m² 13,8 °C 22,1 °C 19,3 km/h (3 Bft)
03.07.2025 12:54 23,7 °C 23,8 °C 57 % 53 % 1022,6 hPa 0,0 l/m² 16,1 km/h (3 Bft) N-NW 337 ° 1 min 621 W/m² 13,6 °C 21,7 °C 27,4 km/h (5 Bft)
03.07.2025 12:55 23,7 °C 23,8 °C 57 % 54 % 1022,7 hPa 0,0 l/m² 14,5 km/h (3 Bft) W-NW 292 ° 1 min 663 W/m² 13,9 °C 21,9 °C 20,9 km/h (4 Bft)
03.07.2025 12:56 23,7 °C 23,8 °C 57 % 54 % 1022,7 hPa 0,0 l/m² 9,7 km/h (2 Bft) W-NW 292 ° 1 min 446 W/m² 13,9 °C 22,9 °C 19,3 km/h (3 Bft)
03.07.2025 12:57 23,7 °C 23,8 °C 57 % 53 % 1022,7 hPa 0,0 l/m² 12,9 km/h (3 Bft) NW 315 ° 1 min 446 W/m² 13,6 °C 22,2 °C 22,5 km/h (4 Bft)
03.07.2025 12:58 23,7 °C 23,8 °C 57 % 54 % 1022,6 hPa 0,0 l/m² 17,7 km/h (3 Bft) NW 315 ° 1 min 446 W/m² 13,9 °C 21,4 °C 25,7 km/h (4 Bft)
03.07.2025 12:59 23,7 °C 23,8 °C 57 % 54 % 1022,7 hPa 0,0 l/m² 11,3 km/h (2 Bft) W-NW 292 ° 1 min 446 W/m² 13,9 °C 22,6 °C 19,3 km/h (3 Bft)
03.07.2025 13:00 23,7 °C 23,9 °C 57 % 52 % 1022,7 hPa 0,0 l/m² 12,9 km/h (3 Bft) W 270 ° 1 min 988 W/m² 13,4 °C 22,3 °C 17,7 km/h (3 Bft)
03.07.2025 13:01 23,7 °C 23,8 °C 57 % 52 % 1022,7 hPa 0,0 l/m² 9,7 km/h (2 Bft) W 270 ° 1 min 956 W/m² 13,3 °C 22,9 °C 17,7 km/h (3 Bft)
03.07.2025 13:02 23,7 °C 23,8 °C 57 % 52 % 1022,7 hPa 0,0 l/m² 8,0 km/h (2 Bft) W-NW 292 ° 1 min 1123 W/m² 13,3 °C 23,3 °C 17,7 km/h (3 Bft)
03.07.2025 13:03 23,7 °C 24,0 °C 57 % 53 % 1022,6 hPa 0,0 l/m² 12,9 km/h (3 Bft) W 270 ° 1 min 1081 W/m² 13,8 °C 22,5 °C 20,9 km/h (4 Bft)
03.07.2025 13:04 23,7 °C 24,1 °C 57 % 53 % 1022,5 hPa 0,0 l/m² 11,3 km/h (2 Bft) W 270 ° 1 min 1099 W/m² 13,9 °C 22,9 °C 17,7 km/h (3 Bft)
03.07.2025 13:05 23,7 °C 24,3 °C 57 % 55 % 1022,6 hPa 0,0 l/m² 8,0 km/h (2 Bft) W 270 ° 1 min 1053 W/m² 14,7 °C 23,9 °C 14,5 km/h (3 Bft)
03.07.2025 13:06 23,7 °C 24,6 °C 57 % 53 % 1022,6 hPa 0,0 l/m² 16,1 km/h (3 Bft) NW 315 ° 1 min 1042 W/m² 14,4 °C 22,7 °C 30,6 km/h (5 Bft)
03.07.2025 13:07 23,7 °C 24,8 °C 57 % 52 % 1022,6 hPa 0,0 l/m² 19,3 km/h (3 Bft) NW 315 ° 1 min 923 W/m² 14,3 °C 22,5 °C 24,1 km/h (4 Bft)
03.07.2025 13:08 23,7 °C 24,8 °C 57 % 51 % 1022,5 hPa 0,0 l/m² 14,5 km/h (3 Bft) NW 315 ° 1 min 923 W/m² 14,0 °C 23,1 °C 27,4 km/h (5 Bft)
03.07.2025 13:09 23,7 °C 24,8 °C 57 % 51 % 1022,6 hPa 0,0 l/m² 19,3 km/h (3 Bft) N-NW 337 ° 1 min 1120 W/m² 14,0 °C 22,5 °C 30,6 km/h (5 Bft)
03.07.2025 13:10 23,7 °C 24,8 °C 57 % 52 % 1022,6 hPa 0,0 l/m² 11,3 km/h (2 Bft) W-NW 292 ° 1 min 1120 W/m² 14,3 °C 23,7 °C 20,9 km/h (4 Bft)
03.07.2025 13:11 23,7 °C 24,7 °C 57 % 51 % 1022,7 hPa 0,0 l/m² 12,9 km/h (3 Bft) W-NW 292 ° 1 min 675 W/m² 13,9 °C 23,3 °C 20,9 km/h (4 Bft)
03.07.2025 13:12 23,8 °C 24,5 °C 57 % 52 % 1022,7 hPa 0,0 l/m² 14,5 km/h (3 Bft) W 270 ° 1 min 594 W/m² 14,0 °C 22,8 °C 27,4 km/h (5 Bft)
03.07.2025 13:13 23,8 °C 24,4 °C 57 % 52 % 1022,9 hPa 0,0 l/m² 12,9 km/h (3 Bft) W 270 ° 1 min 573 W/m² 13,9 °C 22,9 °C 25,7 km/h (4 Bft)
03.07.2025 13:14 23,8 °C 24,3 °C 57 % 52 % 1022,8 hPa 0,0 l/m² 11,3 km/h (2 Bft) W-NW 292 ° 1 min 563 W/m² 13,8 °C 23,1 °C 16,1 km/h (3 Bft)
03.07.2025 13:15 23,8 °C 24,2 °C 57 % 53 % 1022,7 hPa 0,0 l/m² 8,0 km/h (2 Bft) W 270 ° 1 min 775 W/m² 14,0 °C 23,8 °C 14,5 km/h (3 Bft)
03.07.2025 13:16 23,7 °C 24,2 °C 57 % 52 % 1022,7 hPa 0,0 l/m² 9,7 km/h (2 Bft) W-NW 292 ° 1 min 775 W/m² 13,7 °C 23,3 °C 16,1 km/h (3 Bft)
03.07.2025 13:17 23,7 °C 24,2 °C 57 % 53 % 1022,6 hPa 0,0 l/m² 9,7 km/h (2 Bft) W-NW 292 ° 1 min 775 W/m² 14,0 °C 23,3 °C 17,7 km/h (3 Bft)
03.07.2025 13:18 23,8 °C 24,2 °C 57 % 53 % 1022,6 hPa 0,0 l/m² 12,9 km/h (3 Bft) W 270 ° 1 min 775 W/m² 14,0 °C 22,7 °C 20,9 km/h (4 Bft)
03.07.2025 13:19 23,8 °C 24,2 °C 57 % 51 % 1022,7 hPa 0,0 l/m² 16,1 km/h (3 Bft) W 270 ° 1 min 886 W/m² 13,4 °C 22,2 °C 25,7 km/h (4 Bft)
03.07.2025 13:20 23,8 °C 24,2 °C 57 % 51 % 1022,7 hPa 0,0 l/m² 14,5 km/h (3 Bft) W 270 ° 1 min 886 W/m² 13,4 °C 22,4 °C 20,9 km/h (4 Bft)
03.07.2025 13:21 23,8 °C 24,2 °C 57 % 52 % 1022,7 hPa 0,0 l/m² 8,0 km/h (2 Bft) W-NW 292 ° 1 min 886 W/m² 13,7 °C 23,8 °C 16,1 km/h (3 Bft)
03.07.2025 13:22 23,8 °C 24,3 °C 57 % 51 % 1022,7 hPa 0,0 l/m² 12,9 km/h (3 Bft) W 270 ° 1 min 886 W/m² 13,5 °C 22,8 °C 22,5 km/h (4 Bft)
03.07.2025 13:23 23,8 °C 24,3 °C 57 % 50 % 1022,7 hPa 0,0 l/m² 14,5 km/h (3 Bft) W-NW 292 ° 1 min 863 W/m² 13,2 °C 22,5 °C 20,9 km/h (4 Bft)
03.07.2025 13:24 23,8 °C 24,4 °C 56 % 51 % 1022,7 hPa 0,0 l/m² 9,7 km/h (2 Bft) W-NW 292 ° 1 min 863 W/m² 13,6 °C 23,6 °C 19,3 km/h (3 Bft)
03.07.2025 13:25 23,8 °C 24,8 °C 56 % 51 % 1022,7 hPa 0,0 l/m² 6,4 km/h (2 Bft) SW 225 ° 1 min 863 W/m² 14,0 °C 24,8 °C 14,5 km/h (3 Bft)
03.07.2025 13:26 23,8 °C 25,3 °C 56 % 51 % 1022,7 hPa 0,0 l/m² 3,2 km/h (1 Bft) NW 315 ° 1 min 1136 W/m² 14,4 °C 25,3 °C 8,0 km/h (2 Bft)
03.07.2025 13:27 23,8 °C 25,7 °C 56 % 50 % 1022,6 hPa 0,0 l/m² 16,1 km/h (3 Bft) N-NW 337 ° 1 min 1144 W/m² 14,5 °C 24,0 °C 19,3 km/h (3 Bft)
03.07.2025 13:28 23,8 °C 25,8 °C 56 % 49 % 1022,7 hPa 0,0 l/m² 9,7 km/h (2 Bft) NW 315 ° 1 min 1107 W/m² 14,3 °C 25,1 °C 17,7 km/h (3 Bft)
03.07.2025 13:29 23,8 °C 25,8 °C 56 % 48 % 1022,6 hPa 0,0 l/m² 8,0 km/h (2 Bft) W 270 ° 1 min 1048 W/m² 13,9 °C 25,4 °C 17,7 km/h (3 Bft)
03.07.2025 13:30 23,8 °C 25,8 °C 56 % 49 % 1022,6 hPa 0,0 l/m² 14,5 km/h (3 Bft) W 270 ° 1 min 1048 W/m² 14,3 °C 24,3 °C 25,7 km/h (4 Bft)
03.07.2025 13:31 23,8 °C 25,7 °C 56 % 46 % 1022,6 hPa 0,0 l/m² 16,1 km/h (3 Bft) W 270 ° 1 min 1169 W/m² 13,2 °C 24,0 °C 24,1 km/h (4 Bft)
03.07.2025 13:32 23,8 °C 25,5 °C 56 % 46 % 1022,6 hPa 0,0 l/m² 9,7 km/h (2 Bft) W-NW 292 ° 1 min 1151 W/m² 13,0 °C 24,8 °C 25,7 km/h (4 Bft)
03.07.2025 13:33 23,8 °C 25,5 °C 56 % 47 % 1022,6 hPa 0,0 l/m² 14,5 km/h (3 Bft) W 270 ° 1 min 1151 W/m² 13,3 °C 24,0 °C 25,7 km/h (4 Bft)
03.07.2025 13:34 23,8 °C 25,4 °C 56 % 46 % 1022,6 hPa 0,0 l/m² 19,3 km/h (3 Bft) W 270 ° 1 min 1151 W/m² 12,9 °C 23,3 °C 25,7 km/h (4 Bft)
03.07.2025 13:35 23,8 °C 25,4 °C 56 % 46 % 1022,7 hPa 0,0 l/m² 16,1 km/h (3 Bft) W 270 ° 1 min 1158 W/m² 12,9 °C 23,6 °C 27,4 km/h (5 Bft)
03.07.2025 13:36 23,8 °C 25,4 °C 56 % 47 % 1022,7 hPa 0,0 l/m² 16,1 km/h (3 Bft) W 270 ° 1 min 1187 W/m² 13,3 °C 23,6 °C 27,4 km/h (5 Bft)
03.07.2025 13:37 23,8 °C 25,5 °C 56 % 47 % 1022,8 hPa 0,0 l/m² 16,1 km/h (3 Bft) NW 315 ° 1 min 1088 W/m² 13,3 °C 23,8 °C 24,1 km/h (4 Bft)
03.07.2025 13:38 23,8 °C 25,4 °C 56 % 47 % 1022,8 hPa 0,0 l/m² 9,7 km/h (2 Bft) W 270 ° 1 min 1088 W/m² 13,3 °C 24,7 °C 17,7 km/h (3 Bft)
03.07.2025 13:39 23,8 °C 25,3 °C 56 % 47 % 1022,8 hPa 0,0 l/m² 11,3 km/h (2 Bft) W 270 ° 1 min 1088 W/m² 13,2 °C 24,3 °C 16,1 km/h (3 Bft)
03.07.2025 13:40 23,8 °C 25,2 °C 56 % 47 % 1022,8 hPa 0,0 l/m² 12,9 km/h (3 Bft) W 270 ° 1 min 1088 W/m² 13,1 °C 23,9 °C 30,6 km/h (5 Bft)
03.07.2025 13:41 23,8 °C 25,2 °C 56 % 46 % 1022,8 hPa 0,0 l/m² 14,5 km/h (3 Bft) W 270 ° 1 min 1028 W/m² 12,7 °C 23,6 °C 20,9 km/h (4 Bft)
03.07.2025 13:42 23,8 °C 25,1 °C 56 % 47 % 1022,7 hPa 0,0 l/m² 14,5 km/h (3 Bft) W 270 ° 1 min 1025 W/m² 13,0 °C 23,5 °C 25,7 km/h (4 Bft)
03.07.2025 13:43 23,8 °C 25,2 °C 56 % 47 % 1022,7 hPa 0,0 l/m² 12,9 km/h (3 Bft) W-NW 292 ° 1 min 1025 W/m² 13,1 °C 23,9 °C 25,7 km/h (4 Bft)
03.07.2025 13:44 23,8 °C 25,2 °C 56 % 47 % 1022,8 hPa 0,0 l/m² 11,3 km/h (2 Bft) W-NW 292 ° 1 min 1025 W/m² 13,1 °C 24,1 °C 20,9 km/h (4 Bft)
03.07.2025 13:45 23,8 °C 25,3 °C 56 % 48 % 1022,8 hPa 0,0 l/m² 16,1 km/h (3 Bft) W-NW 292 ° 1 min 629 W/m² 13,5 °C 23,5 °C 25,7 km/h (4 Bft)
03.07.2025 13:46 23,8 °C 25,3 °C 55 % 47 % 1022,8 hPa 0,0 l/m² 17,7 km/h (3 Bft) NW 315 ° 1 min 584 W/m² 13,2 °C 23,3 °C 27,4 km/h (5 Bft)
03.07.2025 13:47 23,8 °C 25,2 °C 56 % 46 % 1022,8 hPa 0,0 l/m² 17,7 km/h (3 Bft) NW 315 ° 1 min 501 W/m² 12,7 °C 23,2 °C 29,0 km/h (5 Bft)
03.07.2025 13:48 23,8 °C 25,0 °C 55 % 46 % 1022,9 hPa 0,0 l/m² 14,5 km/h (3 Bft) W-NW 292 ° 1 min 599 W/m² 12,6 °C 23,4 °C 24,1 km/h (4 Bft)
03.07.2025 13:49 23,8 °C 24,8 °C 55 % 47 % 1023,0 hPa 0,0 l/m² 9,7 km/h (2 Bft) NW 315 ° 1 min 599 W/m² 12,7 °C 24,0 °C 20,9 km/h (4 Bft)
03.07.2025 13:50 23,8 °C 24,8 °C 55 % 48 % 1023,0 hPa 0,0 l/m² 11,3 km/h (2 Bft) W-NW 292 ° 1 min 751 W/m² 13,0 °C 23,7 °C 25,7 km/h (4 Bft)
03.07.2025 13:51 23,8 °C 24,7 °C 55 % 47 % 1023,0 hPa 0,0 l/m² 11,3 km/h (2 Bft) W-NW 292 ° 1 min 751 W/m² 12,6 °C 23,6 °C 22,5 km/h (4 Bft)
03.07.2025 13:52 23,8 °C 24,7 °C 55 % 47 % 1022,9 hPa 0,0 l/m² 9,7 km/h (2 Bft) W-NW 292 ° 1 min 751 W/m² 12,6 °C 23,9 °C 17,7 km/h (3 Bft)
03.07.2025 13:53 23,8 °C 24,7 °C 55 % 48 % 1022,9 hPa 0,0 l/m² 6,4 km/h (2 Bft) W-NW 292 ° 1 min 751 W/m² 12,9 °C 24,7 °C 14,5 km/h (3 Bft)
03.07.2025 13:54 23,9 °C 24,7 °C 55 % 47 % 1022,8 hPa 0,0 l/m² 8,0 km/h (2 Bft) W 270 ° 1 min 751 W/m² 12,6 °C 24,3 °C 16,1 km/h (3 Bft)
03.07.2025 13:55 23,8 °C 24,8 °C 55 % 48 % 1022,9 hPa 0,0 l/m² 8,0 km/h (2 Bft) NW 315 ° 1 min 751 W/m² 13,0 °C 24,4 °C 14,5 km/h (3 Bft)
03.07.2025 13:56 23,8 °C 25,1 °C 55 % 47 % 1023,0 hPa 0,0 l/m² 14,5 km/h (3 Bft) NW 315 ° 1 min 448 W/m² 13,0 °C 23,5 °C 22,5 km/h (4 Bft)
03.07.2025 13:57 23,8 °C 25,0 °C 55 % 46 % 1022,8 hPa 0,0 l/m² 11,3 km/h (2 Bft) NW 315 ° 1 min 448 W/m² 12,6 °C 23,9 °C 20,9 km/h (4 Bft)
03.07.2025 13:58 23,8 °C 25,0 °C 55 % 47 % 1022,9 hPa 0,0 l/m² 11,3 km/h (2 Bft) NW 315 ° 1 min 448 W/m² 12,9 °C 23,9 °C 19,3 km/h (3 Bft)
03.07.2025 13:59 23,8 °C 25,1 °C 55 % 47 % 1022,9 hPa 0,0 l/m² 11,3 km/h (2 Bft) N-NW 337 ° 1 min 448 W/m² 13,0 °C 24,0 °C 22,5 km/h (4 Bft)
03.07.2025 14:00 23,8 °C 25,2 °C 55 % 46 % 1022,9 hPa 0,0 l/m² 12,9 km/h (3 Bft) W 270 ° 1 min 737 W/m² 12,7 °C 23,9 °C 24,1 km/h (4 Bft)
03.07.2025 14:01 23,8 °C 25,1 °C 55 % 45 % 1022,9 hPa 0,0 l/m² 9,7 km/h (2 Bft) NW 315 ° 1 min 737 W/m² 12,3 °C 24,3 °C 17,7 km/h (3 Bft)
03.07.2025 14:02 23,9 °C 25,3 °C 55 % 47 % 1023,0 hPa 0,0 l/m² 8,0 km/h (2 Bft) W-NW 292 ° 1 min 737 W/m² 13,2 °C 24,9 °C 22,5 km/h (4 Bft)
03.07.2025 14:03 23,9 °C 25,4 °C 55 % 46 % 1023,0 hPa 0,0 l/m² 14,5 km/h (3 Bft) W 270 ° 1 min 737 W/m² 12,9 °C 23,9 °C 22,5 km/h (4 Bft)
03.07.2025 14:04 23,8 °C 25,4 °C 55 % 45 % 1022,8 hPa 0,0 l/m² 14,5 km/h (3 Bft) W 270 ° 1 min 737 W/m² 12,6 °C 23,9 °C 17,7 km/h (3 Bft)
03.07.2025 14:05 23,9 °C 25,3 °C 55 % 44 % 1022,9 hPa 0,0 l/m² 14,5 km/h (3 Bft) W-SW 247 ° 1 min 737 W/m² 12,2 °C 23,7 °C 19,3 km/h (3 Bft)
03.07.2025 14:06 23,8 °C 25,3 °C 55 % 45 % 1022,8 hPa 0,0 l/m² 9,7 km/h (2 Bft) W-SW 247 ° 1 min 482 W/m² 12,5 °C 24,6 °C 27,4 km/h (5 Bft)
03.07.2025 14:07 23,9 °C 25,3 °C 55 % 44 % 1022,8 hPa 0,0 l/m² 17,7 km/h (3 Bft) NW 315 ° 1 min 482 W/m² 12,2 °C 23,3 °C 24,1 km/h (4 Bft)
03.07.2025 14:08 23,8 °C 25,3 °C 55 % 46 % 1022,9 hPa 0,0 l/m² 9,7 km/h (2 Bft) W-NW 292 ° 1 min 482 W/m² 12,8 °C 24,6 °C 14,5 km/h (3 Bft)
03.07.2025 14:09 23,9 °C 25,3 °C 55 % 46 % 1022,8 hPa 0,0 l/m² 8,0 km/h (2 Bft) NW 315 ° 1 min 482 W/m² 12,8 °C 24,9 °C 16,1 km/h (3 Bft)
03.07.2025 14:10 23,9 °C 25,4 °C 55 % 44 % 1022,8 hPa 0,0 l/m² 16,1 km/h (3 Bft) W 270 ° 1 min 482 W/m² 12,2 °C 23,6 °C 25,7 km/h (4 Bft)
03.07.2025 14:11 23,9 °C 25,4 °C 55 % 45 % 1022,9 hPa 0,0 l/m² 9,7 km/h (2 Bft) W 270 ° 1 min 645 W/m² 12,6 °C 24,7 °C 19,3 km/h (3 Bft)
03.07.2025 14:12 23,9 °C 25,3 °C 55 % 43 % 1022,9 hPa 0,0 l/m² 14,5 km/h (3 Bft) W 270 ° 1 min 645 W/m² 11,8 °C 23,7 °C 24,1 km/h (4 Bft)
03.07.2025 14:13 23,9 °C 25,3 °C 55 % 44 % 1022,9 hPa 0,0 l/m² 9,7 km/h (2 Bft) W-SW 247 ° 1 min 645 W/m² 12,2 °C 24,6 °C 24,1 km/h (4 Bft)
03.07.2025 14:14 23,9 °C 25,3 °C 55 % 43 % 1022,8 hPa 0,0 l/m² 19,3 km/h (3 Bft) W-SW 247 ° 1 min 645 W/m² 11,8 °C 23,1 °C 32,2 km/h (5 Bft)
03.07.2025 14:15 23,9 °C 25,3 °C 55 % 43 % 1023,0 hPa 0,0 l/m² 19,3 km/h (3 Bft) W 270 ° 1 min 1137 W/m² 11,8 °C 23,1 °C 25,7 km/h (4 Bft)
03.07.2025 14:16 23,9 °C 25,1 °C 55 % 43 % 1023,0 hPa 0,0 l/m² 14,5 km/h (3 Bft) W 270 ° 1 min 1137 W/m² 11,6 °C 23,5 °C 24,1 km/h (4 Bft)
03.07.2025 14:17 23,9 °C 25,0 °C 55 % 45 % 1022,9 hPa 0,0 l/m² 14,5 km/h (3 Bft) W 270 ° 1 min 1137 W/m² 12,2 °C 23,4 °C 30,6 km/h (5 Bft)
03.07.2025 14:18 23,9 °C 24,8 °C 55 % 44 % 1023,0 hPa 0,0 l/m² 12,9 km/h (3 Bft) NW 315 ° 1 min 462 W/m² 11,7 °C 23,4 °C 22,5 km/h (4 Bft)
03.07.2025 14:19 23,9 °C 24,8 °C 55 % 45 % 1023,1 hPa 0,0 l/m² 14,5 km/h (3 Bft) NW 315 ° 1 min 1114 W/m² 12,0 °C 23,1 °C 20,9 km/h (4 Bft)
03.07.2025 14:20 23,9 °C 24,9 °C 55 % 45 % 1023,1 hPa 0,0 l/m² 16,1 km/h (3 Bft) NW 315 ° 1 min 1120 W/m² 12,1 °C 23,0 °C 25,7 km/h (4 Bft)
03.07.2025 14:21 23,9 °C 25,0 °C 55 % 45 % 1023,1 hPa 0,0 l/m² 16,1 km/h (3 Bft) NW 315 ° 1 min 1129 W/m² 12,2 °C 23,2 °C 32,2 km/h (5 Bft)
03.07.2025 14:22 23,9 °C 25,0 °C 55 % 44 % 1023,1 hPa 0,0 l/m² 16,1 km/h (3 Bft) NW 315 ° 1 min 1129 W/m² 11,9 °C 23,2 °C 25,7 km/h (4 Bft)
03.07.2025 14:23 23,9 °C 24,9 °C 55 % 44 % 1023,1 hPa 0,0 l/m² 14,5 km/h (3 Bft) NW 315 ° 1 min 1129 W/m² 11,8 °C 23,3 °C 19,3 km/h (3 Bft)
03.07.2025 14:24 23,9 °C 25,0 °C 55 % 45 % 1023,0 hPa 0,0 l/m² 11,3 km/h (2 Bft) NW 315 ° 1 min 1027 W/m² 12,2 °C 23,9 °C 19,3 km/h (3 Bft)
03.07.2025 14:25 23,9 °C 25,1 °C 55 % 44 % 1023,0 hPa 0,0 l/m² 17,7 km/h (3 Bft) NW 315 ° 1 min 942 W/m² 12,0 °C 23,1 °C 32,2 km/h (5 Bft)
03.07.2025 14:26 23,9 °C 25,1 °C 55 % 44 % 1023,1 hPa 0,0 l/m² 14,5 km/h (3 Bft) W-NW 292 ° 1 min 1014 W/m² 12,0 °C 23,5 °C 24,1 km/h (4 Bft)
03.07.2025 14:27 23,9 °C 25,3 °C 55 % 43 % 1023,0 hPa 0,0 l/m² 11,3 km/h (2 Bft) W-NW 292 ° 1 min 1014 W/m² 11,8 °C 24,3 °C 24,1 km/h (4 Bft)
03.07.2025 14:28 23,9 °C 25,3 °C 55 % 43 % 1023,0 hPa 0,0 l/m² 11,3 km/h (2 Bft) W-NW 292 ° 1 min 1014 W/m² 11,8 °C 24,3 °C 20,9 km/h (4 Bft)
03.07.2025 14:29 23,9 °C 25,3 °C 55 % 42 % 1023,0 hPa 0,0 l/m² 14,5 km/h (3 Bft) W-NW 292 ° 1 min 1002 W/m² 11,5 °C 23,7 °C 29,0 km/h (5 Bft)
03.07.2025 14:30 23,9 °C 25,3 °C 55 % 42 % 1023,1 hPa 0,0 l/m² 12,9 km/h (3 Bft) W 270 ° 1 min 958 W/m² 11,5 °C 24,0 °C 24,1 km/h (4 Bft)
03.07.2025 14:31 23,9 °C 25,3 °C 55 % 43 % 1022,9 hPa 0,0 l/m² 14,5 km/h (3 Bft) W-NW 292 ° 1 min 963 W/m² 11,8 °C 23,7 °C 19,3 km/h (3 Bft)
03.07.2025 14:32 23,9 °C 25,2 °C 55 % 42 % 1023,0 hPa 0,0 l/m² 17,7 km/h (3 Bft) NW 315 ° 1 min 953 W/m² 11,4 °C 23,2 °C 27,4 km/h (5 Bft)
03.07.2025 14:33 23,9 °C 25,2 °C 55 % 42 % 1023,1 hPa 0,0 l/m² 14,5 km/h (3 Bft) NW 315 ° 1 min 947 W/m² 11,4 °C 23,6 °C 19,3 km/h (3 Bft)
03.07.2025 14:34 23,9 °C 25,4 °C 55 % 43 % 1023,0 hPa 0,0 l/m² 12,9 km/h (3 Bft) NW 315 ° 1 min 944 W/m² 11,9 °C 24,1 °C 20,9 km/h (4 Bft)
03.07.2025 14:35 23,9 °C 25,5 °C 55 % 41 % 1023,0 hPa 0,0 l/m² 17,7 km/h (3 Bft) W-NW 292 ° 1 min 939 W/m² 11,3 °C 23,6 °C 25,7 km/h (4 Bft)
03.07.2025 14:36 23,9 °C 25,3 °C 55 % 41 % 1023,1 hPa 0,0 l/m² 11,3 km/h (2 Bft) W 270 ° 1 min 930 W/m² 11,1 °C 24,3 °C 20,9 km/h (4 Bft)
03.07.2025 14:37 23,9 °C 25,3 °C 55 % 41 % 1022,9 hPa 0,0 l/m² 16,1 km/h (3 Bft) W-NW 292 ° 1 min 928 W/m² 11,1 °C 23,5 °C 20,9 km/h (4 Bft)
03.07.2025 14:38 23,9 °C 25,1 °C 55 % 40 % 1022,9 hPa 0,0 l/m² 9,7 km/h (2 Bft) W-NW 292 ° 1 min 923 W/m² 10,5 °C 24,3 °C 17,7 km/h (3 Bft)
03.07.2025 14:39 23,9 °C 25,2 °C 55 % 42 % 1023,0 hPa 0,0 l/m² 9,7 km/h (2 Bft) N 360 ° 1 min 925 W/m² 11,4 °C 24,4 °C 27,4 km/h (5 Bft)
03.07.2025 14:40 23,9 °C 25,2 °C 55 % 41 % 1023,0 hPa 0,0 l/m² 14,5 km/h (3 Bft) NW 315 ° 1 min 930 W/m² 11,0 °C 23,6 °C 25,7 km/h (4 Bft)
03.07.2025 14:41 23,9 °C 25,2 °C 55 % 41 % 1022,9 hPa 0,0 l/m² 12,9 km/h (3 Bft) N-NW 337 ° 1 min 962 W/m² 11,0 °C 23,9 °C 19,3 km/h (3 Bft)
03.07.2025 14:42 23,9 °C 25,2 °C 55 % 40 % 1023,0 hPa 0,0 l/m² 16,1 km/h (3 Bft) NW 315 ° 1 min 962 W/m² 10,6 °C 23,4 °C 24,1 km/h (4 Bft)
03.07.2025 14:43 23,9 °C 25,2 °C 55 % 41 % 1023,0 hPa 0,0 l/m² 12,9 km/h (3 Bft) N-NW 337 ° 1 min 962 W/m² 11,0 °C 23,9 °C 22,5 km/h (4 Bft)
03.07.2025 14:44 23,9 °C 25,1 °C 55 % 41 % 1023,0 hPa 0,0 l/m² 14,5 km/h (3 Bft) NW 315 ° 1 min 962 W/m² 10,9 °C 23,5 °C 24,1 km/h (4 Bft)
03.07.2025 14:45 23,9 °C 24,9 °C 55 % 42 % 1023,0 hPa 0,0 l/m² 12,9 km/h (3 Bft) N-NW 337 ° 1 min 443 W/m² 11,1 °C 23,5 °C 19,3 km/h (3 Bft)
03.07.2025 14:46 23,9 °C 24,8 °C 55 % 41 % 1023,2 hPa 0,0 l/m² 16,1 km/h (3 Bft) N-NW 337 ° 1 min 369 W/m² 10,6 °C 22,9 °C 30,6 km/h (5 Bft)
03.07.2025 14:47 23,9 °C 24,6 °C 54 % 41 % 1023,1 hPa 0,0 l/m² 14,5 km/h (3 Bft) NW 315 ° 1 min 353 W/m² 10,5 °C 22,9 °C 19,3 km/h (3 Bft)
03.07.2025 14:48 23,9 °C 24,4 °C 54 % 42 % 1023,0 hPa 0,0 l/m² 12,9 km/h (3 Bft) W-NW 292 ° 1 min 325 W/m² 10,6 °C 22,9 °C 19,3 km/h (3 Bft)
03.07.2025 14:49 23,9 °C 24,3 °C 54 % 42 % 1023,0 hPa 0,0 l/m² 16,1 km/h (3 Bft) NW 315 ° 1 min 325 W/m² 10,6 °C 22,3 °C 22,5 km/h (4 Bft)
03.07.2025 14:50 23,9 °C 24,4 °C 54 % 43 % 1023,1 hPa 0,0 l/m² 11,3 km/h (2 Bft) W-NW 292 ° 1 min 325 W/m² 11,0 °C 23,2 °C 24,1 km/h (4 Bft)
03.07.2025 14:51 23,9 °C 24,7 °C 54 % 42 % 1023,1 hPa 0,0 l/m² 11,3 km/h (2 Bft) NW 315 ° 1 min 1049 W/m² 10,9 °C 23,6 °C 20,9 km/h (4 Bft)
03.07.2025 14:52 23,9 °C 25,1 °C 54 % 42 % 1023,1 hPa 0,0 l/m² 11,3 km/h (2 Bft) W-NW 292 ° 1 min 1049 W/m² 11,3 °C 24,0 °C 16,1 km/h (3 Bft)
03.07.2025 14:53 23,9 °C 25,3 °C 54 % 40 % 1023,1 hPa 0,0 l/m² 12,9 km/h (3 Bft) W 270 ° 1 min 244 W/m² 10,7 °C 24,0 °C 19,3 km/h (3 Bft)
03.07.2025 14:54 23,9 °C 25,1 °C 54 % 39 % 1023,2 hPa 0,0 l/m² 12,9 km/h (3 Bft) W 270 ° 1 min 341 W/m² 10,2 °C 23,8 °C 22,5 km/h (4 Bft)
03.07.2025 14:55 23,9 °C 24,8 °C 54 % 39 % 1023,1 hPa 0,0 l/m² 16,1 km/h (3 Bft) W-NW 292 ° 1 min 341 W/m² 9,9 °C 22,9 °C 22,5 km/h (4 Bft)
03.07.2025 14:56 23,9 °C 24,7 °C 54 % 40 % 1023,1 hPa 0,0 l/m² 9,7 km/h (2 Bft) W-NW 292 ° 1 min 963 W/m² 10,2 °C 23,9 °C 20,9 km/h (4 Bft)
03.07.2025 14:57 23,9 °C 24,8 °C 54 % 39 % 1023,1 hPa 0,0 l/m² 8,0 km/h (2 Bft) W 270 ° 1 min 995 W/m² 9,9 °C 24,4 °C 16,1 km/h (3 Bft)
03.07.2025 14:58 23,9 °C 24,8 °C 54 % 40 % 1023,0 hPa 0,0 l/m² 9,7 km/h (2 Bft) NW 315 ° 1 min 1023 W/m² 10,3 °C 24,0 °C 20,9 km/h (4 Bft)
03.07.2025 14:59 23,9 °C 25,1 °C 54 % 41 % 1023,1 hPa 0,0 l/m² 11,3 km/h (2 Bft) NW 315 ° 1 min 1023 W/m² 10,9 °C 24,0 °C 16,1 km/h (3 Bft)
03.07.2025 15:00 23,9 °C 25,3 °C 54 % 40 % 1023,0 hPa 0,0 l/m² 8,0 km/h (2 Bft) NW 315 ° 1 min 911 W/m² 10,7 °C 24,9 °C 12,9 km/h (3 Bft)
03.07.2025 15:01 23,9 °C 25,6 °C 54 % 40 % 1023,0 hPa 0,0 l/m² 8,0 km/h (2 Bft) NW 315 ° 1 min 911 W/m² 11,0 °C 25,2 °C 14,5 km/h (3 Bft)
03.07.2025 15:02 23,9 °C 25,7 °C 54 % 40 % 1023,0 hPa 0,0 l/m² 8,0 km/h (2 Bft) W-NW 292 ° 1 min 911 W/m² 11,1 °C 25,3 °C 24,1 km/h (4 Bft)
03.07.2025 15:03 23,9 °C 25,7 °C 54 % 39 % 1023,1 hPa 0,0 l/m² 14,5 km/h (3 Bft) NW 315 ° 1 min 911 W/m² 10,7 °C 24,2 °C 20,9 km/h (4 Bft)
03.07.2025 15:04 23,9 °C 25,7 °C 54 % 41 % 1023,1 hPa 0,0 l/m² 11,3 km/h (2 Bft) W-SW 247 ° 1 min 911 W/m² 11,4 °C 24,7 °C 25,7 km/h (4 Bft)
03.07.2025 15:05 23,9 °C 25,6 °C 54 % 39 % 1023,0 hPa 0,0 l/m² 14,5 km/h (3 Bft) W 270 ° 1 min 911 W/m² 10,6 °C 24,1 °C 22,5 km/h (4 Bft)
03.07.2025 15:06 23,9 °C 25,3 °C 54 % 40 % 1023,1 hPa 0,0 l/m² 9,7 km/h (2 Bft) NW 315 ° 1 min 178 W/m² 10,7 °C 24,6 °C 22,5 km/h (4 Bft)
03.07.2025 15:07 23,9 °C 25,1 °C 54 % 41 % 1023,1 hPa 0,0 l/m² 14,5 km/h (3 Bft) W-NW 292 ° 1 min 192 W/m² 10,9 °C 23,5 °C 22,5 km/h (4 Bft)
03.07.2025 15:08 23,9 °C 24,8 °C 54 % 41 % 1023,2 hPa 0,0 l/m² 16,1 km/h (3 Bft) W 270 ° 1 min 274 W/m² 10,6 °C 22,9 °C 24,1 km/h (4 Bft)
03.07.2025 15:09 23,9 °C 24,6 °C 54 % 41 % 1023,1 hPa 0,0 l/m² 14,5 km/h (3 Bft) W-NW 292 ° 1 min 271 W/m² 10,5 °C 22,9 °C 25,7 km/h (4 Bft)
03.07.2025 15:10 23,9 °C 24,5 °C 54 % 43 % 1023,0 hPa 0,0 l/m² 12,9 km/h (3 Bft) W-NW 292 ° 1 min 925 W/m² 11,1 °C 23,0 °C 19,3 km/h (3 Bft)
03.07.2025 15:11 23,9 °C 24,6 °C 54 % 42 % 1023,1 hPa 0,0 l/m² 12,9 km/h (3 Bft) W-NW 292 ° 1 min 911 W/m² 10,8 °C 23,2 °C 25,7 km/h (4 Bft)
03.07.2025 15:12 23,9 °C 24,8 °C 54 % 42 % 1023,0 hPa 0,0 l/m² 12,9 km/h (3 Bft) W 270 ° 1 min 895 W/m² 11,0 °C 23,4 °C 20,9 km/h (4 Bft)
03.07.2025 15:13 23,9 °C 25,1 °C 54 % 42 % 1023,2 hPa 0,0 l/m² 14,5 km/h (3 Bft) W 270 ° 1 min 902 W/m² 11,3 °C 23,5 °C 20,9 km/h (4 Bft)
03.07.2025 15:14 23,9 °C 25,3 °C 54 % 41 % 1023,2 hPa 0,0 l/m² 12,9 km/h (3 Bft) W 270 ° 1 min 914 W/m² 11,1 °C 24,0 °C 20,9 km/h (4 Bft)
03.07.2025 15:15 23,9 °C 25,4 °C 54 % 41 % 1023,1 hPa 0,0 l/m² 11,3 km/h (2 Bft) W-NW 292 ° 1 min 916 W/m² 11,2 °C 24,4 °C 19,3 km/h (3 Bft)
03.07.2025 15:16 23,9 °C 25,6 °C 54 % 40 % 1023,1 hPa 0,0 l/m² 12,9 km/h (3 Bft) NW 315 ° 1 min 893 W/m² 11,0 °C 24,3 °C 24,1 km/h (4 Bft)
03.07.2025 15:17 23,9 °C 25,8 °C 54 % 41 % 1023,1 hPa 0,0 l/m² 6,4 km/h (2 Bft) W-SW 247 ° 1 min 870 W/m² 11,5 °C 25,8 °C 17,7 km/h (3 Bft)
03.07.2025 15:18 23,9 °C 26,0 °C 54 % 40 % 1023,1 hPa 0,0 l/m² 4,8 km/h (1 Bft) W-NW 292 ° 1 min 865 W/m² 11,3 °C 26,0 °C 12,9 km/h (3 Bft)
03.07.2025 15:19 23,9 °C 26,2 °C 54 % 41 % 1023,1 hPa 0,0 l/m² 12,9 km/h (3 Bft) W 270 ° 1 min 858 W/m² 11,9 °C 25,0 °C 22,5 km/h (4 Bft)
03.07.2025 15:20 23,9 °C 26,2 °C 54 % 39 % 1023,0 hPa 0,0 l/m² 12,9 km/h (3 Bft) NW 315 ° 1 min 854 W/m² 11,1 °C 25,0 °C 22,5 km/h (4 Bft)
03.07.2025 15:21 23,9 °C 26,1 °C 54 % 39 % 1023,1 hPa 0,0 l/m² 14,5 km/h (3 Bft) N-NW 337 ° 1 min 847 W/m² 11,0 °C 24,7 °C 25,7 km/h (4 Bft)
03.07.2025 15:22 23,9 °C 26,1 °C 54 % 39 % 1023,1 hPa 0,0 l/m² 11,3 km/h (2 Bft) N 360 ° 1 min 851 W/m² 11,0 °C 25,2 °C 19,3 km/h (3 Bft)
03.07.2025 15:23 23,9 °C 26,2 °C 54 % 40 % 1023,1 hPa 0,0 l/m² 14,5 km/h (3 Bft) N-NW 337 ° 1 min 847 W/m² 11,5 °C 24,8 °C 22,5 km/h (4 Bft)
03.07.2025 15:24 23,9 °C 26,2 °C 54 % 39 % 1023,1 hPa 0,0 l/m² 11,3 km/h (2 Bft) NW 315 ° 1 min 847 W/m² 11,1 °C 25,3 °C 17,7 km/h (3 Bft)
03.07.2025 15:25 23,9 °C 26,1 °C 54 % 38 % 1023,1 hPa 0,0 l/m² 12,9 km/h (3 Bft) W-NW 292 ° 1 min 847 W/m² 10,7 °C 24,9 °C 25,7 km/h (4 Bft)
03.07.2025 15:26 23,9 °C 26,1 °C 54 % 39 % 1023,0 hPa 0,0 l/m² 14,5 km/h (3 Bft) W-SW 247 ° 1 min 844 W/m² 11,0 °C 24,7 °C 25,7 km/h (4 Bft)
03.07.2025 15:27 23,9 °C 25,9 °C 54 % 39 % 1023,1 hPa 0,0 l/m² 11,3 km/h (2 Bft) W 270 ° 1 min 837 W/m² 10,9 °C 24,9 °C 16,1 km/h (3 Bft)
03.07.2025 15:28 23,9 °C 25,8 °C 54 % 39 % 1023,0 hPa 0,0 l/m² 16,1 km/h (3 Bft) W-NW 292 ° 1 min 833 W/m² 10,8 °C 24,1 °C 29,0 km/h (5 Bft)
03.07.2025 15:29 23,9 °C 25,8 °C 54 % 40 % 1023,1 hPa 0,0 l/m² 16,1 km/h (3 Bft) W 270 ° 1 min 824 W/m² 11,2 °C 24,1 °C 27,4 km/h (5 Bft)
03.07.2025 15:30 23,9 °C 25,7 °C 54 % 39 % 1023,1 hPa 0,0 l/m² 16,1 km/h (3 Bft) W-NW 292 ° 1 min 824 W/m² 10,7 °C 24,0 °C 25,7 km/h (4 Bft)
03.07.2025 15:31 23,9 °C 25,6 °C 54 % 40 % 1023,1 hPa 0,0 l/m² 12,9 km/h (3 Bft) NW 315 ° 1 min 828 W/m² 11,0 °C 24,3 °C 19,3 km/h (3 Bft)
03.07.2025 15:32 23,9 °C 25,7 °C 54 % 41 % 1023,2 hPa 0,0 l/m² 11,3 km/h (2 Bft) NW 315 ° 1 min 824 W/m² 11,4 °C 24,7 °C 16,1 km/h (3 Bft)
03.07.2025 15:33 23,9 °C 25,8 °C 55 % 39 % 1023,1 hPa 0,0 l/m² 12,9 km/h (3 Bft) W 270 ° 1 min 828 W/m² 10,8 °C 24,6 °C 24,1 km/h (4 Bft)
03.07.2025 15:34 23,9 °C 25,7 °C 55 % 40 % 1023,1 hPa 0,0 l/m² 9,7 km/h (2 Bft) W-NW 292 ° 1 min 824 W/m² 11,1 °C 25,0 °C 17,7 km/h (3 Bft)
03.07.2025 15:35 23,9 °C 25,8 °C 55 % 40 % 1023,1 hPa 0,0 l/m² 17,7 km/h (3 Bft) W 270 ° 1 min 816 W/m² 11,2 °C 23,9 °C 25,7 km/h (4 Bft)
03.07.2025 15:36 23,9 °C 25,8 °C 55 % 39 % 1023,1 hPa 0,0 l/m² 9,7 km/h (2 Bft) W-NW 292 ° 1 min 814 W/m² 10,8 °C 25,1 °C 20,9 km/h (4 Bft)
03.07.2025 15:37 23,9 °C 25,8 °C 55 % 39 % 1023,1 hPa 0,0 l/m² 16,1 km/h (3 Bft) W-NW 292 ° 1 min 814 W/m² 10,8 °C 24,1 °C 25,7 km/h (4 Bft)
03.07.2025 15:38 24,0 °C 25,8 °C 55 % 40 % 1023,1 hPa 0,0 l/m² 12,9 km/h (3 Bft) W-NW 292 ° 1 min 810 W/m² 11,2 °C 24,6 °C 30,6 km/h (5 Bft)
03.07.2025 15:39 24,0 °C 25,8 °C 55 % 40 % 1023,1 hPa 0,0 l/m² 11,3 km/h (2 Bft) W-SW 247 ° 1 min 807 W/m² 11,2 °C 24,8 °C 27,4 km/h (5 Bft)
03.07.2025 15:40 24,0 °C 25,8 °C 55 % 40 % 1023,2 hPa 0,0 l/m² 12,9 km/h (3 Bft) NW 315 ° 1 min 807 W/m² 11,2 °C 24,6 °C 22,5 km/h (4 Bft)
03.07.2025 15:41 24,0 °C 25,9 °C 55 % 41 % 1023,1 hPa 0,0 l/m² 11,3 km/h (2 Bft) NW 315 ° 1 min 814 W/m² 11,6 °C 24,9 °C 17,7 km/h (3 Bft)
03.07.2025 15:42 24,0 °C 25,9 °C 55 % 40 % 1023,2 hPa 0,0 l/m² 11,3 km/h (2 Bft) N-NW 337 ° 1 min 812 W/m² 11,3 °C 24,9 °C 19,3 km/h (3 Bft)
03.07.2025 15:43 24,0 °C 25,9 °C 55 % 40 % 1023,1 hPa 0,0 l/m² 14,5 km/h (3 Bft) NW 315 ° 1 min 816 W/m² 11,3 °C 24,5 °C 19,3 km/h (3 Bft)
03.07.2025 15:44 24,1 °C 25,9 °C 55 % 40 % 1023,0 hPa 0,0 l/m² 12,9 km/h (3 Bft) NW 315 ° 1 min 814 W/m² 11,3 °C 24,7 °C 25,7 km/h (4 Bft)
03.07.2025 15:45 24,1 °C 26,0 °C 55 % 39 % 1023,1 hPa 0,0 l/m² 16,1 km/h (3 Bft) W 270 ° 1 min 812 W/m² 11,0 °C 24,4 °C 32,2 km/h (5 Bft)
03.07.2025 15:46 24,1 °C 26,1 °C 55 % 39 % 1023,1 hPa 0,0 l/m² 14,5 km/h (3 Bft) NW 315 ° 1 min 812 W/m² 11,0 °C 24,7 °C 25,7 km/h (4 Bft)
03.07.2025 15:47 24,1 °C 26,1 °C 55 % 39 % 1023,1 hPa 0,0 l/m² 8,0 km/h (2 Bft) W-NW 292 ° 1 min 807 W/m² 11,0 °C 25,8 °C 22,5 km/h (4 Bft)
03.07.2025 15:48 24,1 °C 26,1 °C 55 % 38 % 1023,1 hPa 0,0 l/m² 8,0 km/h (2 Bft) NW 315 ° 1 min 802 W/m² 10,7 °C 25,8 °C 16,1 km/h (3 Bft)
03.07.2025 15:49 24,1 °C 26,1 °C 55 % 40 % 1023,1 hPa 0,0 l/m² 6,4 km/h (2 Bft) W-NW 292 ° 1 min 796 W/m² 11,4 °C 26,1 °C 12,9 km/h (3 Bft)
03.07.2025 15:50 24,1 °C 26,3 °C 55 % 39 % 1023,2 hPa 0,0 l/m² 11,3 km/h (2 Bft) NW 315 ° 1 min 795 W/m² 11,2 °C 25,4 °C 17,7 km/h (3 Bft)
03.07.2025 15:51 24,1 °C 26,3 °C 55 % 38 % 1023,2 hPa 0,0 l/m² 12,9 km/h (3 Bft) W-NW 292 ° 1 min 791 W/m² 10,8 °C 25,2 °C 19,3 km/h (3 Bft)
03.07.2025 15:52 24,1 °C 26,3 °C 55 % 38 % 1023,2 hPa 0,0 l/m² 14,5 km/h (3 Bft) N-NW 337 ° 1 min 789 W/m² 10,8 °C 24,9 °C 20,9 km/h (4 Bft)
03.07.2025 15:53 24,1 °C 26,2 °C 55 % 38 % 1023,1 hPa 0,0 l/m² 11,3 km/h (2 Bft) W-NW 292 ° 1 min 788 W/m² 10,7 °C 25,3 °C 17,7 km/h (3 Bft)
03.07.2025 15:54 24,1 °C 26,3 °C 54 % 39 % 1023,2 hPa 0,0 l/m² 8,0 km/h (2 Bft) N-NW 337 ° 1 min 788 W/m² 11,2 °C 26,0 °C 14,5 km/h (3 Bft)
03.07.2025 15:55 24,1 °C 26,4 °C 54 % 39 % 1023,1 hPa 0,0 l/m² 8,0 km/h (2 Bft) W-NW 292 ° 1 min 782 W/m² 11,3 °C 26,1 °C 19,3 km/h (3 Bft)
03.07.2025 15:56 24,1 °C 26,4 °C 54 % 38 % 1023,2 hPa 0,0 l/m² 12,9 km/h (3 Bft) W 270 ° 1 min 782 W/m² 10,9 °C 25,3 °C 20,9 km/h (4 Bft)
03.07.2025 15:57 24,1 °C 26,3 °C 54 % 37 % 1023,1 hPa 0,0 l/m² 11,3 km/h (2 Bft) W-NW 292 ° 1 min 780 W/m² 10,4 °C 25,4 °C 22,5 km/h (4 Bft)
03.07.2025 15:58 24,2 °C 26,2 °C 54 % 38 % 1023,1 hPa 0,0 l/m² 9,7 km/h (2 Bft) W-NW 292 ° 1 min 777 W/m² 10,7 °C 25,5 °C 17,7 km/h (3 Bft)
03.07.2025 15:59 24,1 °C 26,3 °C 54 % 40 % 1023,1 hPa 0,0 l/m² 14,5 km/h (3 Bft) NW 315 ° 1 min 775 W/m² 11,6 °C 24,9 °C 29,0 km/h (5 Bft)
03.07.2025 16:00 24,1 °C 26,2 °C 54 % 38 % 1023,1 hPa 0,0 l/m² 12,9 km/h (3 Bft) W-NW 292 ° 1 min 773 W/m² 10,7 °C 25,0 °C 22,5 km/h (4 Bft)
03.07.2025 16:01 24,2 °C 26,2 °C 54 % 38 % 1023,2 hPa 0,0 l/m² 11,3 km/h (2 Bft) W 270 ° 1 min 772 W/m² 10,7 °C 25,3 °C 19,3 km/h (3 Bft)
03.07.2025 16:02 24,2 °C 26,0 °C 54 % 38 % 1023,2 hPa 0,0 l/m² 14,5 km/h (3 Bft) W 270 ° 1 min 772 W/m² 10,6 °C 24,6 °C 17,7 km/h (3 Bft)
03.07.2025 16:03 24,2 °C 25,7 °C 54 % 39 % 1023,2 hPa 0,0 l/m² 12,9 km/h (3 Bft) W 270 ° 1 min 773 W/m² 10,7 °C 24,5 °C 20,9 km/h (4 Bft)
03.07.2025 16:04 24,2 °C 25,7 °C 54 % 40 % 1023,2 hPa 0,0 l/m² 11,3 km/h (2 Bft) W-NW 292 ° 1 min 772 W/m² 11,1 °C 24,7 °C 25,7 km/h (4 Bft)
03.07.2025 16:05 24,2 °C 25,7 °C 54 % 40 % 1023,2 hPa 0,0 l/m² 11,3 km/h (2 Bft) W-NW 292 ° 1 min 775 W/m² 11,1 °C 24,7 °C 19,3 km/h (3 Bft)
03.07.2025 16:06 24,2 °C 25,8 °C 54 % 40 % 1023,3 hPa 0,0 l/m² 14,5 km/h (3 Bft) W-NW 292 ° 1 min 770 W/m² 11,2 °C 24,3 °C 30,6 km/h (5 Bft)
03.07.2025 16:07 24,2 °C 25,8 °C 54 % 40 % 1023,2 hPa 0,0 l/m² 12,9 km/h (3 Bft) NW 315 ° 1 min 765 W/m² 11,2 °C 24,6 °C 19,3 km/h (3 Bft)
03.07.2025 16:08 24,2 °C 25,8 °C 54 % 41 % 1023,2 hPa 0,0 l/m² 11,3 km/h (2 Bft) NW 315 ° 1 min 761 W/m² 11,5 °C 24,8 °C 19,3 km/h (3 Bft)
03.07.2025 16:09 24,2 °C 25,8 °C 54 % 40 % 1023,2 hPa 0,0 l/m² 12,9 km/h (3 Bft) W-NW 292 ° 1 min 751 W/m² 11,2 °C 24,6 °C 24,1 km/h (4 Bft)
03.07.2025 16:10 24,2 °C 25,7 °C 54 % 40 % 1023,2 hPa 0,0 l/m² 12,9 km/h (3 Bft) W-NW 292 ° 1 min 745 W/m² 11,1 °C 24,5 °C 25,7 km/h (4 Bft)
03.07.2025 16:11 24,2 °C 25,7 °C 54 % 40 % 1023,3 hPa 0,0 l/m² 9,7 km/h (2 Bft) W-NW 292 ° 1 min 744 W/m² 11,1 °C 25,0 °C 19,3 km/h (3 Bft)
03.07.2025 16:12 24,2 °C 25,7 °C 54 % 39 % 1023,3 hPa 0,0 l/m² 14,5 km/h (3 Bft) W-NW 292 ° 1 min 747 W/m² 10,7 °C 24,2 °C 25,7 km/h (4 Bft)
03.07.2025 16:13 24,2 °C 25,7 °C 54 % 40 % 1023,2 hPa 0,0 l/m² 14,5 km/h (3 Bft) NW 315 ° 1 min 742 W/m² 11,1 °C 24,2 °C 24,1 km/h (4 Bft)
03.07.2025 16:14 24,2 °C 25,6 °C 54 % 40 % 1023,2 hPa 0,0 l/m² 9,7 km/h (2 Bft) W 270 ° 1 min 742 W/m² 11,0 °C 24,9 °C 16,1 km/h (3 Bft)
03.07.2025 16:15 24,2 °C 25,6 °C 54 % 41 % 1023,3 hPa 0,0 l/m² 11,3 km/h (2 Bft) W-NW 292 ° 1 min 738 W/m² 11,4 °C 24,6 °C 20,9 km/h (4 Bft)
03.07.2025 16:16 24,2 °C 25,7 °C 54 % 40 % 1023,2 hPa 0,0 l/m² 8,0 km/h (2 Bft) SW 225 ° 1 min 731 W/m² 11,1 °C 25,3 °C 14,5 km/h (3 Bft)
03.07.2025 16:17 24,2 °C 25,7 °C 54 % 40 % 1023,2 hPa 0,0 l/m² 14,5 km/h (3 Bft) NW 315 ° 1 min 731 W/m² 11,1 °C 24,2 °C 20,9 km/h (4 Bft)
03.07.2025 16:18 24,2 °C 25,7 °C 54 % 40 % 1023,2 hPa 0,0 l/m² 9,7 km/h (2 Bft) W-NW 292 ° 1 min 728 W/m² 11,1 °C 25,0 °C 20,9 km/h (4 Bft)
03.07.2025 16:19 24,2 °C 25,8 °C 54 % 40 % 1023,2 hPa 0,0 l/m² 11,3 km/h (2 Bft) W 270 ° 1 min 728 W/m² 11,2 °C 24,8 °C 27,4 km/h (5 Bft)
03.07.2025 16:20 24,2 °C 25,8 °C 54 % 39 % 1023,2 hPa 0,0 l/m² 16,1 km/h (3 Bft) W 270 ° 1 min 724 W/m² 10,8 °C 24,1 °C 24,1 km/h (4 Bft)
03.07.2025 16:21 24,2 °C 25,7 °C 53 % 38 % 1023,1 hPa 0,0 l/m² 19,3 km/h (3 Bft) W 270 ° 1 min 722 W/m² 10,3 °C 23,6 °C 25,7 km/h (4 Bft)
03.07.2025 16:22 24,2 °C 25,6 °C 53 % 39 % 1023,2 hPa 0,0 l/m² 16,1 km/h (3 Bft) W-NW 292 ° 1 min 721 W/m² 10,6 °C 23,9 °C 25,7 km/h (4 Bft)
03.07.2025 16:23 24,2 °C 25,6 °C 53 % 40 % 1023,3 hPa 0,0 l/m² 12,9 km/h (3 Bft) NW 315 ° 1 min 719 W/m² 11,0 °C 24,3 °C 16,1 km/h (3 Bft)
03.07.2025 16:24 24,2 °C 25,6 °C 53 % 39 % 1023,3 hPa 0,0 l/m² 12,9 km/h (3 Bft) W 270 ° 1 min 721 W/m² 10,6 °C 24,3 °C 25,7 km/h (4 Bft)
03.07.2025 16:25 24,2 °C 25,5 °C 53 % 39 % 1023,2 hPa 0,0 l/m² 11,3 km/h (2 Bft) W 270 ° 1 min 717 W/m² 10,5 °C 24,5 °C 19,3 km/h (3 Bft)
03.07.2025 16:26 24,2 °C 25,6 °C 53 % 40 % 1023,2 hPa 0,0 l/m² 6,4 km/h (2 Bft) W-NW 292 ° 1 min 714 W/m² 11,0 °C 25,6 °C 12,9 km/h (3 Bft)
03.07.2025 16:27 24,2 °C 25,7 °C 53 % 40 % 1023,2 hPa 0,0 l/m² 9,7 km/h (2 Bft) W-NW 292 ° 1 min 712 W/m² 11,1 °C 25,0 °C 16,1 km/h (3 Bft)
03.07.2025 16:28 24,1 °C 25,7 °C 52 % 40 % 1023,2 hPa 0,0 l/m² 11,3 km/h (2 Bft) W-NW 292 ° 1 min 708 W/m² 11,1 °C 24,7 °C 22,5 km/h (4 Bft)
03.07.2025 16:29 24,1 °C 25,7 °C 52 % 39 % 1023,2 hPa 0,0 l/m² 14,5 km/h (3 Bft) NW 315 ° 1 min 705 W/m² 10,7 °C 24,2 °C 27,4 km/h (5 Bft)
03.07.2025 16:30 24,1 °C 25,7 °C 52 % 38 % 1023,3 hPa 0,0 l/m² 16,1 km/h (3 Bft) NW 315 ° 1 min 705 W/m² 10,3 °C 24,0 °C 24,1 km/h (4 Bft)
03.07.2025 16:31 24,1 °C 25,7 °C 52 % 40 % 1023,3 hPa 0,0 l/m² 11,3 km/h (2 Bft) NW 315 ° 1 min 701 W/m² 11,1 °C 24,7 °C 22,5 km/h (4 Bft)
03.07.2025 16:32 24,1 °C 25,6 °C 52 % 39 % 1023,3 hPa 0,0 l/m² 12,9 km/h (3 Bft) W-NW 292 ° 1 min 701 W/m² 10,6 °C 24,3 °C 19,3 km/h (3 Bft)
03.07.2025 16:33 24,1 °C 25,6 °C 52 % 40 % 1023,4 hPa 0,0 l/m² 16,1 km/h (3 Bft) NW 315 ° 1 min 694 W/m² 11,0 °C 23,9 °C 22,5 km/h (4 Bft)
03.07.2025 16:34 24,1 °C 25,6 °C 51 % 40 % 1023,4 hPa 0,0 l/m² 11,3 km/h (2 Bft) NW 315 ° 1 min 694 W/m² 11,0 °C 24,6 °C 19,3 km/h (3 Bft)
03.07.2025 16:35 24,1 °C 25,5 °C 51 % 39 % 1023,3 hPa 0,0 l/m² 8,0 km/h (2 Bft) NW 315 ° 1 min 686 W/m² 10,5 °C 25,1 °C 17,7 km/h (3 Bft)
03.07.2025 16:36 24,1 °C 25,5 °C 50 % 40 % 1023,3 hPa 0,0 l/m² 9,7 km/h (2 Bft) W 270 ° 1 min 689 W/m² 10,9 °C 24,8 °C 16,1 km/h (3 Bft)
03.07.2025 16:37 24,1 °C 25,6 °C 50 % 40 % 1023,3 hPa 0,0 l/m² 12,9 km/h (3 Bft) W-NW 292 ° 1 min 687 W/m² 11,0 °C 24,3 °C 22,5 km/h (4 Bft)
03.07.2025 16:38 24,1 °C 25,6 °C 50 % 40 % 1023,3 hPa 0,0 l/m² 11,3 km/h (2 Bft) W 270 ° 1 min 686 W/m² 11,0 °C 24,6 °C 17,7 km/h (3 Bft)
03.07.2025 16:39 24,1 °C 25,7 °C 50 % 40 % 1023,4 hPa 0,0 l/m² 17,7 km/h (3 Bft) N-NW 337 ° 1 min 679 W/m² 11,1 °C 23,8 °C 25,7 km/h (4 Bft)
03.07.2025 16:40 24,1 °C 25,6 °C 50 % 40 % 1023,4 hPa 0,0 l/m² 16,1 km/h (3 Bft) N-NW 337 ° 1 min 673 W/m² 11,0 °C 23,9 °C 20,9 km/h (4 Bft)
03.07.2025 16:41 24,1 °C 25,6 °C 50 % 40 % 1023,3 hPa 0,0 l/m² 11,3 km/h (2 Bft) W-NW 292 ° 1 min 677 W/m² 11,0 °C 24,6 °C 20,9 km/h (4 Bft)
03.07.2025 16:42 24,1 °C 25,6 °C 49 % 40 % 1023,4 hPa 0,0 l/m² 12,9 km/h (3 Bft) W 270 ° 1 min 673 W/m² 11,0 °C 24,3 °C 20,9 km/h (4 Bft)
03.07.2025 16:43 24,1 °C 25,6 °C 49 % 40 % 1023,4 hPa 0,0 l/m² 14,5 km/h (3 Bft) NW 315 ° 1 min 671 W/m² 11,0 °C 24,1 °C 27,4 km/h (5 Bft)
03.07.2025 16:44 24,1 °C 25,6 °C 49 % 40 % 1023,4 hPa 0,0 l/m² 17,7 km/h (3 Bft) NW 315 ° 1 min 670 W/m² 11,0 °C 23,7 °C 24,1 km/h (4 Bft)
03.07.2025 16:45 24,0 °C 25,6 °C 49 % 40 % 1023,4 hPa 0,0 l/m² 9,7 km/h (2 Bft) W-NW 292 ° 1 min 668 W/m² 11,0 °C 24,9 °C 17,7 km/h (3 Bft)
03.07.2025 16:46 24,1 °C 25,7 °C 49 % 41 % 1023,5 hPa 0,0 l/m² 19,3 km/h (3 Bft) N-NW 337 ° 1 min 664 W/m² 11,4 °C 23,6 °C 30,6 km/h (5 Bft)
03.07.2025 16:47 24,1 °C 25,6 °C 49 % 40 % 1023,5 hPa 0,0 l/m² 14,5 km/h (3 Bft) NW 315 ° 1 min 663 W/m² 11,0 °C 24,1 °C 24,1 km/h (4 Bft)
03.07.2025 16:48 24,1 °C 25,6 °C 49 % 40 % 1023,4 hPa 0,0 l/m² 9,7 km/h (2 Bft) W-NW 292 ° 1 min 661 W/m² 11,0 °C 24,9 °C 14,5 km/h (3 Bft)
03.07.2025 16:49 24,1 °C 25,6 °C 49 % 41 % 1023,4 hPa 0,0 l/m² 12,9 km/h (3 Bft) NW 315 ° 1 min 656 W/m² 11,4 °C 24,3 °C 20,9 km/h (4 Bft)
03.07.2025 16:50 24,1 °C 25,6 °C 48 % 40 % 1023,4 hPa 0,0 l/m² 17,7 km/h (3 Bft) W-NW 292 ° 1 min 652 W/m² 11,0 °C 23,7 °C 25,7 km/h (4 Bft)
03.07.2025 16:51 24,1 °C 25,5 °C 48 % 40 % 1023,3 hPa 0,0 l/m² 12,9 km/h (3 Bft) NW 315 ° 1 min 652 W/m² 10,9 °C 24,2 °C 17,7 km/h (3 Bft)
03.07.2025 16:52 24,1 °C 25,4 °C 49 % 40 % 1023,4 hPa 0,0 l/m² 17,7 km/h (3 Bft) NW 315 ° 1 min 649 W/m² 10,8 °C 23,4 °C 24,1 km/h (4 Bft)
03.07.2025 16:53 24,1 °C 25,4 °C 49 % 40 % 1023,4 hPa 0,0 l/m² 12,9 km/h (3 Bft) NW 315 ° 1 min 649 W/m² 10,8 °C 24,1 °C 22,5 km/h (4 Bft)
03.07.2025 16:54 24,1 °C 25,5 °C 49 % 40 % 1023,4 hPa 0,0 l/m² 11,3 km/h (2 Bft) NW 315 ° 1 min 650 W/m² 10,9 °C 24,5 °C 17,7 km/h (3 Bft)
03.07.2025 16:55 24,0 °C 25,5 °C 49 % 40 % 1023,4 hPa 0,0 l/m² 9,7 km/h (2 Bft) N-NW 337 ° 1 min 652 W/m² 10,9 °C 24,8 °C 14,5 km/h (3 Bft)
03.07.2025 16:56 24,1 °C 25,3 °C 49 % 40 % 1023,4 hPa 0,0 l/m² 8,0 km/h (2 Bft) N-NW 337 ° 1 min 657 W/m² 10,7 °C 24,9 °C 16,1 km/h (3 Bft)
03.07.2025 16:57 24,0 °C 25,3 °C 49 % 40 % 1023,3 hPa 0,0 l/m² 11,3 km/h (2 Bft) NW 315 ° 1 min 654 W/m² 10,7 °C 24,3 °C 17,7 km/h (3 Bft)
03.07.2025 16:58 24,0 °C 25,2 °C 49 % 40 % 1023,3 hPa 0,0 l/m² 8,0 km/h (2 Bft) N-NW 337 ° 1 min 645 W/m² 10,6 °C 24,8 °C 12,9 km/h (3 Bft)
03.07.2025 16:59 24,0 °C 25,3 °C 49 % 41 % 1023,4 hPa 0,0 l/m² 12,9 km/h (3 Bft) N-NW 337 ° 1 min 642 W/m² 11,1 °C 24,0 °C 19,3 km/h (3 Bft)
03.07.2025 17:00 24,0 °C 25,3 °C 49 % 41 % 1023,4 hPa 0,0 l/m² 16,1 km/h (3 Bft) N-NW 337 ° 1 min 633 W/m² 11,1 °C 23,5 °C 22,5 km/h (4 Bft)
03.07.2025 17:01 24,1 °C 25,3 °C 49 % 41 % 1023,4 hPa 0,0 l/m² 11,3 km/h (2 Bft) N-NW 337 ° 1 min 635 W/m² 11,1 °C 24,3 °C 19,3 km/h (3 Bft)
03.07.2025 17:02 24,0 °C 25,4 °C 49 % 40 % 1023,4 hPa 0,0 l/m² 22,5 km/h (4 Bft) N-NW 337 ° 1 min 629 W/m² 10,8 °C 22,9 °C 32,2 km/h (5 Bft)
03.07.2025 17:03 24,0 °C 25,3 °C 49 % 40 % 1023,4 hPa 0,0 l/m² 16,1 km/h (3 Bft) NW 315 ° 1 min 622 W/m² 10,7 °C 23,5 °C 25,7 km/h (4 Bft)
03.07.2025 17:04 24,0 °C 25,3 °C 49 % 40 % 1023,3 hPa 0,0 l/m² 9,7 km/h (2 Bft) W-NW 292 ° 1 min 624 W/m² 10,7 °C 24,6 °C 22,5 km/h (4 Bft)
03.07.2025 17:05 24,0 °C 25,5 °C 49 % 41 % 1023,4 hPa 0,0 l/m² 12,9 km/h (3 Bft) N-NW 337 ° 1 min 617 W/m² 11,3 °C 24,2 °C 17,7 km/h (3 Bft)
03.07.2025 17:06 24,0 °C 25,6 °C 49 % 40 % 1023,3 hPa 0,0 l/m² 11,3 km/h (2 Bft) NW 315 ° 1 min 613 W/m² 11,0 °C 24,6 °C 22,5 km/h (4 Bft)
03.07.2025 17:07 24,0 °C 25,6 °C 49 % 41 % 1023,4 hPa 0,0 l/m² 14,5 km/h (3 Bft) N-NW 337 ° 1 min 610 W/m² 11,4 °C 24,1 °C 19,3 km/h (3 Bft)
03.07.2025 17:08 24,0 °C 25,6 °C 49 % 41 % 1023,3 hPa 0,0 l/m² 16,1 km/h (3 Bft) W-NW 292 ° 1 min 608 W/m² 11,4 °C 23,9 °C 25,7 km/h (4 Bft)
03.07.2025 17:09 24,0 °C 25,4 °C 49 % 41 % 1023,5 hPa 0,0 l/m² 17,7 km/h (3 Bft) NW 315 ° 1 min 603 W/m² 11,2 °C 23,4 °C 24,1 km/h (4 Bft)
03.07.2025 17:10 24,0 °C 25,4 °C 49 % 41 % 1023,4 hPa 0,0 l/m² 19,3 km/h (3 Bft) NW 315 ° 1 min 603 W/m² 11,2 °C 23,3 °C 29,0 km/h (5 Bft)
03.07.2025 17:11 24,0 °C 25,2 °C 49 % 40 % 1023,4 hPa 0,0 l/m² 17,7 km/h (3 Bft) N-NW 337 ° 1 min 601 W/m² 10,6 °C 23,2 °C 22,5 km/h (4 Bft)
03.07.2025 17:12 24,0 °C 25,1 °C 49 % 41 % 1023,4 hPa 0,0 l/m² 11,3 km/h (2 Bft) N 360 ° 1 min 598 W/m² 10,9 °C 24,0 °C 19,3 km/h (3 Bft)
03.07.2025 17:13 24,0 °C 25,0 °C 49 % 41 % 1023,4 hPa 0,0 l/m² 16,1 km/h (3 Bft) N-NW 337 ° 1 min 596 W/m² 10,8 °C 23,2 °C 22,5 km/h (4 Bft)
03.07.2025 17:14 24,0 °C 25,0 °C 49 % 42 % 1023,4 hPa 0,0 l/m² 16,1 km/h (3 Bft) NW 315 ° 1 min 594 W/m² 11,2 °C 23,2 °C 20,9 km/h (4 Bft)
03.07.2025 17:15 24,0 °C 25,0 °C 49 % 42 % 1023,4 hPa 0,0 l/m² 14,5 km/h (3 Bft) N-NW 337 ° 1 min 589 W/m² 11,2 °C 23,4 °C 24,1 km/h (4 Bft)
03.07.2025 17:16 24,0 °C 25,1 °C 49 % 42 % 1023,4 hPa 0,0 l/m² 11,3 km/h (2 Bft) W-NW 292 ° 1 min 587 W/m² 11,3 °C 24,0 °C 17,7 km/h (3 Bft)
03.07.2025 17:17 24,0 °C 25,2 °C 49 % 42 % 1023,5 hPa 0,0 l/m² 9,7 km/h (2 Bft) W-NW 292 ° 1 min 584 W/m² 11,4 °C 24,4 °C 14,5 km/h (3 Bft)
03.07.2025 17:18 24,0 °C 25,2 °C 48 % 41 % 1023,4 hPa 0,0 l/m² 8,0 km/h (2 Bft) NW 315 ° 1 min 582 W/m² 11,0 °C 24,8 °C 20,9 km/h (4 Bft)
03.07.2025 17:19 24,0 °C 25,2 °C 48 % 41 % 1023,4 hPa 0,0 l/m² 16,1 km/h (3 Bft) NW 315 ° 1 min 582 W/m² 11,0 °C 23,4 °C 25,7 km/h (4 Bft)
03.07.2025 17:20 24,0 °C 25,1 °C 47 % 41 % 1023,5 hPa 0,0 l/m² 16,1 km/h (3 Bft) NW 315 ° 1 min 578 W/m² 10,9 °C 23,3 °C 24,1 km/h (4 Bft)
03.07.2025 17:21 24,0 °C 24,9 °C 47 % 41 % 1023,4 hPa 0,0 l/m² 8,0 km/h (2 Bft) NW 315 ° 1 min 577 W/m² 10,7 °C 24,5 °C 17,7 km/h (3 Bft)
03.07.2025 17:22 24,0 °C 24,9 °C 47 % 41 % 1023,3 hPa 0,0 l/m² 9,7 km/h (2 Bft) N-NW 337 ° 1 min 570 W/m² 10,7 °C 24,1 °C 16,1 km/h (3 Bft)
03.07.2025 17:23 24,0 °C 25,1 °C 47 % 42 % 1023,4 hPa 0,0 l/m² 9,7 km/h (2 Bft) NW 315 ° 1 min 568 W/m² 11,3 °C 24,3 °C 25,7 km/h (4 Bft)
03.07.2025 17:24 24,0 °C 25,2 °C 47 % 41 % 1023,3 hPa 0,0 l/m² 17,7 km/h (3 Bft) NW 315 ° 1 min 570 W/m² 11,0 °C 23,2 °C 22,5 km/h (4 Bft)
03.07.2025 17:25 24,0 °C 25,1 °C 47 % 41 % 1023,4 hPa 0,0 l/m² 9,7 km/h (2 Bft) W 270 ° 1 min 568 W/m² 10,9 °C 24,3 °C 17,7 km/h (3 Bft)
03.07.2025 17:26 24,0 °C 25,1 °C 47 % 41 % 1023,3 hPa 0,0 l/m² 6,4 km/h (2 Bft) W 270 ° 1 min 559 W/m² 10,9 °C 25,1 °C 12,9 km/h (3 Bft)
03.07.2025 17:27 24,0 °C 25,1 °C 48 % 41 % 1023,4 hPa 0,0 l/m² 11,3 km/h (2 Bft) W-NW 292 ° 1 min 555 W/m² 10,9 °C 24,0 °C 20,9 km/h (4 Bft)
03.07.2025 17:28 24,0 °C 24,9 °C 48 % 41 % 1023,4 hPa 0,0 l/m² 9,7 km/h (2 Bft) W 270 ° 1 min 548 W/m² 10,7 °C 24,1 °C 19,3 km/h (3 Bft)
03.07.2025 17:29 24,0 °C 24,9 °C 48 % 42 % 1023,4 hPa 0,0 l/m² 9,7 km/h (2 Bft) W-NW 292 ° 1 min 543 W/m² 11,1 °C 24,1 °C 14,5 km/h (3 Bft)
03.07.2025 17:30 24,0 °C 25,0 °C 48 % 42 % 1023,4 hPa 0,0 l/m² 9,7 km/h (2 Bft) N-NW 337 ° 1 min 543 W/m² 11,2 °C 24,2 °C 16,1 km/h (3 Bft)
03.07.2025 17:31 24,0 °C 25,2 °C 48 % 42 % 1023,5 hPa 0,0 l/m² 12,9 km/h (3 Bft) NW 315 ° 1 min 543 W/m² 11,4 °C 23,9 °C 19,3 km/h (3 Bft)
03.07.2025 17:32 24,0 °C 25,2 °C 48 % 41 % 1023,4 hPa 0,0 l/m² 14,5 km/h (3 Bft) NW 315 ° 1 min 541 W/m² 11,0 °C 23,6 °C 20,9 km/h (4 Bft)
03.07.2025 17:33 24,0 °C 25,2 °C 48 % 41 % 1023,4 hPa 0,0 l/m² 8,0 km/h (2 Bft) W-NW 292 ° 1 min 538 W/m² 11,0 °C 24,8 °C 16,1 km/h (3 Bft)
03.07.2025 17:34 23,9 °C 25,1 °C 48 % 41 % 1023,3 hPa 0,0 l/m² 8,0 km/h (2 Bft) W-NW 292 ° 1 min 536 W/m² 10,9 °C 24,7 °C 20,9 km/h (4 Bft)
03.07.2025 17:35 24,0 °C 24,9 °C 48 % 42 % 1023,4 hPa 0,0 l/m² 11,3 km/h (2 Bft) W-NW 292 ° 1 min 534 W/m² 11,1 °C 23,8 °C 25,7 km/h (4 Bft)
03.07.2025 17:36 24,0 °C 24,9 °C 48 % 43 % 1023,4 hPa 0,0 l/m² 11,3 km/h (2 Bft) W 270 ° 1 min 534 W/m² 11,4 °C 23,8 °C 17,7 km/h (3 Bft)
03.07.2025 17:37 24,0 °C 24,9 °C 48 % 42 % 1023,4 hPa 0,0 l/m² 14,5 km/h (3 Bft) W-NW 292 ° 1 min 531 W/m² 11,1 °C 23,3 °C 20,9 km/h (4 Bft)
03.07.2025 17:38 24,0 °C 24,9 °C 48 % 42 % 1023,4 hPa 0,0 l/m² 9,7 km/h (2 Bft) W-NW 292 ° 1 min 526 W/m² 11,1 °C 24,1 °C 20,9 km/h (4 Bft)
03.07.2025 17:39 24,0 °C 24,9 °C 48 % 43 % 1023,5 hPa 0,0 l/m² 9,7 km/h (2 Bft) W-NW 292 ° 1 min 522 W/m² 11,4 °C 24,1 °C 17,7 km/h (3 Bft)
03.07.2025 17:40 24,0 °C 24,8 °C 48 % 41 % 1023,5 hPa 0,0 l/m² 8,0 km/h (2 Bft) W-NW 292 ° 1 min 520 W/m² 10,6 °C 24,4 °C 19,3 km/h (3 Bft)
03.07.2025 17:41 24,0 °C 24,8 °C 48 % 41 % 1023,5 hPa 0,0 l/m² 17,7 km/h (3 Bft) NW 315 ° 1 min 508 W/m² 10,6 °C 22,7 °C 29,0 km/h (5 Bft)
03.07.2025 17:42 24,0 °C 24,8 °C 48 % 41 % 1023,4 hPa 0,0 l/m² 11,3 km/h (2 Bft) NW 315 ° 1 min 454 W/m² 10,6 °C 23,7 °C 16,1 km/h (3 Bft)
03.07.2025 17:43 24,0 °C 24,8 °C 48 % 41 % 1023,5 hPa 0,0 l/m² 9,7 km/h (2 Bft) NW 315 ° 1 min 512 W/m² 10,6 °C 24,0 °C 17,7 km/h (3 Bft)
03.07.2025 17:44 24,0 °C 24,9 °C 48 % 41 % 1023,5 hPa 0,0 l/m² 14,5 km/h (3 Bft) NW 315 ° 1 min 506 W/m² 10,7 °C 23,3 °C 24,1 km/h (4 Bft)
03.07.2025 17:45 24,0 °C 24,9 °C 48 % 41 % 1023,5 hPa 0,0 l/m² 14,5 km/h (3 Bft) N-NW 337 ° 1 min 504 W/m² 10,7 °C 23,3 °C 19,3 km/h (3 Bft)
03.07.2025 17:46 24,0 °C 24,8 °C 48 % 41 % 1023,5 hPa 0,0 l/m² 12,9 km/h (3 Bft) NW 315 ° 1 min 492 W/m² 10,6 °C 23,4 °C 19,3 km/h (3 Bft)
03.07.2025 17:47 24,0 °C 24,8 °C 48 % 43 % 1023,5 hPa 0,0 l/m² 9,7 km/h (2 Bft) NW 315 ° 1 min 492 W/m² 11,4 °C 24,0 °C 14,5 km/h (3 Bft)
03.07.2025 17:48 24,0 °C 24,8 °C 48 % 42 % 1023,5 hPa 0,0 l/m² 14,5 km/h (3 Bft) NW 315 ° 1 min 176 W/m² 11,0 °C 23,1 °C 22,5 km/h (4 Bft)
03.07.2025 17:49 24,0 °C 24,8 °C 48 % 42 % 1023,4 hPa 0,0 l/m² 9,7 km/h (2 Bft) N-NW 337 ° 1 min 127 W/m² 11,0 °C 24,0 °C 14,5 km/h (3 Bft)
03.07.2025 17:50 24,0 °C 24,9 °C 48 % 43 % 1023,5 hPa 0,0 l/m² 11,3 km/h (2 Bft) NW 315 ° 1 min 137 W/m² 11,4 °C 23,8 °C 19,3 km/h (3 Bft)
03.07.2025 17:51 24,0 °C 24,9 °C 48 % 42 % 1023,4 hPa 0,0 l/m² 16,1 km/h (3 Bft) NW 315 ° 1 min 234 W/m² 11,1 °C 23,0 °C 25,7 km/h (4 Bft)
03.07.2025 17:52 24,0 °C 25,0 °C 48 % 42 % 1023,5 hPa 0,0 l/m² 16,1 km/h (3 Bft) N-NW 337 ° 1 min 251 W/m² 11,2 °C 23,2 °C 22,5 km/h (4 Bft)
03.07.2025 17:53 24,0 °C 24,8 °C 48 % 42 % 1023,5 hPa 0,0 l/m² 9,7 km/h (2 Bft) NW 315 ° 1 min 193 W/m² 11,0 °C 24,0 °C 16,1 km/h (3 Bft)
03.07.2025 17:54 23,9 °C 24,8 °C 49 % 42 % 1023,5 hPa 0,0 l/m² 11,3 km/h (2 Bft) W-NW 292 ° 1 min 424 W/m² 11,0 °C 23,7 °C 19,3 km/h (3 Bft)
03.07.2025 17:55 23,9 °C 24,7 °C 49 % 43 % 1023,4 hPa 0,0 l/m² 11,3 km/h (2 Bft) NW 315 ° 1 min 448 W/m² 11,3 °C 23,6 °C 22,5 km/h (4 Bft)
03.07.2025 17:56 23,9 °C 24,7 °C 49 % 42 % 1023,4 hPa 0,0 l/m² 12,9 km/h (3 Bft) W-NW 292 ° 1 min 448 W/m² 10,9 °C 23,3 °C 30,6 km/h (5 Bft)
03.07.2025 17:57 24,0 °C 24,7 °C 49 % 42 % 1023,4 hPa 0,0 l/m² 9,7 km/h (2 Bft) W-NW 292 ° 1 min 292 W/m² 10,9 °C 23,9 °C 20,9 km/h (4 Bft)
03.07.2025 17:58 24,0 °C 24,6 °C 49 % 41 % 1023,4 hPa 0,0 l/m² 9,7 km/h (2 Bft) W-NW 292 ° 1 min 234 W/m² 10,5 °C 23,8 °C 17,7 km/h (3 Bft)
03.07.2025 17:59 23,9 °C 24,6 °C 49 % 42 % 1023,5 hPa 0,0 l/m² 9,7 km/h (2 Bft) W-NW 292 ° 1 min 255 W/m² 10,8 °C 23,8 °C 17,7 km/h (3 Bft)
03.07.2025 18:00 24,0 °C 24,7 °C 49 % 41 % 1023,5 hPa 0,0 l/m² 12,9 km/h (3 Bft) W 270 ° 1 min 264 W/m² 10,6 °C 23,3 °C 19,3 km/h (3 Bft)
03.07.2025 18:01 24,0 °C 24,7 °C 49 % 41 % 1023,4 hPa 0,0 l/m² 9,7 km/h (2 Bft) NW 315 ° 1 min 76 W/m² 10,6 °C 23,9 °C 16,1 km/h (3 Bft)
03.07.2025 18:02 24,0 °C 24,6 °C 49 % 41 % 1023,5 hPa 0,0 l/m² 12,9 km/h (3 Bft) W-NW 292 ° 1 min 111 W/m² 10,5 °C 23,2 °C 22,5 km/h (4 Bft)
03.07.2025 18:03 24,0 °C 24,6 °C 49 % 41 % 1023,5 hPa 0,0 l/m² 6,4 km/h (2 Bft) W 270 ° 1 min 84 W/m² 10,5 °C 24,6 °C 16,1 km/h (3 Bft)
03.07.2025 18:04 24,0 °C 24,6 °C 49 % 41 % 1023,5 hPa 0,0 l/m² 8,0 km/h (2 Bft) W-NW 292 ° 1 min 127 W/m² 10,5 °C 24,2 °C 14,5 km/h (3 Bft)
03.07.2025 18:05 24,0 °C 24,6 °C 49 % 42 % 1023,5 hPa 0,0 l/m² 9,7 km/h (2 Bft) NW 315 ° 1 min 127 W/m² 10,8 °C 23,8 °C 16,1 km/h (3 Bft)
03.07.2025 18:06 24,0 °C 24,6 °C 49 % 40 % 1023,5 hPa 0,0 l/m² 9,7 km/h (2 Bft) W 270 ° 1 min 165 W/m² 10,1 °C 23,8 °C 16,1 km/h (3 Bft)
03.07.2025 18:07 23,9 °C 24,6 °C 49 % 41 % 1023,5 hPa 0,0 l/m² 9,7 km/h (2 Bft) NW 315 ° 1 min 111 W/m² 10,5 °C 23,8 °C 17,7 km/h (3 Bft)
03.07.2025 18:08 24,0 °C 24,6 °C 49 % 42 % 1023,5 hPa 0,0 l/m² 11,3 km/h (2 Bft) W-NW 292 ° 1 min 95 W/m² 10,8 °C 23,5 °C 20,9 km/h (4 Bft)
03.07.2025 18:09 24,0 °C 24,6 °C 49 % 41 % 1023,5 hPa 0,0 l/m² 8,0 km/h (2 Bft) NW 315 ° 1 min 158 W/m² 10,5 °C 24,2 °C 17,7 km/h (3 Bft)
03.07.2025 18:10 24,0 °C 24,6 °C 49 % 43 % 1023,4 hPa 0,0 l/m² 6,4 km/h (2 Bft) W-NW 292 ° 1 min 130 W/m² 11,2 °C 24,6 °C 11,3 km/h (2 Bft)
03.07.2025 18:11 24,0 °C 24,6 °C 49 % 43 % 1023,5 hPa 0,0 l/m² 6,4 km/h (2 Bft) NW 315 ° 1 min 120 W/m² 11,2 °C 24,6 °C 12,9 km/h (3 Bft)
03.07.2025 18:12 24,0 °C 24,7 °C 49 % 43 % 1023,5 hPa 0,0 l/m² 12,9 km/h (3 Bft) NW 315 ° 1 min 237 W/m² 11,3 °C 23,3 °C 20,9 km/h (4 Bft)
03.07.2025 18:13 24,0 °C 24,7 °C 49 % 41 % 1023,4 hPa 0,0 l/m² 17,7 km/h (3 Bft) N-NW 337 ° 1 min 237 W/m² 10,6 °C 22,6 °C 22,5 km/h (4 Bft)
03.07.2025 18:14 24,0 °C 24,7 °C 49 % 42 % 1023,4 hPa 0,0 l/m² 12,9 km/h (3 Bft) W-NW 292 ° 1 min 113 W/m² 10,9 °C 23,3 °C 19,3 km/h (3 Bft)
03.07.2025 18:15 24,0 °C 24,7 °C 49 % 41 % 1023,5 hPa 0,0 l/m² 12,9 km/h (3 Bft) NW 315 ° 1 min 83 W/m² 10,6 °C 23,3 °C 19,3 km/h (3 Bft)
03.07.2025 18:16 24,0 °C 24,6 °C 49 % 41 % 1023,5 hPa 0,0 l/m² 12,9 km/h (3 Bft) W 270 ° 1 min 155 W/m² 10,5 °C 23,2 °C 25,7 km/h (4 Bft)
03.07.2025 18:17 24,0 °C 24,6 °C 49 % 41 % 1023,4 hPa 0,0 l/m² 16,1 km/h (3 Bft) W 270 ° 1 min 142 W/m² 10,5 °C 22,7 °C 25,7 km/h (4 Bft)
03.07.2025 18:18 24,0 °C 24,4 °C 49 % 41 % 1023,5 hPa 0,0 l/m² 12,9 km/h (3 Bft) W-NW 292 ° 1 min 113 W/m² 10,3 °C 22,9 °C 19,3 km/h (3 Bft)
03.07.2025 18:19 24,0 °C 24,4 °C 49 % 41 % 1023,5 hPa 0,0 l/m² 11,3 km/h (2 Bft) W-NW 292 ° 1 min 76 W/m² 10,3 °C 23,2 °C 17,7 km/h (3 Bft)
03.07.2025 18:20 24,0 °C 24,3 °C 49 % 41 % 1023,4 hPa 0,0 l/m² 8,0 km/h (2 Bft) W-NW 292 ° 1 min 76 W/m² 10,2 °C 23,9 °C 14,5 km/h (3 Bft)
03.07.2025 18:21 24,0 °C 24,3 °C 49 % 42 % 1023,4 hPa 0,0 l/m² 11,3 km/h (2 Bft) W-NW 292 ° 1 min 84 W/m² 10,6 °C 23,1 °C 20,9 km/h (4 Bft)
03.07.2025 18:22 24,0 °C 24,3 °C 49 % 41 % 1023,5 hPa 0,0 l/m² 12,9 km/h (3 Bft) W 270 ° 1 min 54 W/m² 10,2 °C 22,8 °C 19,3 km/h (3 Bft)
03.07.2025 18:23 24,0 °C 24,2 °C 49 % 41 % 1023,4 hPa 0,0 l/m² 14,5 km/h (3 Bft) W-NW 292 ° 1 min 67 W/m² 10,1 °C 22,4 °C 19,3 km/h (3 Bft)
03.07.2025 18:24 24,0 °C 24,2 °C 49 % 42 % 1023,5 hPa 0,0 l/m² 12,9 km/h (3 Bft) W-NW 292 ° 1 min 63 W/m² 10,5 °C 22,7 °C 17,7 km/h (3 Bft)
03.07.2025 18:25 24,0 °C 24,2 °C 49 % 42 % 1023,4 hPa 0,0 l/m² 12,9 km/h (3 Bft) W 270 ° 1 min 58 W/m² 10,5 °C 22,7 °C 19,3 km/h (3 Bft)
03.07.2025 18:26 24,0 °C 24,2 °C 49 % 42 % 1023,5 hPa 0,0 l/m² 9,7 km/h (2 Bft) NW 315 ° 1 min 90 W/m² 10,5 °C 23,3 °C 16,1 km/h (3 Bft)
03.07.2025 18:27 24,0 °C 24,2 °C 49 % 43 % 1023,5 hPa 0,0 l/m² 4,8 km/h (1 Bft) W-SW 247 ° 1 min 54 W/m² 10,8 °C 24,2 °C 11,3 km/h (2 Bft)
03.07.2025 18:28 24,0 °C 24,3 °C 49 % 43 % 1023,6 hPa 0,0 l/m² 6,4 km/h (2 Bft) W-NW 292 ° 1 min 53 W/m² 10,9 °C 24,3 °C 16,1 km/h (3 Bft)
03.07.2025 18:29 24,0 °C 24,3 °C 49 % 42 % 1023,4 hPa 0,0 l/m² 9,7 km/h (2 Bft) W-NW 292 ° 1 min 54 W/m² 10,6 °C 23,5 °C 16,1 km/h (3 Bft)
03.07.2025 18:30 24,0 °C 24,3 °C 49 % 42 % 1023,5 hPa 0,0 l/m² 14,5 km/h (3 Bft) NW 315 ° 0 min 51 W/m² 10,6 °C 22,5 °C 27,4 km/h (5 Bft)
03.07.2025 18:31 24,0 °C 24,3 °C 49 % 42 % 1023,5 hPa 0,0 l/m² 16,1 km/h (3 Bft) W-NW 292 ° 0 min 51 W/m² 10,6 °C 22,3 °C 22,5 km/h (4 Bft)
03.07.2025 18:32 24,0 °C 24,3 °C 49 % 42 % 1023,6 hPa 0,0 l/m² 11,3 km/h (2 Bft) NW 315 ° 0 min 51 W/m² 10,6 °C 23,1 °C 17,7 km/h (3 Bft)
03.07.2025 18:33 24,0 °C 24,2 °C 49 % 42 % 1023,6 hPa 0,0 l/m² 9,7 km/h (2 Bft) NW 315 ° 0 min 49 W/m² 10,5 °C 23,3 °C 16,1 km/h (3 Bft)
03.07.2025 18:34 24,0 °C 24,2 °C 49 % 42 % 1023,6 hPa 0,0 l/m² 11,3 km/h (2 Bft) NW 315 ° 0 min 49 W/m² 10,5 °C 23,0 °C 16,1 km/h (3 Bft)
03.07.2025 18:35 24,0 °C 24,2 °C 49 % 42 % 1023,6 hPa 0,0 l/m² 12,9 km/h (3 Bft) N-NW 337 ° 0 min 49 W/m² 10,5 °C 22,7 °C 19,3 km/h (3 Bft)
03.07.2025 18:36 24,0 °C 24,1 °C 49 % 42 % 1023,6 hPa 0,0 l/m² 12,9 km/h (3 Bft) NW 315 ° 0 min 49 W/m² 10,4 °C 22,6 °C 17,7 km/h (3 Bft)
03.07.2025 18:37 24,0 °C 24,1 °C 49 % 42 % 1023,5 hPa 0,0 l/m² 11,3 km/h (2 Bft) W-NW 292 ° 1 min 53 W/m² 10,4 °C 22,9 °C 17,7 km/h (3 Bft)
03.07.2025 18:38 23,9 °C 24,1 °C 49 % 42 % 1023,5 hPa 0,0 l/m² 11,3 km/h (2 Bft) N-NW 337 ° 0 min 49 W/m² 10,4 °C 22,9 °C 14,5 km/h (3 Bft)
03.07.2025 18:39 24,0 °C 24,1 °C 49 % 42 % 1023,6 hPa 0,0 l/m² 12,9 km/h (3 Bft) NW 315 ° 0 min 49 W/m² 10,4 °C 22,6 °C 22,5 km/h (4 Bft)
03.07.2025 18:40 24,0 °C 24,1 °C 49 % 42 % 1023,5 hPa 0,0 l/m² 14,5 km/h (3 Bft) NW 315 ° 1 min 53 W/m² 10,4 °C 22,3 °C 20,9 km/h (4 Bft)
03.07.2025 18:41 24,0 °C 24,1 °C 49 % 42 % 1023,5 hPa 0,0 l/m² 8,0 km/h (2 Bft) NW 315 ° 0 min 51 W/m² 10,4 °C 23,7 °C 17,7 km/h (3 Bft)
03.07.2025 18:42 24,0 °C 24,1 °C 49 % 42 % 1023,5 hPa 0,0 l/m² 4,8 km/h (1 Bft) W-SW 247 ° 0 min 49 W/m² 10,4 °C 24,1 °C 8,0 km/h (2 Bft)
03.07.2025 18:43 24,0 °C 24,2 °C 50 % 43 % 1023,5 hPa 0,0 l/m² 9,7 km/h (2 Bft) W 270 ° 0 min 47 W/m² 10,8 °C 23,3 °C 20,9 km/h (4 Bft)
03.07.2025 18:44 24,0 °C 24,2 °C 50 % 43 % 1023,5 hPa 0,0 l/m² 9,7 km/h (2 Bft) W-NW 292 ° 1 min 58 W/m² 10,8 °C 23,3 °C 24,1 km/h (4 Bft)
03.07.2025 18:45 24,0 °C 24,2 °C 50 % 42 % 1023,5 hPa 0,0 l/m² 11,3 km/h (2 Bft) N-NW 337 ° 1 min 65 W/m² 10,5 °C 23,0 °C 19,3 km/h (3 Bft)
03.07.2025 18:46 24,0 °C 24,2 °C 50 % 42 % 1023,5 hPa 0,0 l/m² 9,7 km/h (2 Bft) NW 315 ° 1 min 54 W/m² 10,5 °C 23,3 °C 16,1 km/h (3 Bft)
03.07.2025 18:47 24,0 °C 24,2 °C 50 % 42 % 1023,5 hPa 0,0 l/m² 12,9 km/h (3 Bft) W-NW 292 ° 1 min 77 W/m² 10,5 °C 22,7 °C 22,5 km/h (4 Bft)
03.07.2025 18:48 24,0 °C 24,2 °C 50 % 42 % 1023,5 hPa 0,0 l/m² 6,4 km/h (2 Bft) W-NW 292 ° 0 min 47 W/m² 10,5 °C 24,2 °C 14,5 km/h (3 Bft)
03.07.2025 18:49 24,0 °C 24,2 °C 50 % 42 % 1023,5 hPa 0,0 l/m² 11,3 km/h (2 Bft) W-NW 292 ° 1 min 70 W/m² 10,5 °C 23,0 °C 22,5 km/h (4 Bft)
03.07.2025 18:50 24,0 °C 24,1 °C 50 % 42 % 1023,6 hPa 0,0 l/m² 12,9 km/h (3 Bft) NW 315 ° 1 min 84 W/m² 10,4 °C 22,6 °C 20,9 km/h (4 Bft)
03.07.2025 18:51 24,0 °C 24,0 °C 50 % 42 % 1023,6 hPa 0,0 l/m² 17,7 km/h (3 Bft) N-NW 337 ° 0 min 46 W/m² 10,3 °C 21,7 °C 30,6 km/h (5 Bft)
03.07.2025 18:52 24,0 °C 24,0 °C 50 % 42 % 1023,6 hPa 0,0 l/m² 14,5 km/h (3 Bft) N-NW 337 ° 0 min 46 W/m² 10,3 °C 22,2 °C 22,5 km/h (4 Bft)
03.07.2025 18:53 24,0 °C 23,9 °C 50 % 42 % 1023,6 hPa 0,0 l/m² 11,3 km/h (2 Bft) NW 315 ° 1 min 81 W/m² 10,2 °C 22,7 °C 17,7 km/h (3 Bft)
03.07.2025 18:54 24,0 °C 23,9 °C 50 % 43 % 1023,6 hPa 0,0 l/m² 8,0 km/h (2 Bft) W 270 ° 1 min 54 W/m² 10,5 °C 23,4 °C 16,1 km/h (3 Bft)
03.07.2025 18:55 24,0 °C 23,8 °C 50 % 42 % 1023,6 hPa 0,0 l/m² 8,0 km/h (2 Bft) N-NW 337 ° 0 min 47 W/m² 10,1 °C 23,3 °C 19,3 km/h (3 Bft)
03.07.2025 18:56 24,0 °C 23,8 °C 50 % 42 % 1023,6 hPa 0,0 l/m² 12,9 km/h (3 Bft) W-NW 292 ° 0 min 44 W/m² 10,1 °C 22,2 °C 19,3 km/h (3 Bft)
03.07.2025 18:57 24,0 °C 23,8 °C 50 % 41 % 1023,6 hPa 0,0 l/m² 14,5 km/h (3 Bft) N-NW 337 ° 0 min 44 W/m² 9,7 °C 21,9 °C 19,3 km/h (3 Bft)
03.07.2025 18:58 24,0 °C 23,8 °C 50 % 41 % 1023,6 hPa 0,0 l/m² 12,9 km/h (3 Bft) N-NW 337 ° 0 min 44 W/m² 9,7 °C 22,2 °C 17,7 km/h (3 Bft)
03.07.2025 18:59 24,0 °C 23,8 °C 50 % 42 % 1023,6 hPa 0,0 l/m² 4,8 km/h (1 Bft) W-NW 292 ° 0 min 42 W/m² 10,1 °C 23,8 °C 9,7 km/h (2 Bft)
03.07.2025 19:00 24,0 °C 23,8 °C 50 % 43 % 1023,6 hPa 0,0 l/m² 4,8 km/h (1 Bft) W 270 ° 0 min 42 W/m² 10,5 °C 23,8 °C 12,9 km/h (3 Bft)
03.07.2025 19:01 24,0 °C 23,9 °C 50 % 43 % 1023,6 hPa 0,0 l/m² 6,4 km/h (2 Bft) W 270 ° 0 min 42 W/m² 10,5 °C 23,9 °C 16,1 km/h (3 Bft)
03.07.2025 19:02 24,0 °C 23,9 °C 50 % 42 % 1023,7 hPa 0,0 l/m² 4,8 km/h (1 Bft) W-SW 247 ° 0 min 42 W/m² 10,2 °C 23,9 °C 11,3 km/h (2 Bft)
03.07.2025 19:03 24,0 °C 24,0 °C 50 % 42 % 1023,6 hPa 0,0 l/m² 6,4 km/h (2 Bft) W 270 ° 0 min 42 W/m² 10,3 °C 24,0 °C 12,9 km/h (3 Bft)
03.07.2025 19:04 24,0 °C 23,9 °C 50 % 42 % 1023,6 hPa 0,0 l/m² 9,7 km/h (2 Bft) W-NW 292 ° 0 min 42 W/m² 10,2 °C 23,0 °C 14,5 km/h (3 Bft)
03.07.2025 19:05 24,0 °C 23,9 °C 50 % 43 % 1023,6 hPa 0,0 l/m² 3,2 km/h (1 Bft) W-SW 247 ° 0 min 40 W/m² 10,5 °C 23,9 °C 6,4 km/h (2 Bft)
03.07.2025 19:06 24,0 °C 23,9 °C 50 % 43 % 1023,7 hPa 0,0 l/m² 3,2 km/h (1 Bft) N-NW 337 ° 0 min 40 W/m² 10,5 °C 23,9 °C 8,0 km/h (2 Bft)
03.07.2025 19:07 24,0 °C 23,9 °C 50 % 42 % 1023,6 hPa 0,0 l/m² 4,8 km/h (1 Bft) N-NW 337 ° 0 min 40 W/m² 10,2 °C 23,9 °C 14,5 km/h (3 Bft)
03.07.2025 19:08 24,0 °C 23,9 °C 50 % 42 % 1023,7 hPa 0,0 l/m² 11,3 km/h (2 Bft) N-NW 337 ° 0 min 40 W/m² 10,2 °C 22,7 °C 17,7 km/h (3 Bft)
03.07.2025 19:09 24,0 °C 23,9 °C 50 % 41 % 1023,7 hPa 0,0 l/m² 12,9 km/h (3 Bft) N-NW 337 ° 0 min 40 W/m² 9,8 °C 22,3 °C 17,7 km/h (3 Bft)
03.07.2025 19:10 24,0 °C 23,9 °C 50 % 41 % 1023,7 hPa 0,0 l/m² 9,7 km/h (2 Bft) N-NW 337 ° 0 min 40 W/m² 9,8 °C 23,0 °C 14,5 km/h (3 Bft)
03.07.2025 19:11 24,0 °C 23,8 °C 50 % 42 % 1023,6 hPa 0,0 l/m² 6,4 km/h (2 Bft) NW 315 ° 0 min 40 W/m² 10,1 °C 23,8 °C 12,9 km/h (3 Bft)
03.07.2025 19:12 24,0 °C 23,8 °C 50 % 42 % 1023,7 hPa 0,0 l/m² 8,0 km/h (2 Bft) N-NW 337 ° 0 min 39 W/m² 10,1 °C 23,3 °C 12,9 km/h (3 Bft)
03.07.2025 19:13 24,0 °C 23,9 °C 50 % 42 % 1023,7 hPa 0,0 l/m² 11,3 km/h (2 Bft) NW 315 ° 0 min 39 W/m² 10,2 °C 22,7 °C 20,9 km/h (4 Bft)
03.07.2025 19:14 24,0 °C 23,8 °C 50 % 42 % 1023,7 hPa 0,0 l/m² 9,7 km/h (2 Bft) N-NW 337 ° 0 min 39 W/m² 10,1 °C 22,9 °C 16,1 km/h (3 Bft)
03.07.2025 19:15 24,0 °C 23,8 °C 50 % 42 % 1023,6 hPa 0,0 l/m² 12,9 km/h (3 Bft) N 360 ° 0 min 39 W/m² 10,1 °C 22,2 °C 19,3 km/h (3 Bft)
03.07.2025 19:16 24,0 °C 23,8 °C 50 % 42 % 1023,7 hPa 0,0 l/m² 11,3 km/h (2 Bft) N-NW 337 ° 0 min 39 W/m² 10,1 °C 22,6 °C 19,3 km/h (3 Bft)
03.07.2025 19:17 24,0 °C 23,7 °C 50 % 42 % 1023,7 hPa 0,0 l/m² 9,7 km/h (2 Bft) N-NW 337 ° 0 min 39 W/m² 10,0 °C 22,8 °C 16,1 km/h (3 Bft)
03.07.2025 19:18 24,0 °C 23,7 °C 50 % 43 % 1023,7 hPa 0,0 l/m² 8,0 km/h (2 Bft) W-NW 292 ° 0 min 39 W/m² 10,4 °C 23,2 °C 20,9 km/h (4 Bft)
03.07.2025 19:19 24,0 °C 23,7 °C 50 % 42 % 1023,8 hPa 0,0 l/m² 6,4 km/h (2 Bft) W 270 ° 0 min 37 W/m² 10,0 °C 23,7 °C 20,9 km/h (4 Bft)
03.07.2025 19:20 24,0 °C 23,7 °C 50 % 43 % 1023,7 hPa 0,0 l/m² 8,0 km/h (2 Bft) W 270 ° 0 min 37 W/m² 10,4 °C 23,2 °C 14,5 km/h (3 Bft)
03.07.2025 19:21 24,0 °C 23,7 °C 50 % 43 % 1023,8 hPa 0,0 l/m² 6,4 km/h (2 Bft) W 270 ° 0 min 37 W/m² 10,4 °C 23,7 °C 19,3 km/h (3 Bft)
03.07.2025 19:22 24,0 °C 23,7 °C 50 % 43 % 1023,7 hPa 0,0 l/m² 8,0 km/h (2 Bft) NW 315 ° 0 min 37 W/m² 10,4 °C 23,2 °C 17,7 km/h (3 Bft)
03.07.2025 19:23 24,0 °C 23,7 °C 50 % 43 % 1023,8 hPa 0,0 l/m² 4,8 km/h (1 Bft) NW 315 ° 0 min 37 W/m² 10,4 °C 23,7 °C 9,7 km/h (2 Bft)
03.07.2025 19:24 24,0 °C 23,7 °C 51 % 44 % 1023,8 hPa 0,0 l/m² 11,3 km/h (2 Bft) NW 315 ° 0 min 37 W/m² 10,7 °C 22,4 °C 17,7 km/h (3 Bft)
03.07.2025 19:25 24,0 °C 23,6 °C 51 % 43 % 1023,7 hPa 0,0 l/m² 8,0 km/h (2 Bft) W-NW 292 ° 0 min 37 W/m² 10,3 °C 23,1 °C 14,5 km/h (3 Bft)
03.07.2025 19:26 24,0 °C 23,6 °C 51 % 44 % 1023,7 hPa 0,0 l/m² 9,7 km/h (2 Bft) NW 315 ° 0 min 35 W/m² 10,6 °C 22,7 °C 14,5 km/h (3 Bft)
03.07.2025 19:27 24,1 °C 23,6 °C 51 % 43 % 1023,8 hPa 0,0 l/m² 16,1 km/h (3 Bft) NW 315 ° 0 min 35 W/m² 10,3 °C 21,4 °C 20,9 km/h (4 Bft)
03.07.2025 19:28 24,0 °C 23,5 °C 51 % 43 % 1023,9 hPa 0,0 l/m² 12,9 km/h (3 Bft) W-NW 292 ° 0 min 35 W/m² 10,2 °C 21,9 °C 19,3 km/h (3 Bft)
03.07.2025 19:29 24,1 °C 23,5 °C 51 % 43 % 1023,8 hPa 0,0 l/m² 6,4 km/h (2 Bft) W 270 ° 0 min 35 W/m² 10,2 °C 23,5 °C 14,5 km/h (3 Bft)
03.07.2025 19:30 24,1 °C 23,5 °C 51 % 43 % 1023,8 hPa 0,0 l/m² 8,0 km/h (2 Bft) W-NW 292 ° 0 min 35 W/m² 10,2 °C 23,0 °C 14,5 km/h (3 Bft)
03.07.2025 19:31 24,1 °C 23,5 °C 51 % 43 % 1023,8 hPa 0,0 l/m² 6,4 km/h (2 Bft) W-NW 292 ° 0 min 35 W/m² 10,2 °C 23,5 °C 12,9 km/h (3 Bft)
03.07.2025 19:32 24,1 °C 23,5 °C 51 % 43 % 1023,8 hPa 0,0 l/m² 9,7 km/h (2 Bft) W 270 ° 0 min 35 W/m² 10,2 °C 22,6 °C 17,7 km/h (3 Bft)
03.07.2025 19:33 24,1 °C 23,4 °C 51 % 43 % 1023,8 hPa 0,0 l/m² 6,4 km/h (2 Bft) W-NW 292 ° 0 min 35 W/m² 10,1 °C 23,4 °C 17,7 km/h (3 Bft)
03.07.2025 19:34 24,1 °C 23,4 °C 52 % 44 % 1023,8 hPa 0,0 l/m² 8,0 km/h (2 Bft) NW 315 ° 0 min 35 W/m² 10,4 °C 22,9 °C 17,7 km/h (3 Bft)
03.07.2025 19:35 24,1 °C 23,4 °C 52 % 43 % 1023,8 hPa 0,0 l/m² 12,9 km/h (3 Bft) NW 315 ° 0 min 33 W/m² 10,1 °C 21,8 °C 20,9 km/h (4 Bft)
03.07.2025 19:36 24,1 °C 23,3 °C 52 % 43 % 1023,8 hPa 0,0 l/m² 9,7 km/h (2 Bft) NW 315 ° 0 min 33 W/m² 10,0 °C 22,4 °C 20,9 km/h (4 Bft)
03.07.2025 19:37 24,1 °C 23,3 °C 52 % 43 % 1023,9 hPa 0,0 l/m² 9,7 km/h (2 Bft) N-NW 337 ° 0 min 33 W/m² 10,0 °C 22,4 °C 16,1 km/h (3 Bft)
03.07.2025 19:38 24,1 °C 23,3 °C 52 % 43 % 1023,8 hPa 0,0 l/m² 6,4 km/h (2 Bft) W-NW 292 ° 0 min 33 W/m² 10,0 °C 23,3 °C 12,9 km/h (3 Bft)
03.07.2025 19:39 24,1 °C 23,3 °C 52 % 43 % 1023,9 hPa 0,0 l/m² 9,7 km/h (2 Bft) N-NW 337 ° 0 min 33 W/m² 10,0 °C 22,4 °C 16,1 km/h (3 Bft)
03.07.2025 19:40 24,1 °C 23,3 °C 52 % 43 % 1023,8 hPa 0,0 l/m² 6,4 km/h (2 Bft) NW 315 ° 0 min 33 W/m² 10,0 °C 23,3 °C 12,9 km/h (3 Bft)
03.07.2025 19:41 24,1 °C 23,3 °C 52 % 43 % 1023,9 hPa 0,0 l/m² 12,9 km/h (3 Bft) N-NW 337 ° 0 min 33 W/m² 10,0 °C 21,6 °C 19,3 km/h (3 Bft)
03.07.2025 19:42 24,1 °C 23,3 °C 52 % 42 % 1023,8 hPa 0,0 l/m² 12,9 km/h (3 Bft) NW 315 ° 0 min 33 W/m² 9,7 °C 21,6 °C 19,3 km/h (3 Bft)
03.07.2025 19:43 24,1 °C 23,3 °C 52 % 43 % 1023,8 hPa 0,0 l/m² 9,7 km/h (2 Bft) NW 315 ° 0 min 33 W/m² 10,0 °C 22,4 °C 14,5 km/h (3 Bft)
03.07.2025 19:44 24,1 °C 23,3 °C 52 % 43 % 1023,9 hPa 0,0 l/m² 11,3 km/h (2 Bft) N-NW 337 ° 0 min 33 W/m² 10,0 °C 22,0 °C 16,1 km/h (3 Bft)
03.07.2025 19:45 24,1 °C 23,2 °C 52 % 43 % 1023,9 hPa 0,0 l/m² 9,7 km/h (2 Bft) NW 315 ° 0 min 32 W/m² 9,9 °C 22,3 °C 14,5 km/h (3 Bft)
03.07.2025 19:46 24,1 °C 23,2 °C 52 % 43 % 1023,9 hPa 0,0 l/m² 9,7 km/h (2 Bft) NW 315 ° 0 min 32 W/m² 9,9 °C 22,3 °C 14,5 km/h (3 Bft)
03.07.2025 19:47 24,1 °C 23,2 °C 52 % 43 % 1023,9 hPa 0,0 l/m² 9,7 km/h (2 Bft) N-NW 337 ° 0 min 32 W/m² 9,9 °C 22,3 °C 16,1 km/h (3 Bft)
03.07.2025 19:48 24,1 °C 23,2 °C 52 % 43 % 1023,9 hPa 0,0 l/m² 8,0 km/h (2 Bft) NW 315 ° 0 min 32 W/m² 9,9 °C 22,7 °C 12,9 km/h (3 Bft)
03.07.2025 19:49 24,1 °C 23,2 °C 52 % 43 % 1023,9 hPa 0,0 l/m² 9,7 km/h (2 Bft) N-NW 337 ° 0 min 32 W/m² 9,9 °C 22,3 °C 12,9 km/h (3 Bft)
03.07.2025 19:50 24,1 °C 23,1 °C 52 % 43 % 1023,9 hPa 0,0 l/m² 8,0 km/h (2 Bft) NW 315 ° 0 min 32 W/m² 9,8 °C 22,6 °C 14,5 km/h (3 Bft)
03.07.2025 19:51 24,1 °C 23,2 °C 52 % 43 % 1023,9 hPa 0,0 l/m² 6,4 km/h (2 Bft) N-NW 337 ° 0 min 32 W/m² 9,9 °C 23,2 °C 14,5 km/h (3 Bft)
03.07.2025 19:52 24,2 °C 23,1 °C 52 % 43 % 1023,9 hPa 0,0 l/m² 9,7 km/h (2 Bft) NW 315 ° 0 min 30 W/m² 9,8 °C 22,1 °C 20,9 km/h (4 Bft)
03.07.2025 19:53 24,1 °C 23,2 °C 52 % 43 % 1023,8 hPa 0,0 l/m² 9,7 km/h (2 Bft) NW 315 ° 0 min 30 W/m² 9,9 °C 22,3 °C 14,5 km/h (3 Bft)
03.07.2025 19:54 24,2 °C 23,1 °C 52 % 43 % 1023,8 hPa 0,0 l/m² 12,9 km/h (3 Bft) N-NW 337 ° 0 min 30 W/m² 9,8 °C 21,4 °C 19,3 km/h (3 Bft)
03.07.2025 19:55 24,2 °C 23,1 °C 52 % 43 % 1023,9 hPa 0,0 l/m² 11,3 km/h (2 Bft) N-NW 337 ° 0 min 30 W/m² 9,8 °C 21,8 °C 20,9 km/h (4 Bft)
03.07.2025 19:56 24,1 °C 23,1 °C 52 % 42 % 1024,0 hPa 0,0 l/m² 16,1 km/h (3 Bft) N-NW 337 ° 0 min 30 W/m² 9,5 °C 20,8 °C 20,9 km/h (4 Bft)
03.07.2025 19:57 24,2 °C 23,1 °C 52 % 43 % 1023,9 hPa 0,0 l/m² 11,3 km/h (2 Bft) NW 315 ° 0 min 30 W/m² 9,8 °C 21,8 °C 17,7 km/h (3 Bft)
03.07.2025 19:58 24,2 °C 23,1 °C 52 % 43 % 1023,9 hPa 0,0 l/m² 9,7 km/h (2 Bft) N-NW 337 ° 0 min 30 W/m² 9,8 °C 22,1 °C 14,5 km/h (3 Bft)
03.07.2025 19:59 24,2 °C 23,0 °C 52 % 43 % 1023,9 hPa 0,0 l/m² 6,4 km/h (2 Bft) NW 315 ° 0 min 30 W/m² 9,7 °C 23,0 °C 11,3 km/h (2 Bft)
03.07.2025 20:00 24,2 °C 22,9 °C 52 % 43 % 1023,9 hPa 0,0 l/m² 8,0 km/h (2 Bft) NW 315 ° 0 min 28 W/m² 9,6 °C 22,4 °C 14,5 km/h (3 Bft)
03.07.2025 20:01 24,2 °C 23,0 °C 52 % 43 % 1024,0 hPa 0,0 l/m² 9,7 km/h (2 Bft) N-NW 337 ° 0 min 28 W/m² 9,7 °C 22,0 °C 16,1 km/h (3 Bft)
03.07.2025 20:02 24,2 °C 22,9 °C 52 % 44 % 1023,9 hPa 0,0 l/m² 6,4 km/h (2 Bft) N-NW 337 ° 0 min 28 W/m² 10,0 °C 22,9 °C 14,5 km/h (3 Bft)
03.07.2025 20:03 24,2 °C 22,9 °C 52 % 44 % 1024,0 hPa 0,0 l/m² 4,8 km/h (1 Bft) W 270 ° 0 min 28 W/m² 10,0 °C 22,9 °C 8,0 km/h (2 Bft)
03.07.2025 20:04 24,1 °C 22,9 °C 52 % 44 % 1023,9 hPa 0,0 l/m² 4,8 km/h (1 Bft) W 270 ° 0 min 28 W/m² 10,0 °C 22,9 °C 8,0 km/h (2 Bft)
03.07.2025 20:05 24,2 °C 22,8 °C 52 % 44 % 1023,9 hPa 0,0 l/m² 3,2 km/h (1 Bft) W 270 ° 0 min 28 W/m² 9,9 °C 22,8 °C 12,9 km/h (3 Bft)
03.07.2025 20:06 24,2 °C 22,8 °C 52 % 44 % 1024,0 hPa 0,0 l/m² 6,4 km/h (2 Bft) NW 315 ° 0 min 28 W/m² 9,9 °C 22,8 °C 12,9 km/h (3 Bft)
03.07.2025 20:07 24,2 °C 22,7 °C 51 % 44 % 1024,0 hPa 0,0 l/m² 4,8 km/h (1 Bft) NW 315 ° 0 min 28 W/m² 9,8 °C 22,7 °C 12,9 km/h (3 Bft)
03.07.2025 20:08 24,2 °C 22,7 °C 51 % 45 % 1024,0 hPa 0,0 l/m² 4,8 km/h (1 Bft) NW 315 ° 0 min 28 W/m² 10,1 °C 22,7 °C 9,7 km/h (2 Bft)
03.07.2025 20:09 24,2 °C 22,6 °C 51 % 45 % 1024,0 hPa 0,0 l/m² 9,7 km/h (2 Bft) W-NW 292 ° 0 min 28 W/m² 10,1 °C 21,6 °C 14,5 km/h (3 Bft)
03.07.2025 20:10 24,1 °C 22,6 °C 50 % 44 % 1024,0 hPa 0,0 l/m² 6,4 km/h (2 Bft) NW 315 ° 0 min 26 W/m² 9,7 °C 22,6 °C 11,3 km/h (2 Bft)
03.07.2025 20:11 24,1 °C 22,6 °C 50 % 44 % 1024,0 hPa 0,0 l/m² 9,7 km/h (2 Bft) NW 315 ° 0 min 26 W/m² 9,7 °C 21,6 °C 14,5 km/h (3 Bft)
03.07.2025 20:12 24,1 °C 22,6 °C 49 % 44 % 1024,0 hPa 0,0 l/m² 4,8 km/h (1 Bft) W-NW 292 ° 0 min 26 W/m² 9,7 °C 22,6 °C 8,0 km/h (2 Bft)
03.07.2025 20:13 24,1 °C 22,6 °C 48 % 45 % 1024,0 hPa 0,0 l/m² 12,9 km/h (3 Bft) N-NW 337 ° 0 min 26 W/m² 10,1 °C 20,8 °C 20,9 km/h (4 Bft)
03.07.2025 20:14 24,1 °C 22,6 °C 48 % 44 % 1024,0 hPa 0,0 l/m² 9,7 km/h (2 Bft) NW 315 ° 0 min 26 W/m² 9,7 °C 21,6 °C 22,5 km/h (4 Bft)
03.07.2025 20:15 24,1 °C 22,5 °C 48 % 44 % 1024,1 hPa 0,0 l/m² 11,3 km/h (2 Bft) NW 315 ° 0 min 26 W/m² 9,6 °C 21,1 °C 17,7 km/h (3 Bft)
03.07.2025 20:16 24,1 °C 22,5 °C 47 % 44 % 1024,0 hPa 0,0 l/m² 8,0 km/h (2 Bft) W-NW 292 ° 0 min 26 W/m² 9,6 °C 22,0 °C 12,9 km/h (3 Bft)
03.07.2025 20:17 24,1 °C 22,4 °C 47 % 45 % 1024,0 hPa 0,0 l/m² 11,3 km/h (2 Bft) NW 315 ° 0 min 26 W/m² 9,9 °C 21,0 °C 17,7 km/h (3 Bft)
03.07.2025 20:18 24,1 °C 22,4 °C 47 % 45 % 1024,0 hPa 0,0 l/m² 11,3 km/h (2 Bft) NW 315 ° 0 min 25 W/m² 9,9 °C 21,0 °C 16,1 km/h (3 Bft)
03.07.2025 20:19 24,1 °C 22,4 °C 47 % 45 % 1024,0 hPa 0,0 l/m² 8,0 km/h (2 Bft) W-NW 292 ° 0 min 25 W/m² 9,9 °C 21,9 °C 14,5 km/h (3 Bft)
03.07.2025 20:20 24,0 °C 22,4 °C 46 % 45 % 1024,0 hPa 0,0 l/m² 4,8 km/h (1 Bft) W-NW 292 ° 0 min 25 W/m² 9,9 °C 22,4 °C 14,5 km/h (3 Bft)
03.07.2025 20:21 24,0 °C 22,4 °C 46 % 45 % 1024,1 hPa 0,0 l/m² 9,7 km/h (2 Bft) NW 315 ° 0 min 25 W/m² 9,9 °C 21,4 °C 14,5 km/h (3 Bft)
03.07.2025 20:22 24,0 °C 22,3 °C 46 % 45 % 1024,1 hPa 0,0 l/m² 4,8 km/h (1 Bft) W-NW 292 ° 0 min 25 W/m² 9,8 °C 22,3 °C 11,3 km/h (2 Bft)
03.07.2025 20:23 23,9 °C 22,3 °C 46 % 45 % 1024,1 hPa 0,0 l/m² 6,4 km/h (2 Bft) NW 315 ° 0 min 25 W/m² 9,8 °C 22,3 °C 12,9 km/h (3 Bft)
03.07.2025 20:24 23,9 °C 22,3 °C 46 % 45 % 1024,1 hPa 0,0 l/m² 6,4 km/h (2 Bft) NW 315 ° 0 min 25 W/m² 9,8 °C 22,3 °C 12,9 km/h (3 Bft)
03.07.2025 20:25 23,9 °C 22,3 °C 46 % 45 % 1024,1 hPa 0,0 l/m² 8,0 km/h (2 Bft) W-NW 292 ° 0 min 23 W/m² 9,8 °C 21,8 °C 11,3 km/h (2 Bft)
03.07.2025 20:26 23,9 °C 22,2 °C 46 % 46 % 1024,1 hPa 0,0 l/m² 6,4 km/h (2 Bft) NW 315 ° 0 min 23 W/m² 10,0 °C 22,2 °C 11,3 km/h (2 Bft)
03.07.2025 20:27 23,9 °C 22,2 °C 46 % 45 % 1024,1 hPa 0,0 l/m² 8,0 km/h (2 Bft) NW 315 ° 0 min 23 W/m² 9,7 °C 21,7 °C 14,5 km/h (3 Bft)
03.07.2025 20:28 23,9 °C 22,2 °C 46 % 45 % 1024,1 hPa 0,0 l/m² 8,0 km/h (2 Bft) NW 315 ° 0 min 23 W/m² 9,7 °C 21,7 °C 14,5 km/h (3 Bft)
03.07.2025 20:29 23,9 °C 22,1 °C 46 % 45 % 1024,1 hPa 0,0 l/m² 8,0 km/h (2 Bft) N-NW 337 ° 0 min 23 W/m² 9,6 °C 21,6 °C 16,1 km/h (3 Bft)
03.07.2025 20:30 23,9 °C 22,1 °C 46 % 46 % 1024,1 hPa 0,0 l/m² 6,4 km/h (2 Bft) W-NW 292 ° 0 min 23 W/m² 9,9 °C 22,1 °C 9,7 km/h (2 Bft)
03.07.2025 20:31 23,9 °C 22,1 °C 46 % 46 % 1024,1 hPa 0,0 l/m² 4,8 km/h (1 Bft) W-NW 292 ° 0 min 21 W/m² 9,9 °C 22,1 °C 8,0 km/h (2 Bft)
03.07.2025 20:32 23,9 °C 22,0 °C 46 % 46 % 1024,1 hPa 0,0 l/m² 4,8 km/h (1 Bft) W-NW 292 ° 0 min 21 W/m² 9,8 °C 22,0 °C 12,9 km/h (3 Bft)
03.07.2025 20:33 23,8 °C 21,9 °C 46 % 46 % 1024,2 hPa 0,0 l/m² 4,8 km/h (1 Bft) NW 315 ° 0 min 21 W/m² 9,7 °C 21,9 °C 16,1 km/h (3 Bft)
03.07.2025 20:34 23,9 °C 21,9 °C 46 % 46 % 1024,1 hPa 0,0 l/m² 8,0 km/h (2 Bft) NW 315 ° 0 min 21 W/m² 9,7 °C 21,3 °C 14,5 km/h (3 Bft)
03.07.2025 20:35 23,9 °C 21,8 °C 46 % 46 % 1024,2 hPa 0,0 l/m² 6,4 km/h (2 Bft) N-NW 337 ° 0 min 21 W/m² 9,7 °C 21,8 °C 8,0 km/h (2 Bft)
03.07.2025 20:36 23,8 °C 21,8 °C 46 % 46 % 1024,1 hPa 0,0 l/m² 9,7 km/h (2 Bft) NW 315 ° 0 min 21 W/m² 9,7 °C 20,7 °C 19,3 km/h (3 Bft)
03.07.2025 20:37 23,8 °C 21,8 °C 47 % 46 % 1024,2 hPa 0,0 l/m² 8,0 km/h (2 Bft) NW 315 ° 0 min 21 W/m² 9,7 °C 21,2 °C 16,1 km/h (3 Bft)
03.07.2025 20:38 23,8 °C 21,8 °C 47 % 46 % 1024,2 hPa 0,0 l/m² 8,0 km/h (2 Bft) W-NW 292 ° 0 min 19 W/m² 9,7 °C 21,2 °C 14,5 km/h (3 Bft)
03.07.2025 20:39 23,8 °C 21,8 °C 47 % 46 % 1024,2 hPa 0,0 l/m² 4,8 km/h (1 Bft) NW 315 ° 0 min 19 W/m² 9,7 °C 21,8 °C 8,0 km/h (2 Bft)
03.07.2025 20:40 23,8 °C 21,7 °C 47 % 46 % 1024,2 hPa 0,0 l/m² 8,0 km/h (2 Bft) N-NW 337 ° 0 min 19 W/m² 9,6 °C 21,1 °C 14,5 km/h (3 Bft)
03.07.2025 20:41 23,8 °C 21,7 °C 47 % 46 % 1024,2 hPa 0,0 l/m² 6,4 km/h (2 Bft) NW 315 ° 0 min 19 W/m² 9,6 °C 21,7 °C 12,9 km/h (3 Bft)
03.07.2025 20:42 23,8 °C 21,7 °C 47 % 46 % 1024,2 hPa 0,0 l/m² 8,0 km/h (2 Bft) W-NW 292 ° 0 min 19 W/m² 9,6 °C 21,1 °C 14,5 km/h (3 Bft)
03.07.2025 20:43 23,8 °C 21,7 °C 47 % 46 % 1024,2 hPa 0,0 l/m² 6,4 km/h (2 Bft) NW 315 ° 0 min 19 W/m² 9,6 °C 21,7 °C 9,7 km/h (2 Bft)
03.07.2025 20:44 23,9 °C 21,7 °C 47 % 46 % 1024,2 hPa 0,0 l/m² 6,4 km/h (2 Bft) NW 315 ° 0 min 19 W/m² 9,6 °C 21,7 °C 11,3 km/h (2 Bft)
03.07.2025 20:45 23,9 °C 21,6 °C 47 % 47 % 1024,2 hPa 0,0 l/m² 4,8 km/h (1 Bft) NW 315 ° 0 min 18 W/m² 9,8 °C 21,6 °C 11,3 km/h (2 Bft)
03.07.2025 20:46 23,8 °C 21,4 °C 47 % 47 % 1024,2 hPa 0,0 l/m² 6,4 km/h (2 Bft) NW 315 ° 0 min 18 W/m² 9,6 °C 21,4 °C 12,9 km/h (3 Bft)
03.07.2025 20:47 23,8 °C 21,4 °C 47 % 47 % 1024,3 hPa 0,0 l/m² 6,4 km/h (2 Bft) NW 315 ° 0 min 18 W/m² 9,6 °C 21,4 °C 9,7 km/h (2 Bft)
03.07.2025 20:48 23,9 °C 21,4 °C 47 % 47 % 1024,2 hPa 0,0 l/m² 8,0 km/h (2 Bft) NW 315 ° 0 min 18 W/m² 9,6 °C 20,8 °C 12,9 km/h (3 Bft)
03.07.2025 20:49 23,9 °C 21,3 °C 47 % 47 % 1024,2 hPa 0,0 l/m² 4,8 km/h (1 Bft) W-NW 292 ° 0 min 18 W/m² 9,5 °C 21,3 °C 8,0 km/h (2 Bft)
03.07.2025 20:50 23,9 °C 21,3 °C 47 % 47 % 1024,2 hPa 0,0 l/m² 4,8 km/h (1 Bft) NW 315 ° 0 min 18 W/m² 9,5 °C 21,3 °C 11,3 km/h (2 Bft)
03.07.2025 20:51 23,9 °C 21,3 °C 47 % 48 % 1024,3 hPa 0,0 l/m² 4,8 km/h (1 Bft) NW 315 ° 0 min 16 W/m² 9,8 °C 21,3 °C 11,3 km/h (2 Bft)
03.07.2025 20:52 23,9 °C 21,2 °C 47 % 47 % 1024,3 hPa 0,0 l/m² 4,8 km/h (1 Bft) NW 315 ° 0 min 16 W/m² 9,4 °C 21,2 °C 8,0 km/h (2 Bft)
03.07.2025 20:53 23,9 °C 21,2 °C 47 % 47 % 1024,3 hPa 0,0 l/m² 4,8 km/h (1 Bft) NW 315 ° 0 min 16 W/m² 9,4 °C 21,2 °C 8,0 km/h (2 Bft)
03.07.2025 20:54 23,9 °C 21,2 °C 47 % 48 % 1024,3 hPa 0,0 l/m² 4,8 km/h (1 Bft) N-NW 337 ° 0 min 16 W/m² 9,7 °C 21,2 °C 8,0 km/h (2 Bft)
03.07.2025 20:55 23,9 °C 21,1 °C 47 % 47 % 1024,3 hPa 0,0 l/m² 8,0 km/h (2 Bft) N-NW 337 ° 0 min 16 W/m² 9,3 °C 20,5 °C 14,5 km/h (3 Bft)
03.07.2025 20:56 23,9 °C 21,1 °C 47 % 48 % 1024,3 hPa 0,0 l/m² 6,4 km/h (2 Bft) N-NW 337 ° 0 min 16 W/m² 9,7 °C 21,1 °C 8,0 km/h (2 Bft)
03.07.2025 20:57 23,9 °C 21,1 °C 47 % 48 % 1024,3 hPa 0,0 l/m² 6,4 km/h (2 Bft) N-NW 337 ° 0 min 14 W/m² 9,7 °C 21,1 °C 8,0 km/h (2 Bft)
03.07.2025 20:58 23,9 °C 21,1 °C 47 % 48 % 1024,3 hPa 0,0 l/m² 6,4 km/h (2 Bft) N-NW 337 ° 0 min 14 W/m² 9,7 °C 21,1 °C 8,0 km/h (2 Bft)
03.07.2025 20:59 23,9 °C 21,1 °C 47 % 48 % 1024,3 hPa 0,0 l/m² 6,4 km/h (2 Bft) N-NW 337 ° 0 min 14 W/m² 9,7 °C 21,1 °C 12,9 km/h (3 Bft)
03.07.2025 21:00 23,9 °C 21,1 °C 47 % 48 % 1024,3 hPa 0,0 l/m² 8,0 km/h (2 Bft) N-NW 337 ° 0 min 14 W/m² 9,7 °C 20,5 °C 12,9 km/h (3 Bft)
03.07.2025 21:01 23,9 °C 21,1 °C 47 % 48 % 1024,4 hPa 0,0 l/m² 8,0 km/h (2 Bft) N-NW 337 ° 0 min 14 W/m² 9,7 °C 20,5 °C 12,9 km/h (3 Bft)
03.07.2025 21:02 23,9 °C 20,9 °C 48 % 48 % 1024,3 hPa 0,0 l/m² 8,0 km/h (2 Bft) N-NW 337 ° 0 min 14 W/m² 9,5 °C 20,3 °C 9,7 km/h (2 Bft)
03.07.2025 21:03 23,9 °C 20,9 °C 48 % 48 % 1024,3 hPa 0,0 l/m² 6,4 km/h (2 Bft) N-NW 337 ° 0 min 12 W/m² 9,5 °C 20,9 °C 9,7 km/h (2 Bft)
03.07.2025 21:04 23,9 °C 20,9 °C 47 % 48 % 1024,3 hPa 0,0 l/m² 6,4 km/h (2 Bft) N-NW 337 ° 0 min 12 W/m² 9,5 °C 20,9 °C 9,7 km/h (2 Bft)
03.07.2025 21:05 23,9 °C 20,8 °C 47 % 49 % 1024,4 hPa 0,0 l/m² 6,4 km/h (2 Bft) NW 315 ° 0 min 12 W/m² 9,7 °C 20,8 °C 8,0 km/h (2 Bft)
03.07.2025 21:06 23,9 °C 20,8 °C 47 % 49 % 1024,3 hPa 0,0 l/m² 6,4 km/h (2 Bft) N-NW 337 ° 0 min 12 W/m² 9,7 °C 20,8 °C 8,0 km/h (2 Bft)
03.07.2025 21:07 23,9 °C 20,8 °C 47 % 49 % 1024,4 hPa 0,0 l/m² 4,8 km/h (1 Bft) NW 315 ° 0 min 12 W/m² 9,7 °C 20,8 °C 8,0 km/h (2 Bft)
03.07.2025 21:08 23,9 °C 20,8 °C 47 % 49 % 1024,4 hPa 0,0 l/m² 4,8 km/h (1 Bft) N 360 ° 0 min 12 W/m² 9,7 °C 20,8 °C 6,4 km/h (2 Bft)
03.07.2025 21:09 23,9 °C 20,7 °C 47 % 49 % 1024,4 hPa 0,0 l/m² 4,8 km/h (1 Bft) N-NW 337 ° 0 min 11 W/m² 9,6 °C 20,7 °C 8,0 km/h (2 Bft)
03.07.2025 21:10 23,9 °C 20,7 °C 47 % 50 % 1024,4 hPa 0,0 l/m² 4,8 km/h (1 Bft) N-NW 337 ° 0 min 11 W/m² 9,9 °C 20,7 °C 8,0 km/h (2 Bft)
03.07.2025 21:11 23,9 °C 20,6 °C 47 % 50 % 1024,4 hPa 0,0 l/m² 6,4 km/h (2 Bft) N-NW 337 ° 0 min 11 W/m² 9,8 °C 20,6 °C 9,7 km/h (2 Bft)
03.07.2025 21:12 23,9 °C 20,6 °C 47 % 50 % 1024,4 hPa 0,0 l/m² 6,4 km/h (2 Bft) N-NW 337 ° 0 min 11 W/m² 9,8 °C 20,6 °C 9,7 km/h (2 Bft)
03.07.2025 21:13 23,9 °C 20,5 °C 47 % 50 % 1024,4 hPa 0,0 l/m² 8,0 km/h (2 Bft) N-NW 337 ° 0 min 11 W/m² 9,7 °C 19,9 °C 12,9 km/h (3 Bft)
03.07.2025 21:14 23,9 °C 20,4 °C 47 % 50 % 1024,4 hPa 0,0 l/m² 8,0 km/h (2 Bft) N-NW 337 ° 0 min 9 W/m² 9,6 °C 19,8 °C 12,9 km/h (3 Bft)
03.07.2025 21:15 23,9 °C 20,4 °C 47 % 50 % 1024,5 hPa 0,0 l/m² 6,4 km/h (2 Bft) N-NW 337 ° 0 min 9 W/m² 9,6 °C 20,4 °C 8,0 km/h (2 Bft)
03.07.2025 21:16 24,0 °C 20,4 °C 47 % 50 % 1024,4 hPa 0,0 l/m² 9,7 km/h (2 Bft) N-NW 337 ° 0 min 9 W/m² 9,6 °C 19,2 °C 14,5 km/h (3 Bft)
03.07.2025 21:17 24,0 °C 20,4 °C 47 % 50 % 1024,4 hPa 0,0 l/m² 8,0 km/h (2 Bft) N-NW 337 ° 0 min 9 W/m² 9,6 °C 19,8 °C 12,9 km/h (3 Bft)
03.07.2025 21:18 23,9 °C 20,4 °C 47 % 50 % 1024,4 hPa 0,0 l/m² 6,4 km/h (2 Bft) N 360 ° 0 min 9 W/m² 9,6 °C 20,4 °C 8,0 km/h (2 Bft)
03.07.2025 21:19 23,9 °C 20,3 °C 47 % 50 % 1024,4 hPa 0,0 l/m² 6,4 km/h (2 Bft) N-NW 337 ° 0 min 7 W/m² 9,5 °C 20,3 °C 9,7 km/h (2 Bft)
03.07.2025 21:20 23,9 °C 20,3 °C 47 % 50 % 1024,4 hPa 0,0 l/m² 4,8 km/h (1 Bft) N 360 ° 0 min 7 W/m² 9,5 °C 20,3 °C 8,0 km/h (2 Bft)
03.07.2025 21:21 24,0 °C 20,3 °C 47 % 50 % 1024,4 hPa 0,0 l/m² 4,8 km/h (1 Bft) N-NW 337 ° 0 min 7 W/m² 9,5 °C 20,3 °C 6,4 km/h (2 Bft)
03.07.2025 21:22 24,0 °C 20,2 °C 47 % 50 % 1024,5 hPa 0,0 l/m² 4,8 km/h (1 Bft) N 360 ° 0 min 7 W/m² 9,4 °C 20,2 °C 8,0 km/h (2 Bft)
03.07.2025 21:23 24,0 °C 20,2 °C 47 % 50 % 1024,4 hPa 0,0 l/m² 4,8 km/h (1 Bft) N-NW 337 ° 0 min 7 W/m² 9,4 °C 20,2 °C 6,4 km/h (2 Bft)
03.07.2025 21:24 24,0 °C 20,2 °C 47 % 50 % 1024,5 hPa 0,0 l/m² 4,8 km/h (1 Bft) N-NW 337 ° 0 min 7 W/m² 9,4 °C 20,2 °C 6,4 km/h (2 Bft)
03.07.2025 21:25 23,9 °C 20,1 °C 47 % 51 % 1024,5 hPa 0,0 l/m² 4,8 km/h (1 Bft) N-NW 337 ° 0 min 5 W/m² 9,6 °C 20,1 °C 8,0 km/h (2 Bft)
03.07.2025 21:26 24,0 °C 20,1 °C 48 % 51 % 1024,6 hPa 0,0 l/m² 4,8 km/h (1 Bft) N 360 ° 0 min 5 W/m² 9,6 °C 20,1 °C 6,4 km/h (2 Bft)
03.07.2025 21:27 23,9 °C 20,1 °C 48 % 51 % 1024,6 hPa 0,0 l/m² 4,8 km/h (1 Bft) N-NW 337 ° 0 min 5 W/m² 9,6 °C 20,1 °C 6,4 km/h (2 Bft)
03.07.2025 21:28 24,0 °C 19,9 °C 48 % 51 % 1024,5 hPa 0,0 l/m² 4,8 km/h (1 Bft) N-NW 337 ° 0 min 5 W/m² 9,5 °C 19,9 °C 6,4 km/h (2 Bft)
03.07.2025 21:29 24,0 °C 19,9 °C 48 % 51 % 1024,5 hPa 0,0 l/m² 3,2 km/h (1 Bft) N-NW 337 ° 0 min 5 W/m² 9,5 °C 19,9 °C 6,4 km/h (2 Bft)
03.07.2025 21:30 24,0 °C 19,8 °C 48 % 52 % 1024,5 hPa 0,0 l/m² 4,8 km/h (1 Bft) N-NW 337 ° 0 min 5 W/m² 9,7 °C 19,8 °C 4,8 km/h (1 Bft)
03.07.2025 21:31 24,0 °C 19,8 °C 48 % 51 % 1024,6 hPa 0,0 l/m² 4,8 km/h (1 Bft) N-NW 337 ° 0 min 0 W/m² 9,4 °C 19,8 °C 6,4 km/h (2 Bft)
03.07.2025 21:32 24,0 °C 19,7 °C 48 % 52 % 1024,6 hPa 0,0 l/m² 3,2 km/h (1 Bft) N-NW 337 ° 0 min 0 W/m² 9,6 °C 19,7 °C 4,8 km/h (1 Bft)
03.07.2025 21:33 24,0 °C 19,7 °C 48 % 52 % 1024,6 hPa 0,0 l/m² 4,8 km/h (1 Bft) N-NW 337 ° 0 min 0 W/m² 9,6 °C 19,7 °C 6,4 km/h (2 Bft)
03.07.2025 21:34 24,0 °C 19,6 °C 47 % 52 % 1024,6 hPa 0,0 l/m² 4,8 km/h (1 Bft) N-NW 337 ° 0 min 0 W/m² 9,5 °C 19,6 °C 6,4 km/h (2 Bft)
03.07.2025 21:35 24,0 °C 19,6 °C 48 % 52 % 1024,6 hPa 0,0 l/m² 4,8 km/h (1 Bft) N-NW 337 ° 0 min 0 W/m² 9,5 °C 19,6 °C 6,4 km/h (2 Bft)
03.07.2025 21:36 24,0 °C 19,5 °C 48 % 52 % 1024,6 hPa 0,0 l/m² 4,8 km/h (1 Bft) N-NW 337 ° 0 min 0 W/m² 9,4 °C 19,5 °C 8,0 km/h (2 Bft)
03.07.2025 21:37 24,0 °C 19,4 °C 47 % 53 % 1024,6 hPa 0,0 l/m² 3,2 km/h (1 Bft) N-NW 337 ° 0 min 0 W/m² 9,6 °C 19,4 °C 6,4 km/h (2 Bft)
03.07.2025 21:38 24,0 °C 19,4 °C 48 % 53 % 1024,6 hPa 0,0 l/m² 4,8 km/h (1 Bft) N-NW 337 ° 0 min 0 W/m² 9,6 °C 19,4 °C 4,8 km/h (1 Bft)
03.07.2025 21:39 24,0 °C 19,3 °C 48 % 53 % 1024,6 hPa 0,0 l/m² 6,4 km/h (2 Bft) N-NW 337 ° 0 min 0 W/m² 9,5 °C 19,3 °C 9,7 km/h (2 Bft)
03.07.2025 21:40 24,0 °C 19,3 °C 47 % 53 % 1024,6 hPa 0,0 l/m² 4,8 km/h (1 Bft) N 360 ° 0 min 0 W/m² 9,5 °C 19,3 °C 6,4 km/h (2 Bft)
03.07.2025 21:41 24,0 °C 19,3 °C 47 % 53 % 1024,7 hPa 0,0 l/m² 4,8 km/h (1 Bft) N-NW 337 ° 0 min 0 W/m² 9,5 °C 19,3 °C 6,4 km/h (2 Bft)
03.07.2025 21:42 24,0 °C 19,3 °C 47 % 53 % 1024,6 hPa 0,0 l/m² 6,4 km/h (2 Bft) N 360 ° 0 min 0 W/m² 9,5 °C 19,3 °C 8,0 km/h (2 Bft)
03.07.2025 21:43 24,0 °C 19,2 °C 47 % 53 % 1024,6 hPa 0,0 l/m² 6,4 km/h (2 Bft) N-NW 337 ° 0 min 0 W/m² 9,4 °C 19,2 °C 6,4 km/h (2 Bft)
03.07.2025 21:44 24,0 °C 19,2 °C 47 % 53 % 1024,5 hPa 0,0 l/m² 4,8 km/h (1 Bft) N-NW 337 ° 0 min 0 W/m² 9,4 °C 19,2 °C 6,4 km/h (2 Bft)
03.07.2025 21:45 24,0 °C 19,1 °C 47 % 53 % 1024,6 hPa 0,0 l/m² 4,8 km/h (1 Bft) N-NW 337 ° 0 min 0 W/m² 9,3 °C 19,1 °C 6,4 km/h (2 Bft)
03.07.2025 21:46 24,0 °C 19,1 °C 47 % 53 % 1024,6 hPa 0,0 l/m² 4,8 km/h (1 Bft) N-NW 337 ° 0 min 0 W/m² 9,3 °C 19,1 °C 6,4 km/h (2 Bft)
03.07.2025 21:47 24,0 °C 19,1 °C 47 % 54 % 1024,6 hPa 0,0 l/m² 4,8 km/h (1 Bft) N-NW 337 ° 0 min 0 W/m² 9,6 °C 19,1 °C 6,4 km/h (2 Bft)
03.07.2025 21:48 24,0 °C 19,0 °C 47 % 53 % 1024,7 hPa 0,0 l/m² 4,8 km/h (1 Bft) N-NW 337 ° 0 min 0 W/m² 9,2 °C 19,0 °C 6,4 km/h (2 Bft)
03.07.2025 21:49 24,0 °C 19,0 °C 47 % 53 % 1024,7 hPa 0,0 l/m² 4,8 km/h (1 Bft) N 360 ° 0 min 0 W/m² 9,2 °C 19,0 °C 8,0 km/h (2 Bft)
03.07.2025 21:50 24,0 °C 18,9 °C 47 % 54 % 1024,6 hPa 0,0 l/m² 4,8 km/h (1 Bft) N-NW 337 ° 0 min 0 W/m² 9,4 °C 18,9 °C 6,4 km/h (2 Bft)
03.07.2025 21:51 24,0 °C 18,9 °C 47 % 54 % 1024,7 hPa 0,0 l/m² 3,2 km/h (1 Bft) N-NW 337 ° 0 min 0 W/m² 9,4 °C 18,9 °C 4,8 km/h (1 Bft)
03.07.2025 21:52 24,0 °C 18,9 °C 47 % 54 % 1024,7 hPa 0,0 l/m² 4,8 km/h (1 Bft) N-NW 337 ° 0 min 0 W/m² 9,4 °C 18,9 °C 6,4 km/h (2 Bft)
03.07.2025 21:53 24,0 °C 18,8 °C 47 % 54 % 1024,7 hPa 0,0 l/m² 4,8 km/h (1 Bft) N-NW 337 ° 0 min 0 W/m² 9,3 °C 18,8 °C 6,4 km/h (2 Bft)
03.07.2025 21:54 24,0 °C 18,7 °C 47 % 55 % 1024,7 hPa 0,0 l/m² 4,8 km/h (1 Bft) N-NW 337 ° 0 min 0 W/m² 9,5 °C 18,7 °C 6,4 km/h (2 Bft)
03.07.2025 21:55 24,0 °C 18,7 °C 47 % 55 % 1024,7 hPa 0,0 l/m² 6,4 km/h (2 Bft) N-NW 337 ° 0 min 0 W/m² 9,5 °C 18,7 °C 6,4 km/h (2 Bft)
03.07.2025 21:56 24,0 °C 18,6 °C 47 % 54 % 1024,8 hPa 0,0 l/m² 4,8 km/h (1 Bft) N-NW 337 ° 0 min 0 W/m² 9,1 °C 18,6 °C 6,4 km/h (2 Bft)
03.07.2025 21:57 24,0 °C 18,6 °C 47 % 54 % 1024,8 hPa 0,0 l/m² 4,8 km/h (1 Bft) N-NW 337 ° 0 min 0 W/m² 9,1 °C 18,6 °C 6,4 km/h (2 Bft)
03.07.2025 21:58 24,0 °C 18,6 °C 47 % 55 % 1024,8 hPa 0,0 l/m² 4,8 km/h (1 Bft) N-NW 337 ° 0 min 0 W/m² 9,4 °C 18,6 °C 6,4 km/h (2 Bft)
03.07.2025 21:59 24,0 °C 18,5 °C 47 % 55 % 1024,7 hPa 0,0 l/m² 4,8 km/h (1 Bft) N-NW 337 ° 0 min 0 W/m² 9,3 °C 18,5 °C 4,8 km/h (1 Bft)
03.07.2025 22:00 24,0 °C 18,4 °C 47 % 55 % 1024,7 hPa 0,0 l/m² 4,8 km/h (1 Bft) N-NW 337 ° 0 min 0 W/m² 9,2 °C 18,4 °C 6,4 km/h (2 Bft)
03.07.2025 22:01 24,0 °C 18,4 °C 47 % 55 % 1024,7 hPa 0,0 l/m² 3,2 km/h (1 Bft) N-NW 337 ° 0 min 0 W/m² 9,2 °C 18,4 °C 4,8 km/h (1 Bft)
03.07.2025 22:02 24,0 °C 18,3 °C 47 % 55 % 1024,8 hPa 0,0 l/m² 4,8 km/h (1 Bft) N-NW 337 ° 0 min 0 W/m² 9,1 °C 18,3 °C 6,4 km/h (2 Bft)
03.07.2025 22:03 24,0 °C 18,3 °C 47 % 56 % 1024,8 hPa 0,0 l/m² 4,8 km/h (1 Bft) N-NW 337 ° 0 min 0 W/m² 9,4 °C 18,3 °C 6,4 km/h (2 Bft)
03.07.2025 22:04 24,0 °C 18,2 °C 47 % 56 % 1024,8 hPa 0,0 l/m² 4,8 km/h (1 Bft) N-NW 337 ° 0 min 0 W/m² 9,3 °C 18,2 °C 6,4 km/h (2 Bft)
03.07.2025 22:05 24,0 °C 18,1 °C 47 % 56 % 1024,8 hPa 0,0 l/m² 3,2 km/h (1 Bft) N-NW 337 ° 0 min 0 W/m² 9,2 °C 18,1 °C 4,8 km/h (1 Bft)
03.07.2025 22:06 24,0 °C 18,0 °C 47 % 56 % 1024,8 hPa 0,0 l/m² 3,2 km/h (1 Bft) N-NW 337 ° 0 min 0 W/m² 9,1 °C 18,0 °C 6,4 km/h (2 Bft)
03.07.2025 22:07 24,0 °C 17,9 °C 47 % 56 % 1024,8 hPa 0,0 l/m² 3,2 km/h (1 Bft) N-NW 337 ° 0 min 0 W/m² 9,0 °C 17,9 °C 4,8 km/h (1 Bft)
03.07.2025 22:08 24,0 °C 17,8 °C 47 % 57 % 1024,9 hPa 0,0 l/m² 3,2 km/h (1 Bft) N-NW 337 ° 0 min 0 W/m² 9,2 °C 17,8 °C 4,8 km/h (1 Bft)
03.07.2025 22:09 24,0 °C 17,7 °C 47 % 57 % 1024,8 hPa 0,0 l/m² 1,6 km/h (1 Bft) N-NW 337 ° 0 min 0 W/m² 9,1 °C 17,7 °C 4,8 km/h (1 Bft)
03.07.2025 22:10 24,0 °C 17,6 °C 47 % 57 % 1024,8 hPa 0,0 l/m² 0,0 km/h (0 Bft) N-NW 337 ° 0 min 0 W/m² 9,0 °C 17,6 °C 1,6 km/h (1 Bft)
03.07.2025 22:11 24,0 °C 17,6 °C 47 % 57 % 1024,9 hPa 0,0 l/m² 1,6 km/h (1 Bft) N-NW 337 ° 0 min 0 W/m² 9,0 °C 17,6 °C 3,2 km/h (1 Bft)
03.07.2025 22:12 24,0 °C 17,5 °C 47 % 58 % 1024,8 hPa 0,0 l/m² 3,2 km/h (1 Bft) N-NW 337 ° 0 min 0 W/m² 9,1 °C 17,5 °C 4,8 km/h (1 Bft)
03.07.2025 22:13 24,0 °C 17,4 °C 47 % 58 % 1024,8 hPa 0,0 l/m² 3,2 km/h (1 Bft) N-NW 337 ° 0 min 0 W/m² 9,1 °C 17,4 °C 4,8 km/h (1 Bft)
03.07.2025 22:14 24,0 °C 17,3 °C 47 % 58 % 1024,8 hPa 0,0 l/m² 3,2 km/h (1 Bft) N-NW 337 ° 0 min 0 W/m² 9,0 °C 17,3 °C 3,2 km/h (1 Bft)
03.07.2025 22:15 24,0 °C 17,3 °C 47 % 58 % 1024,9 hPa 0,0 l/m² 3,2 km/h (1 Bft) N-NW 337 ° 0 min 0 W/m² 9,0 °C 17,3 °C 4,8 km/h (1 Bft)
03.07.2025 22:16 24,0 °C 17,3 °C 47 % 59 % 1024,9 hPa 0,0 l/m² 3,2 km/h (1 Bft) N-NW 337 ° 0 min 0 W/m² 9,2 °C 17,3 °C 4,8 km/h (1 Bft)
03.07.2025 22:17 24,0 °C 17,2 °C 47 % 59 % 1024,9 hPa 0,0 l/m² 4,8 km/h (1 Bft) N-NW 337 ° 0 min 0 W/m² 9,1 °C 17,2 °C 4,8 km/h (1 Bft)
03.07.2025 22:18 24,0 °C 17,2 °C 47 % 59 % 1024,9 hPa 0,0 l/m² 3,2 km/h (1 Bft) N-NW 337 ° 0 min 0 W/m² 9,1 °C 17,2 °C 4,8 km/h (1 Bft)
03.07.2025 22:19 24,0 °C 17,2 °C 47 % 59 % 1025,0 hPa 0,0 l/m² 3,2 km/h (1 Bft) N-NW 337 ° 0 min 0 W/m² 9,1 °C 17,2 °C 4,8 km/h (1 Bft)
03.07.2025 22:20 24,0 °C 17,1 °C 47 % 59 % 1024,9 hPa 0,0 l/m² 3,2 km/h (1 Bft) N-NW 337 ° 0 min 0 W/m² 9,0 °C 17,1 °C 4,8 km/h (1 Bft)
03.07.2025 22:21 24,0 °C 17,1 °C 47 % 59 % 1024,9 hPa 0,0 l/m² 3,2 km/h (1 Bft) NW 315 ° 0 min 0 W/m² 9,0 °C 17,1 °C 4,8 km/h (1 Bft)
03.07.2025 22:22 24,1 °C 17,0 °C 47 % 59 % 1024,9 hPa 0,0 l/m² 3,2 km/h (1 Bft) N-NW 337 ° 0 min 0 W/m² 8,9 °C 17,0 °C 4,8 km/h (1 Bft)
03.07.2025 22:23 24,0 °C 16,9 °C 47 % 59 % 1024,9 hPa 0,0 l/m² 3,2 km/h (1 Bft) N-NW 337 ° 0 min 0 W/m² 8,8 °C 16,9 °C 4,8 km/h (1 Bft)
03.07.2025 22:24 24,0 °C 16,9 °C 47 % 59 % 1025,0 hPa 0,0 l/m² 0,0 km/h (0 Bft) N-NW 337 ° 0 min 0 W/m² 8,8 °C 16,9 °C 1,6 km/h (1 Bft)
03.07.2025 22:25 24,0 °C 16,7 °C 47 % 59 % 1025,0 hPa 0,0 l/m² 0,0 km/h (0 Bft) N 0 ° 0 min 0 W/m² 8,6 °C 16,7 °C 0,0 km/h (0 Bft)
03.07.2025 22:26 24,0 °C 16,6 °C 46 % 59 % 1025,0 hPa 0,0 l/m² 0,0 km/h (0 Bft) N-NW 337 ° 0 min 0 W/m² 8,6 °C 16,6 °C 1,6 km/h (1 Bft)
03.07.2025 22:27 24,0 °C 16,4 °C 46 % 60 % 1025,1 hPa 0,0 l/m² 0,0 km/h (0 Bft) N-NW 337 ° 0 min 0 W/m² 8,6 °C 16,4 °C 1,6 km/h (1 Bft)
03.07.2025 22:28 24,0 °C 16,3 °C 46 % 61 % 1025,0 hPa 0,0 l/m² 0,0 km/h (0 Bft) NW 315 ° 0 min 0 W/m² 8,8 °C 16,3 °C 1,6 km/h (1 Bft)
03.07.2025 22:29 24,0 °C 16,2 °C 45 % 61 % 1025,0 hPa 0,0 l/m² 0,0 km/h (0 Bft) NW 315 ° 0 min 0 W/m² 8,7 °C 16,2 °C 3,2 km/h (1 Bft)
03.07.2025 22:30 23,9 °C 16,2 °C 45 % 61 % 1025,1 hPa 0,0 l/m² 0,0 km/h (0 Bft) NW 315 ° 0 min 0 W/m² 8,7 °C 16,2 °C 1,6 km/h (1 Bft)
03.07.2025 22:31 23,9 °C 16,1 °C 45 % 61 % 1025,1 hPa 0,0 l/m² 1,6 km/h (1 Bft) N-NW 337 ° 0 min 0 W/m² 8,6 °C 16,1 °C 3,2 km/h (1 Bft)
03.07.2025 22:32 23,9 °C 16,1 °C 45 % 62 % 1025,0 hPa 0,0 l/m² 0,0 km/h (0 Bft) N-NW 337 ° 0 min 0 W/m² 8,8 °C 16,1 °C 1,6 km/h (1 Bft)
03.07.2025 22:33 23,9 °C 16,0 °C 45 % 62 % 1025,1 hPa 0,0 l/m² 0,0 km/h (0 Bft) N-NW 337 ° 0 min 0 W/m² 8,7 °C 16,0 °C 3,2 km/h (1 Bft)
03.07.2025 22:34 23,9 °C 16,0 °C 45 % 62 % 1025,1 hPa 0,0 l/m² 0,0 km/h (0 Bft) N 0 ° 0 min 0 W/m² 8,7 °C 16,0 °C 0,0 km/h (0 Bft)
03.07.2025 22:35 23,9 °C 15,9 °C 44 % 62 % 1025,0 hPa 0,0 l/m² 0,0 km/h (0 Bft) NW 315 ° 0 min 0 W/m² 8,6 °C 15,9 °C 1,6 km/h (1 Bft)
03.07.2025 22:36 23,8 °C 15,9 °C 44 % 62 % 1025,0 hPa 0,0 l/m² 0,0 km/h (0 Bft) NW 315 ° 0 min 0 W/m² 8,6 °C 15,9 °C 3,2 km/h (1 Bft)
03.07.2025 22:37 23,8 °C 15,8 °C 44 % 62 % 1025,1 hPa 0,0 l/m² 1,6 km/h (1 Bft) NW 315 ° 0 min 0 W/m² 8,5 °C 15,8 °C 3,2 km/h (1 Bft)
03.07.2025 22:38 23,8 °C 15,8 °C 44 % 63 % 1025,1 hPa 0,0 l/m² 0,0 km/h (0 Bft) N 0 ° 0 min 0 W/m² 8,8 °C 15,8 °C 0,0 km/h (0 Bft)
03.07.2025 22:39 23,8 °C 15,8 °C 44 % 63 % 1025,2 hPa 0,0 l/m² 0,0 km/h (0 Bft) NW 315 ° 0 min 0 W/m² 8,8 °C 15,8 °C 1,6 km/h (1 Bft)
03.07.2025 22:40 23,8 °C 15,7 °C 44 % 64 % 1025,2 hPa 0,0 l/m² 0,0 km/h (0 Bft) N 0 ° 0 min 0 W/m² 8,9 °C 15,7 °C 0,0 km/h (0 Bft)
03.07.2025 22:41 23,8 °C 15,6 °C 44 % 64 % 1025,2 hPa 0,0 l/m² 1,6 km/h (1 Bft) NW 315 ° 0 min 0 W/m² 8,8 °C 15,6 °C 3,2 km/h (1 Bft)
03.07.2025 22:42 23,8 °C 15,5 °C 44 % 64 % 1025,2 hPa 0,0 l/m² 1,6 km/h (1 Bft) NW 315 ° 0 min 0 W/m² 8,7 °C 15,5 °C 3,2 km/h (1 Bft)
03.07.2025 22:43 23,8 °C 15,4 °C 44 % 64 % 1025,2 hPa 0,0 l/m² 1,6 km/h (1 Bft) NW 315 ° 0 min 0 W/m² 8,6 °C 15,4 °C 3,2 km/h (1 Bft)
03.07.2025 22:44 23,7 °C 15,4 °C 44 % 64 % 1025,2 hPa 0,0 l/m² 1,6 km/h (1 Bft) W-NW 292 ° 0 min 0 W/m² 8,6 °C 15,4 °C 4,8 km/h (1 Bft)
03.07.2025 22:45 23,7 °C 15,4 °C 44 % 64 % 1025,1 hPa 0,0 l/m² 1,6 km/h (1 Bft) W-NW 292 ° 0 min 0 W/m² 8,6 °C 15,4 °C 3,2 km/h (1 Bft)
03.07.2025 22:46 23,7 °C 15,4 °C 44 % 65 % 1025,1 hPa 0,0 l/m² 1,6 km/h (1 Bft) W-NW 292 ° 0 min 0 W/m² 8,9 °C 15,4 °C 1,6 km/h (1 Bft)
03.07.2025 22:47 23,7 °C 15,3 °C 44 % 65 % 1025,2 hPa 0,0 l/m² 0,0 km/h (0 Bft) W-NW 292 ° 0 min 0 W/m² 8,8 °C 15,3 °C 1,6 km/h (1 Bft)
03.07.2025 22:48 23,7 °C 15,2 °C 44 % 65 % 1025,2 hPa 0,0 l/m² 3,2 km/h (1 Bft) NW 315 ° 0 min 0 W/m² 8,7 °C 15,2 °C 4,8 km/h (1 Bft)
03.07.2025 22:49 23,7 °C 15,2 °C 44 % 65 % 1025,2 hPa 0,0 l/m² 1,6 km/h (1 Bft) NW 315 ° 0 min 0 W/m² 8,7 °C 15,2 °C 3,2 km/h (1 Bft)
03.07.2025 22:50 23,7 °C 15,3 °C 44 % 65 % 1025,1 hPa 0,0 l/m² 0,0 km/h (0 Bft) NW 315 ° 0 min 0 W/m² 8,8 °C 15,3 °C 3,2 km/h (1 Bft)
03.07.2025 22:51 23,7 °C 15,2 °C 44 % 65 % 1025,3 hPa 0,0 l/m² 1,6 km/h (1 Bft) NW 315 ° 0 min 0 W/m² 8,7 °C 15,2 °C 3,2 km/h (1 Bft)
03.07.2025 22:52 23,7 °C 15,2 °C 44 % 65 % 1025,2 hPa 0,0 l/m² 0,0 km/h (0 Bft) N 0 ° 0 min 0 W/m² 8,7 °C 15,2 °C 0,0 km/h (0 Bft)
03.07.2025 22:53 23,6 °C 15,2 °C 44 % 65 % 1025,2 hPa 0,0 l/m² 0,0 km/h (0 Bft) NW 315 ° 0 min 0 W/m² 8,7 °C 15,2 °C 1,6 km/h (1 Bft)
03.07.2025 22:54 23,6 °C 15,1 °C 45 % 65 % 1025,3 hPa 0,0 l/m² 0,0 km/h (0 Bft) NW 315 ° 0 min 0 W/m² 8,6 °C 15,1 °C 1,6 km/h (1 Bft)
03.07.2025 22:55 23,6 °C 15,1 °C 45 % 65 % 1025,2 hPa 0,0 l/m² 1,6 km/h (1 Bft) N-NW 337 ° 0 min 0 W/m² 8,6 °C 15,1 °C 3,2 km/h (1 Bft)
03.07.2025 22:56 23,6 °C 15,1 °C 45 % 65 % 1025,2 hPa 0,0 l/m² 1,6 km/h (1 Bft) N 360 ° 0 min 0 W/m² 8,6 °C 15,1 °C 4,8 km/h (1 Bft)
03.07.2025 22:57 23,6 °C 15,1 °C 45 % 65 % 1025,2 hPa 0,0 l/m² 1,6 km/h (1 Bft) N 360 ° 0 min 0 W/m² 8,6 °C 15,1 °C 3,2 km/h (1 Bft)
03.07.2025 22:58 23,6 °C 15,1 °C 45 % 65 % 1025,2 hPa 0,0 l/m² 0,0 km/h (0 Bft) N 360 ° 0 min 0 W/m² 8,6 °C 15,1 °C 1,6 km/h (1 Bft)
03.07.2025 22:59 23,6 °C 15,1 °C 45 % 65 % 1025,2 hPa 0,0 l/m² 1,6 km/h (1 Bft) N-NW 337 ° 0 min 0 W/m² 8,6 °C 15,1 °C 4,8 km/h (1 Bft)
03.07.2025 23:00 23,6 °C 15,1 °C 45 % 65 % 1025,2 hPa 0,0 l/m² 1,6 km/h (1 Bft) N-NW 337 ° 0 min 0 W/m² 8,6 °C 15,1 °C 4,8 km/h (1 Bft)
03.07.2025 23:01 23,6 °C 15,1 °C 45 % 65 % 1025,3 hPa 0,0 l/m² 1,6 km/h (1 Bft) N-NW 337 ° 0 min 0 W/m² 8,6 °C 15,1 °C 4,8 km/h (1 Bft)
03.07.2025 23:02 23,6 °C 15,1 °C 45 % 65 % 1025,2 hPa 0,0 l/m² 3,2 km/h (1 Bft) N-NW 337 ° 0 min 0 W/m² 8,6 °C 15,1 °C 4,8 km/h (1 Bft)
03.07.2025 23:03 23,6 °C 15,2 °C 45 % 65 % 1025,3 hPa 0,0 l/m² 3,2 km/h (1 Bft) N-NW 337 ° 0 min 0 W/m² 8,7 °C 15,2 °C 4,8 km/h (1 Bft)
03.07.2025 23:04 23,6 °C 15,2 °C 45 % 65 % 1025,3 hPa 0,0 l/m² 3,2 km/h (1 Bft) N-NW 337 ° 0 min 0 W/m² 8,7 °C 15,2 °C 6,4 km/h (2 Bft)
03.07.2025 23:05 23,6 °C 15,2 °C 45 % 65 % 1025,3 hPa 0,0 l/m² 4,8 km/h (1 Bft) N-NW 337 ° 0 min 0 W/m² 8,7 °C 15,2 °C 6,4 km/h (2 Bft)
03.07.2025 23:06 23,6 °C 15,2 °C 45 % 65 % 1025,3 hPa 0,0 l/m² 3,2 km/h (1 Bft) N-NW 337 ° 0 min 0 W/m² 8,7 °C 15,2 °C 6,4 km/h (2 Bft)
03.07.2025 23:07 23,6 °C 15,2 °C 45 % 65 % 1025,4 hPa 0,0 l/m² 3,2 km/h (1 Bft) N-NW 337 ° 0 min 0 W/m² 8,7 °C 15,2 °C 6,4 km/h (2 Bft)
03.07.2025 23:08 23,6 °C 15,2 °C 45 % 65 % 1025,3 hPa 0,0 l/m² 3,2 km/h (1 Bft) N-NW 337 ° 0 min 0 W/m² 8,7 °C 15,2 °C 4,8 km/h (1 Bft)
03.07.2025 23:09 23,6 °C 15,2 °C 45 % 65 % 1025,3 hPa 0,0 l/m² 3,2 km/h (1 Bft) N-NW 337 ° 0 min 0 W/m² 8,7 °C 15,2 °C 4,8 km/h (1 Bft)
03.07.2025 23:10 23,6 °C 15,2 °C 45 % 65 % 1025,3 hPa 0,0 l/m² 3,2 km/h (1 Bft) N-NW 337 ° 0 min 0 W/m² 8,7 °C 15,2 °C 6,4 km/h (2 Bft)
03.07.2025 23:11 23,6 °C 15,2 °C 45 % 65 % 1025,3 hPa 0,0 l/m² 1,6 km/h (1 Bft) N-NW 337 ° 0 min 0 W/m² 8,7 °C 15,2 °C 4,8 km/h (1 Bft)
03.07.2025 23:12 23,7 °C 15,3 °C 45 % 65 % 1025,4 hPa 0,0 l/m² 3,2 km/h (1 Bft) N-NW 337 ° 0 min 0 W/m² 8,8 °C 15,3 °C 6,4 km/h (2 Bft)
03.07.2025 23:13 23,7 °C 15,2 °C 45 % 65 % 1025,4 hPa 0,0 l/m² 1,6 km/h (1 Bft) NW 315 ° 0 min 0 W/m² 8,7 °C 15,2 °C 3,2 km/h (1 Bft)
03.07.2025 23:14 23,6 °C 15,2 °C 45 % 65 % 1025,4 hPa 0,0 l/m² 1,6 km/h (1 Bft) NW 315 ° 0 min 0 W/m² 8,7 °C 15,2 °C 3,2 km/h (1 Bft)
03.07.2025 23:15 23,6 °C 15,1 °C 45 % 65 % 1025,4 hPa 0,0 l/m² 0,0 km/h (0 Bft) NW 315 ° 0 min 0 W/m² 8,6 °C 15,1 °C 1,6 km/h (1 Bft)
03.07.2025 23:16 23,6 °C 15,1 °C 45 % 65 % 1025,4 hPa 0,0 l/m² 1,6 km/h (1 Bft) NW 315 ° 0 min 0 W/m² 8,6 °C 15,1 °C 3,2 km/h (1 Bft)
03.07.2025 23:17 23,6 °C 15,0 °C 45 % 66 % 1025,4 hPa 0,0 l/m² 0,0 km/h (0 Bft) NW 315 ° 0 min 0 W/m² 8,7 °C 15,0 °C 1,6 km/h (1 Bft)
03.07.2025 23:18 23,6 °C 14,9 °C 46 % 66 % 1025,4 hPa 0,0 l/m² 1,6 km/h (1 Bft) NW 315 ° 0 min 0 W/m² 8,6 °C 14,9 °C 3,2 km/h (1 Bft)
03.07.2025 23:19 23,6 °C 14,9 °C 46 % 66 % 1025,6 hPa 0,0 l/m² 1,6 km/h (1 Bft) NW 315 ° 0 min 0 W/m² 8,6 °C 14,9 °C 3,2 km/h (1 Bft)
03.07.2025 23:20 23,6 °C 14,8 °C 46 % 66 % 1025,5 hPa 0,0 l/m² 0,0 km/h (0 Bft) N 0 ° 0 min 0 W/m² 8,5 °C 14,8 °C 0,0 km/h (0 Bft)
03.07.2025 23:21 23,6 °C 14,8 °C 46 % 67 % 1025,5 hPa 0,0 l/m² 0,0 km/h (0 Bft) NW 315 ° 0 min 0 W/m² 8,7 °C 14,8 °C 1,6 km/h (1 Bft)
03.07.2025 23:22 23,7 °C 14,7 °C 46 % 67 % 1025,5 hPa 0,0 l/m² 0,0 km/h (0 Bft) NW 315 ° 0 min 0 W/m² 8,6 °C 14,7 °C 1,6 km/h (1 Bft)
03.07.2025 23:23 23,6 °C 14,6 °C 46 % 67 % 1025,6 hPa 0,0 l/m² 0,0 km/h (0 Bft) NW 315 ° 0 min 0 W/m² 8,5 °C 14,6 °C 1,6 km/h (1 Bft)
03.07.2025 23:24 23,6 °C 14,6 °C 46 % 67 % 1025,6 hPa 0,0 l/m² 0,0 km/h (0 Bft) N 0 ° 0 min 0 W/m² 8,5 °C 14,6 °C 0,0 km/h (0 Bft)
03.07.2025 23:25 23,7 °C 14,6 °C 46 % 68 % 1025,6 hPa 0,0 l/m² 0,0 km/h (0 Bft) W-NW 292 ° 0 min 0 W/m² 8,8 °C 14,6 °C 1,6 km/h (1 Bft)
03.07.2025 23:26 23,6 °C 14,5 °C 46 % 69 % 1025,6 hPa 0,0 l/m² 1,6 km/h (1 Bft) W-NW 292 ° 0 min 0 W/m² 8,9 °C 14,5 °C 3,2 km/h (1 Bft)
03.07.2025 23:27 23,6 °C 14,5 °C 46 % 70 % 1025,5 hPa 0,0 l/m² 1,6 km/h (1 Bft) W-NW 292 ° 0 min 0 W/m² 9,1 °C 14,5 °C 3,2 km/h (1 Bft)
03.07.2025 23:28 23,7 °C 14,5 °C 46 % 70 % 1025,6 hPa 0,0 l/m² 0,0 km/h (0 Bft) W-NW 292 ° 0 min 0 W/m² 9,1 °C 14,5 °C 1,6 km/h (1 Bft)
03.07.2025 23:29 23,6 °C 14,5 °C 46 % 71 % 1025,6 hPa 0,0 l/m² 0,0 km/h (0 Bft) N 0 ° 0 min 0 W/m² 9,3 °C 14,5 °C 0,0 km/h (0 Bft)
03.07.2025 23:30 23,6 °C 14,5 °C 46 % 71 % 1025,6 hPa 0,0 l/m² 0,0 km/h (0 Bft) W-NW 292 ° 0 min 0 W/m² 9,3 °C 14,5 °C 1,6 km/h (1 Bft)
03.07.2025 23:31 23,6 °C 14,4 °C 46 % 72 % 1025,7 hPa 0,0 l/m² 0,0 km/h (0 Bft) W-NW 292 ° 0 min 0 W/m² 9,4 °C 14,4 °C 1,6 km/h (1 Bft)
03.07.2025 23:32 23,7 °C 14,3 °C 46 % 73 % 1025,6 hPa 0,0 l/m² 1,6 km/h (1 Bft) W-NW 292 ° 0 min 0 W/m² 9,5 °C 14,3 °C 3,2 km/h (1 Bft)
03.07.2025 23:33 23,6 °C 14,3 °C 46 % 73 % 1025,6 hPa 0,0 l/m² 1,6 km/h (1 Bft) W-NW 292 ° 0 min 0 W/m² 9,5 °C 14,3 °C 3,2 km/h (1 Bft)
03.07.2025 23:34 23,7 °C 14,2 °C 46 % 72 % 1025,7 hPa 0,0 l/m² 1,6 km/h (1 Bft) W-SW 247 ° 0 min 0 W/m² 9,2 °C 14,2 °C 3,2 km/h (1 Bft)
03.07.2025 23:35 23,6 °C 14,1 °C 46 % 71 % 1025,6 hPa 0,0 l/m² 0,0 km/h (0 Bft) W-SW 247 ° 0 min 0 W/m² 8,9 °C 14,1 °C 1,6 km/h (1 Bft)
03.07.2025 23:36 23,6 °C 14,1 °C 46 % 71 % 1025,7 hPa 0,0 l/m² 0,0 km/h (0 Bft) W-SW 247 ° 0 min 0 W/m² 8,9 °C 14,1 °C 1,6 km/h (1 Bft)
03.07.2025 23:37 23,6 °C 14,0 °C 46 % 71 % 1025,6 hPa 0,0 l/m² 0,0 km/h (0 Bft) W-SW 247 ° 0 min 0 W/m² 8,8 °C 14,0 °C 1,6 km/h (1 Bft)
03.07.2025 23:38 23,6 °C 13,9 °C 46 % 70 % 1025,6 hPa 0,0 l/m² 0,0 km/h (0 Bft) W-SW 247 ° 0 min 0 W/m² 8,5 °C 13,9 °C 1,6 km/h (1 Bft)
03.07.2025 23:39 23,6 °C 13,8 °C 46 % 70 % 1025,7 hPa 0,0 l/m² 0,0 km/h (0 Bft) N 0 ° 0 min 0 W/m² 8,4 °C 13,8 °C 0,0 km/h (0 Bft)
03.07.2025 23:40 23,6 °C 13,7 °C 46 % 69 % 1025,7 hPa 0,0 l/m² 0,0 km/h (0 Bft) N 0 ° 0 min 0 W/m² 8,1 °C 13,7 °C 0,0 km/h (0 Bft)
03.07.2025 23:41 23,7 °C 13,7 °C 46 % 69 % 1025,6 hPa 0,0 l/m² 0,0 km/h (0 Bft) N 0 ° 0 min 0 W/m² 8,1 °C 13,7 °C 0,0 km/h (0 Bft)
03.07.2025 23:42 23,7 °C 13,7 °C 46 % 69 % 1025,6 hPa 0,0 l/m² 0,0 km/h (0 Bft) N 0 ° 0 min 0 W/m² 8,1 °C 13,7 °C 0,0 km/h (0 Bft)
03.07.2025 23:43 23,6 °C 13,7 °C 46 % 69 % 1025,6 hPa 0,0 l/m² 0,0 km/h (0 Bft) N 0 ° 0 min 0 W/m² 8,1 °C 13,7 °C 0,0 km/h (0 Bft)
03.07.2025 23:44 23,6 °C 13,7 °C 46 % 69 % 1025,7 hPa 0,0 l/m² 0,0 km/h (0 Bft) N 0 ° 0 min 0 W/m² 8,1 °C 13,7 °C 0,0 km/h (0 Bft)
03.07.2025 23:45 23,6 °C 13,7 °C 46 % 69 % 1025,6 hPa 0,0 l/m² 0,0 km/h (0 Bft) N 0 ° 0 min 0 W/m² 8,1 °C 13,7 °C 0,0 km/h (0 Bft)
03.07.2025 23:46 23,6 °C 13,6 °C 46 % 69 % 1025,7 hPa 0,0 l/m² 0,0 km/h (0 Bft) N 0 ° 0 min 0 W/m² 8,0 °C 13,6 °C 0,0 km/h (0 Bft)
03.07.2025 23:47 23,6 °C 13,6 °C 46 % 69 % 1025,7 hPa 0,0 l/m² 0,0 km/h (0 Bft) N 0 ° 0 min 0 W/m² 8,0 °C 13,6 °C 0,0 km/h (0 Bft)
03.07.2025 23:48 23,6 °C 13,6 °C 46 % 70 % 1025,7 hPa 0,0 l/m² 0,0 km/h (0 Bft) N 0 ° 0 min 0 W/m² 8,2 °C 13,6 °C 0,0 km/h (0 Bft)
03.07.2025 23:49 23,7 °C 13,6 °C 46 % 70 % 1025,7 hPa 0,0 l/m² 0,0 km/h (0 Bft) N 0 ° 0 min 0 W/m² 8,2 °C 13,6 °C 0,0 km/h (0 Bft)
03.07.2025 23:50 23,6 °C 13,5 °C 46 % 70 % 1025,7 hPa 0,0 l/m² 0,0 km/h (0 Bft) N 0 ° 0 min 0 W/m² 8,1 °C 13,5 °C 0,0 km/h (0 Bft)
03.07.2025 23:51 23,7 °C 13,4 °C 46 % 70 % 1025,7 hPa 0,0 l/m² 0,0 km/h (0 Bft) N 0 ° 0 min 0 W/m² 8,0 °C 13,4 °C 0,0 km/h (0 Bft)
03.07.2025 23:52 23,6 °C 13,4 °C 46 % 70 % 1025,7 hPa 0,0 l/m² 0,0 km/h (0 Bft) N 0 ° 0 min 0 W/m² 8,0 °C 13,4 °C 0,0 km/h (0 Bft)
03.07.2025 23:53 23,6 °C 13,4 °C 46 % 70 % 1025,7 hPa 0,0 l/m² 0,0 km/h (0 Bft) N 0 ° 0 min 0 W/m² 8,0 °C 13,4 °C 0,0 km/h (0 Bft)
03.07.2025 23:54 23,6 °C 13,4 °C 47 % 70 % 1025,7 hPa 0,0 l/m² 0,0 km/h (0 Bft) N 0 ° 0 min 0 W/m² 8,0 °C 13,4 °C 0,0 km/h (0 Bft)
03.07.2025 23:55 23,6 °C 13,4 °C 47 % 70 % 1025,8 hPa 0,0 l/m² 0,0 km/h (0 Bft) N 0 ° 0 min 0 W/m² 8,0 °C 13,4 °C 0,0 km/h (0 Bft)
03.07.2025 23:56 23,6 °C 13,4 °C 47 % 70 % 1025,8 hPa 0,0 l/m² 0,0 km/h (0 Bft) N 0 ° 0 min 0 W/m² 8,0 °C 13,4 °C 0,0 km/h (0 Bft)
03.07.2025 23:57 23,6 °C 13,5 °C 47 % 70 % 1025,8 hPa 0,0 l/m² 0,0 km/h (0 Bft) N 0 ° 0 min 0 W/m² 8,1 °C 13,5 °C 0,0 km/h (0 Bft)
03.07.2025 23:58 23,6 °C 13,4 °C 47 % 70 % 1025,8 hPa 0,0 l/m² 0,0 km/h (0 Bft) N 0 ° 0 min 0 W/m² 8,0 °C 13,4 °C 0,0 km/h (0 Bft)
03.07.2025 23:59 23,7 °C 13,4 °C 47 % 71 % 1025,8 hPa 0,0 l/m² 0,0 km/h (0 Bft) N 0 ° 0 min 0 W/m² 8,3 °C 13,4 °C 0,0 km/h (0 Bft)
_ Min-Zeit 11:45 23:59 22:53 15:57 00:33 - 23:59 - - - - 23:47 23:59 23:59
Minimum _ 23,4 °C 13,4 °C 44 % 37 % 1012,7 hPa - 0,0 km/h (0 Bft) - - - - 8,0 °C 13,4 °C 0,0 km/h (0 Bft)
_ Max-Zeit 00:21 15:56 08:16 07:56 23:59 07:37 00:39 - - 09:05 13:36 07:44 15:49 00:39
Maximum _ 24,6 °C 26,4 °C 62 % 89 % 1025,8 hPa 0,2 l/m² 23,7 km/h
W-NW (4 Bft)
- - 3 min 1187 W/m² 18,3 °C 26,1 °C 40,2 km/h
N-NW (6 Bft)
Durchschnitt _ 24,0 °C 21,8 °C 55 % 63 % 1020,5 hPa #0,6 l/m² 8,1 km/h (2 Bft) W-NW - #11:00 h 205 W/m² 13,8 °C 21,0 °C 15,0 km/h (3 Bft)
© 2009 Mathias Hoßbach